<?xml version="1.0" encoding="UTF-8" standalone="no" ?>
<gpx xmlns="http://www.topografix.com/GPX/1/1" xmlns:xsi="http://www.w3.org/2001/XMLSchema-instance" xsi:schemaLocation="http://www.topografix.com/GPX/1/1 http://www.topografix.com/GPX/1/1/gpx.xsd" version="1.1" creator="VisuGPX - https://www.visugpx.com">
  <metadata>
    <name>TRAIL DES DEUX LACS 2011</name>
    <desc><![CDATA[Superbe trail dans le cadre de la 6000D.
Il manqnue les 400 premiers mètres, perte de satellite!!]]></desc>
  </metadata>
  <trk>
    <name><![CDATA[TRAIL DES DEUX LACS 2011_1]]></name>
    <trkseg>
      <trkpt lat="45.51178" lon="6.69487">
        <ele>1997.5999755859</ele>
        <time>2011-07-30T07:06:50Z</time>
      </trkpt>
      <trkpt lat="45.51178" lon="6.69486">
        <ele>1997.5999755859</ele>
        <time>2011-07-30T07:06:51Z</time>
      </trkpt>
      <trkpt lat="45.5118" lon="6.6948">
        <ele>1997.5999755859</ele>
        <time>2011-07-30T07:06:54Z</time>
      </trkpt>
      <trkpt lat="45.51173" lon="6.69484">
        <ele>1998</ele>
        <time>2011-07-30T07:06:59Z</time>
      </trkpt>
      <trkpt lat="45.51171" lon="6.69484">
        <ele>1998.1999511719</ele>
        <time>2011-07-30T07:07:00Z</time>
      </trkpt>
      <trkpt lat="45.51168" lon="6.69487">
        <ele>1998.5999755859</ele>
        <time>2011-07-30T07:07:03Z</time>
      </trkpt>
      <trkpt lat="45.51159" lon="6.69487">
        <ele>1999</ele>
        <time>2011-07-30T07:07:09Z</time>
      </trkpt>
      <trkpt lat="45.51152" lon="6.69488">
        <ele>1999.1999511719</ele>
        <time>2011-07-30T07:07:13Z</time>
      </trkpt>
      <trkpt lat="45.51148" lon="6.69494">
        <ele>2000.1999511719</ele>
        <time>2011-07-30T07:07:18Z</time>
      </trkpt>
      <trkpt lat="45.51143" lon="6.69504">
        <ele>2001</ele>
        <time>2011-07-30T07:07:25Z</time>
      </trkpt>
      <trkpt lat="45.51134" lon="6.6951">
        <ele>2002.5999755859</ele>
        <time>2011-07-30T07:07:32Z</time>
      </trkpt>
      <trkpt lat="45.51131" lon="6.69513">
        <ele>2003</ele>
        <time>2011-07-30T07:07:35Z</time>
      </trkpt>
      <trkpt lat="45.51131" lon="6.69508">
        <ele>2003.1999511719</ele>
        <time>2011-07-30T07:07:39Z</time>
      </trkpt>
      <trkpt lat="45.51133" lon="6.69506">
        <ele>2003.4000244141</ele>
        <time>2011-07-30T07:07:40Z</time>
      </trkpt>
      <trkpt lat="45.51141" lon="6.69493">
        <ele>2003.5999755859</ele>
        <time>2011-07-30T07:07:46Z</time>
      </trkpt>
      <trkpt lat="45.51143" lon="6.6948">
        <ele>2004</ele>
        <time>2011-07-30T07:07:50Z</time>
      </trkpt>
      <trkpt lat="45.51146" lon="6.69463">
        <ele>2004.8000488281</ele>
        <time>2011-07-30T07:07:56Z</time>
      </trkpt>
      <trkpt lat="45.51147" lon="6.69461">
        <ele>2005</ele>
        <time>2011-07-30T07:07:57Z</time>
      </trkpt>
      <trkpt lat="45.51148" lon="6.69456">
        <ele>2005.1999511719</ele>
        <time>2011-07-30T07:07:59Z</time>
      </trkpt>
      <trkpt lat="45.51158" lon="6.6945">
        <ele>2006.4000244141</ele>
        <time>2011-07-30T07:08:05Z</time>
      </trkpt>
      <trkpt lat="45.51169" lon="6.69448">
        <ele>2007.1999511719</ele>
        <time>2011-07-30T07:08:10Z</time>
      </trkpt>
      <trkpt lat="45.51171" lon="6.69447">
        <ele>2007.1999511719</ele>
        <time>2011-07-30T07:08:11Z</time>
      </trkpt>
      <trkpt lat="45.51171" lon="6.69434">
        <ele>2007.5999755859</ele>
        <time>2011-07-30T07:08:16Z</time>
      </trkpt>
      <trkpt lat="45.51169" lon="6.69431">
        <ele>2007.5999755859</ele>
        <time>2011-07-30T07:08:17Z</time>
      </trkpt>
      <trkpt lat="45.51165" lon="6.6942">
        <ele>2008.1999511719</ele>
        <time>2011-07-30T07:08:21Z</time>
      </trkpt>
      <trkpt lat="45.51159" lon="6.69407">
        <ele>2009</ele>
        <time>2011-07-30T07:08:26Z</time>
      </trkpt>
      <trkpt lat="45.51156" lon="6.694">
        <ele>2009.4000244141</ele>
        <time>2011-07-30T07:08:29Z</time>
      </trkpt>
      <trkpt lat="45.51162" lon="6.69397">
        <ele>2009.5999755859</ele>
        <time>2011-07-30T07:08:33Z</time>
      </trkpt>
      <trkpt lat="45.51174" lon="6.69392">
        <ele>2010</ele>
        <time>2011-07-30T07:08:39Z</time>
      </trkpt>
      <trkpt lat="45.51178" lon="6.69389">
        <ele>2010</ele>
        <time>2011-07-30T07:08:41Z</time>
      </trkpt>
      <trkpt lat="45.51186" lon="6.6939">
        <ele>2010</ele>
        <time>2011-07-30T07:08:45Z</time>
      </trkpt>
      <trkpt lat="45.51194" lon="6.69386">
        <ele>2010.1999511719</ele>
        <time>2011-07-30T07:08:50Z</time>
      </trkpt>
      <trkpt lat="45.512" lon="6.69379">
        <ele>2010.1999511719</ele>
        <time>2011-07-30T07:08:54Z</time>
      </trkpt>
      <trkpt lat="45.51202" lon="6.69371">
        <ele>2010.1999511719</ele>
        <time>2011-07-30T07:08:58Z</time>
      </trkpt>
      <trkpt lat="45.51204" lon="6.69355">
        <ele>2010.5999755859</ele>
        <time>2011-07-30T07:09:04Z</time>
      </trkpt>
      <trkpt lat="45.51205" lon="6.69353">
        <ele>2010.8000488281</ele>
        <time>2011-07-30T07:09:05Z</time>
      </trkpt>
      <trkpt lat="45.51209" lon="6.69347">
        <ele>2011.4000244141</ele>
        <time>2011-07-30T07:09:10Z</time>
      </trkpt>
      <trkpt lat="45.51204" lon="6.69345">
        <ele>2011.5999755859</ele>
        <time>2011-07-30T07:09:13Z</time>
      </trkpt>
      <trkpt lat="45.51201" lon="6.69347">
        <ele>2011.8000488281</ele>
        <time>2011-07-30T07:09:15Z</time>
      </trkpt>
      <trkpt lat="45.51199" lon="6.6935">
        <ele>2011.8000488281</ele>
        <time>2011-07-30T07:09:17Z</time>
      </trkpt>
      <trkpt lat="45.51196" lon="6.69359">
        <ele>2012</ele>
        <time>2011-07-30T07:09:21Z</time>
      </trkpt>
      <trkpt lat="45.51189" lon="6.69368">
        <ele>2012</ele>
        <time>2011-07-30T07:09:27Z</time>
      </trkpt>
      <trkpt lat="45.51187" lon="6.69367">
        <ele>2012.1999511719</ele>
        <time>2011-07-30T07:09:28Z</time>
      </trkpt>
      <trkpt lat="45.51178" lon="6.69367">
        <ele>2012.1999511719</ele>
        <time>2011-07-30T07:09:33Z</time>
      </trkpt>
      <trkpt lat="45.51168" lon="6.69369">
        <ele>2012.1999511719</ele>
        <time>2011-07-30T07:09:39Z</time>
      </trkpt>
      <trkpt lat="45.51158" lon="6.69369">
        <ele>2012.1999511719</ele>
        <time>2011-07-30T07:09:45Z</time>
      </trkpt>
      <trkpt lat="45.51154" lon="6.69369">
        <ele>2012.1999511719</ele>
        <time>2011-07-30T07:09:47Z</time>
      </trkpt>
      <trkpt lat="45.51144" lon="6.69362">
        <ele>2013</ele>
        <time>2011-07-30T07:09:53Z</time>
      </trkpt>
      <trkpt lat="45.51141" lon="6.69357">
        <ele>2013.4000244141</ele>
        <time>2011-07-30T07:09:56Z</time>
      </trkpt>
      <trkpt lat="45.51138" lon="6.69351">
        <ele>2013.5999755859</ele>
        <time>2011-07-30T07:09:59Z</time>
      </trkpt>
      <trkpt lat="45.51132" lon="6.69362">
        <ele>2013.8000488281</ele>
        <time>2011-07-30T07:10:04Z</time>
      </trkpt>
      <trkpt lat="45.51131" lon="6.69365">
        <ele>2014</ele>
        <time>2011-07-30T07:10:05Z</time>
      </trkpt>
      <trkpt lat="45.51128" lon="6.69395">
        <ele>2015.1999511719</ele>
        <time>2011-07-30T07:10:14Z</time>
      </trkpt>
      <trkpt lat="45.51127" lon="6.69398">
        <ele>2015.1999511719</ele>
        <time>2011-07-30T07:10:15Z</time>
      </trkpt>
      <trkpt lat="45.51129" lon="6.69413">
        <ele>2016</ele>
        <time>2011-07-30T07:10:20Z</time>
      </trkpt>
      <trkpt lat="45.51129" lon="6.69418">
        <ele>2016.5999755859</ele>
        <time>2011-07-30T07:10:22Z</time>
      </trkpt>
      <trkpt lat="45.51128" lon="6.69431">
        <ele>2017.1999511719</ele>
        <time>2011-07-30T07:10:27Z</time>
      </trkpt>
      <trkpt lat="45.51122" lon="6.69446">
        <ele>2018.8000488281</ele>
        <time>2011-07-30T07:10:34Z</time>
      </trkpt>
      <trkpt lat="45.51112" lon="6.69454">
        <ele>2020</ele>
        <time>2011-07-30T07:10:40Z</time>
      </trkpt>
      <trkpt lat="45.51105" lon="6.69463">
        <ele>2021</ele>
        <time>2011-07-30T07:10:45Z</time>
      </trkpt>
      <trkpt lat="45.511" lon="6.69472">
        <ele>2022.1999511719</ele>
        <time>2011-07-30T07:10:50Z</time>
      </trkpt>
      <trkpt lat="45.51094" lon="6.69481">
        <ele>2023.4000244141</ele>
        <time>2011-07-30T07:10:56Z</time>
      </trkpt>
      <trkpt lat="45.5109" lon="6.69487">
        <ele>2024.1999511719</ele>
        <time>2011-07-30T07:11:00Z</time>
      </trkpt>
      <trkpt lat="45.51088" lon="6.69482">
        <ele>2025.1999511719</ele>
        <time>2011-07-30T07:11:05Z</time>
      </trkpt>
      <trkpt lat="45.51088" lon="6.69481">
        <ele>2025.4000244141</ele>
        <time>2011-07-30T07:11:06Z</time>
      </trkpt>
      <trkpt lat="45.51091" lon="6.69471">
        <ele>2026</ele>
        <time>2011-07-30T07:11:13Z</time>
      </trkpt>
      <trkpt lat="45.51093" lon="6.69465">
        <ele>2026.1999511719</ele>
        <time>2011-07-30T07:11:16Z</time>
      </trkpt>
      <trkpt lat="45.51096" lon="6.69453">
        <ele>2027.4000244141</ele>
        <time>2011-07-30T07:11:23Z</time>
      </trkpt>
      <trkpt lat="45.511" lon="6.6944">
        <ele>2028</ele>
        <time>2011-07-30T07:11:30Z</time>
      </trkpt>
      <trkpt lat="45.51104" lon="6.69427">
        <ele>2028.4000244141</ele>
        <time>2011-07-30T07:11:37Z</time>
      </trkpt>
      <trkpt lat="45.51105" lon="6.69424">
        <ele>2028.4000244141</ele>
        <time>2011-07-30T07:11:39Z</time>
      </trkpt>
      <trkpt lat="45.51106" lon="6.69412">
        <ele>2029.4000244141</ele>
        <time>2011-07-30T07:11:45Z</time>
      </trkpt>
      <trkpt lat="45.51105" lon="6.69405">
        <ele>2029.8000488281</ele>
        <time>2011-07-30T07:11:49Z</time>
      </trkpt>
      <trkpt lat="45.51102" lon="6.69407">
        <ele>2030.5999755859</ele>
        <time>2011-07-30T07:11:53Z</time>
      </trkpt>
      <trkpt lat="45.51097" lon="6.69421">
        <ele>2032</ele>
        <time>2011-07-30T07:12:02Z</time>
      </trkpt>
      <trkpt lat="45.51087" lon="6.69428">
        <ele>2033.4000244141</ele>
        <time>2011-07-30T07:12:10Z</time>
      </trkpt>
      <trkpt lat="45.51078" lon="6.69431">
        <ele>2034.5999755859</ele>
        <time>2011-07-30T07:12:17Z</time>
      </trkpt>
      <trkpt lat="45.51076" lon="6.69432">
        <ele>2035</ele>
        <time>2011-07-30T07:12:19Z</time>
      </trkpt>
      <trkpt lat="45.51071" lon="6.6944">
        <ele>2035.8000488281</ele>
        <time>2011-07-30T07:12:25Z</time>
      </trkpt>
      <trkpt lat="45.51069" lon="6.69435">
        <ele>2036.4000244141</ele>
        <time>2011-07-30T07:12:30Z</time>
      </trkpt>
      <trkpt lat="45.5107" lon="6.69433">
        <ele>2037</ele>
        <time>2011-07-30T07:12:33Z</time>
      </trkpt>
      <trkpt lat="45.51071" lon="6.69431">
        <ele>2037.1999511719</ele>
        <time>2011-07-30T07:12:34Z</time>
      </trkpt>
      <trkpt lat="45.51071" lon="6.69428">
        <ele>2037.5999755859</ele>
        <time>2011-07-30T07:12:36Z</time>
      </trkpt>
      <trkpt lat="45.51075" lon="6.6942">
        <ele>2038</ele>
        <time>2011-07-30T07:12:41Z</time>
      </trkpt>
      <trkpt lat="45.5108" lon="6.6941">
        <ele>2038.4000244141</ele>
        <time>2011-07-30T07:12:48Z</time>
      </trkpt>
      <trkpt lat="45.51081" lon="6.69408">
        <ele>2038.4000244141</ele>
        <time>2011-07-30T07:12:49Z</time>
      </trkpt>
      <trkpt lat="45.51086" lon="6.69393">
        <ele>2038.5999755859</ele>
        <time>2011-07-30T07:12:58Z</time>
      </trkpt>
      <trkpt lat="45.5109" lon="6.69378">
        <ele>2039.5999755859</ele>
        <time>2011-07-30T07:13:06Z</time>
      </trkpt>
      <trkpt lat="45.5109" lon="6.69368">
        <ele>2040.1999511719</ele>
        <time>2011-07-30T07:13:11Z</time>
      </trkpt>
      <trkpt lat="45.51097" lon="6.6936">
        <ele>2041.4000244141</ele>
        <time>2011-07-30T07:13:18Z</time>
      </trkpt>
      <trkpt lat="45.51102" lon="6.69355">
        <ele>2042.4000244141</ele>
        <time>2011-07-30T07:13:23Z</time>
      </trkpt>
      <trkpt lat="45.51104" lon="6.69351">
        <ele>2043</ele>
        <time>2011-07-30T07:13:25Z</time>
      </trkpt>
      <trkpt lat="45.51112" lon="6.69338">
        <ele>2044</ele>
        <time>2011-07-30T07:13:30Z</time>
      </trkpt>
      <trkpt lat="45.51112" lon="6.69335">
        <ele>2044.4000244141</ele>
        <time>2011-07-30T07:13:31Z</time>
      </trkpt>
      <trkpt lat="45.51109" lon="6.69319">
        <ele>2045.5999755859</ele>
        <time>2011-07-30T07:13:36Z</time>
      </trkpt>
      <trkpt lat="45.51113" lon="6.6931">
        <ele>2046.4000244141</ele>
        <time>2011-07-30T07:13:40Z</time>
      </trkpt>
      <trkpt lat="45.51117" lon="6.6931">
        <ele>2047</ele>
        <time>2011-07-30T07:13:42Z</time>
      </trkpt>
      <trkpt lat="45.51124" lon="6.69311">
        <ele>2047.8000488281</ele>
        <time>2011-07-30T07:13:46Z</time>
      </trkpt>
      <trkpt lat="45.51131" lon="6.69315">
        <ele>2048.6000976562</ele>
        <time>2011-07-30T07:13:50Z</time>
      </trkpt>
      <trkpt lat="45.51135" lon="6.69318">
        <ele>2049.1999511719</ele>
        <time>2011-07-30T07:13:52Z</time>
      </trkpt>
      <trkpt lat="45.51144" lon="6.69318">
        <ele>2050.1999511719</ele>
        <time>2011-07-30T07:13:57Z</time>
      </trkpt>
      <trkpt lat="45.51153" lon="6.69312">
        <ele>2051</ele>
        <time>2011-07-30T07:14:03Z</time>
      </trkpt>
      <trkpt lat="45.51158" lon="6.69307">
        <ele>2052</ele>
        <time>2011-07-30T07:14:07Z</time>
      </trkpt>
      <trkpt lat="45.51153" lon="6.69307">
        <ele>2052.6000976562</ele>
        <time>2011-07-30T07:14:12Z</time>
      </trkpt>
      <trkpt lat="45.51147" lon="6.69311">
        <ele>2053</ele>
        <time>2011-07-30T07:14:17Z</time>
      </trkpt>
      <trkpt lat="45.51146" lon="6.69312">
        <ele>2053.3999023438</ele>
        <time>2011-07-30T07:14:18Z</time>
      </trkpt>
      <trkpt lat="45.51145" lon="6.69312">
        <ele>2053.6000976562</ele>
        <time>2011-07-30T07:14:19Z</time>
      </trkpt>
      <trkpt lat="45.51141" lon="6.69306">
        <ele>2054.6000976562</ele>
        <time>2011-07-30T07:14:25Z</time>
      </trkpt>
      <trkpt lat="45.51144" lon="6.69301">
        <ele>2055</ele>
        <time>2011-07-30T07:14:29Z</time>
      </trkpt>
      <trkpt lat="45.51149" lon="6.69289">
        <ele>2055.3999023438</ele>
        <time>2011-07-30T07:14:38Z</time>
      </trkpt>
      <trkpt lat="45.51149" lon="6.69288">
        <ele>2055.3999023438</ele>
        <time>2011-07-30T07:14:39Z</time>
      </trkpt>
      <trkpt lat="45.51151" lon="6.69284">
        <ele>2055.3999023438</ele>
        <time>2011-07-30T07:14:42Z</time>
      </trkpt>
      <trkpt lat="45.51155" lon="6.69271">
        <ele>2055.6000976562</ele>
        <time>2011-07-30T07:14:50Z</time>
      </trkpt>
      <trkpt lat="45.51155" lon="6.69269">
        <ele>2055.6000976562</ele>
        <time>2011-07-30T07:14:51Z</time>
      </trkpt>
      <trkpt lat="45.51159" lon="6.69261">
        <ele>2055.6000976562</ele>
        <time>2011-07-30T07:14:56Z</time>
      </trkpt>
      <trkpt lat="45.51164" lon="6.69249">
        <ele>2056.8000488281</ele>
        <time>2011-07-30T07:15:03Z</time>
      </trkpt>
      <trkpt lat="45.51165" lon="6.69248">
        <ele>2056.8000488281</ele>
        <time>2011-07-30T07:15:04Z</time>
      </trkpt>
      <trkpt lat="45.51171" lon="6.69239">
        <ele>2057.3999023438</ele>
        <time>2011-07-30T07:15:10Z</time>
      </trkpt>
      <trkpt lat="45.51173" lon="6.69233">
        <ele>2057.3999023438</ele>
        <time>2011-07-30T07:15:14Z</time>
      </trkpt>
      <trkpt lat="45.51168" lon="6.69236">
        <ele>2058.3999023438</ele>
        <time>2011-07-30T07:15:20Z</time>
      </trkpt>
      <trkpt lat="45.51164" lon="6.6924">
        <ele>2059</ele>
        <time>2011-07-30T07:15:25Z</time>
      </trkpt>
      <trkpt lat="45.51157" lon="6.69246">
        <ele>2060</ele>
        <time>2011-07-30T07:15:31Z</time>
      </trkpt>
      <trkpt lat="45.51154" lon="6.69251">
        <ele>2060.8000488281</ele>
        <time>2011-07-30T07:15:35Z</time>
      </trkpt>
      <trkpt lat="45.51147" lon="6.69259">
        <ele>2062.6000976562</ele>
        <time>2011-07-30T07:15:43Z</time>
      </trkpt>
      <trkpt lat="45.51146" lon="6.69259">
        <ele>2062.8000488281</ele>
        <time>2011-07-30T07:15:44Z</time>
      </trkpt>
      <trkpt lat="45.51143" lon="6.69262">
        <ele>2063.3999023438</ele>
        <time>2011-07-30T07:15:47Z</time>
      </trkpt>
      <trkpt lat="45.51139" lon="6.69266">
        <ele>2064.3999023438</ele>
        <time>2011-07-30T07:15:51Z</time>
      </trkpt>
      <trkpt lat="45.51136" lon="6.69266">
        <ele>2064.8000488281</ele>
        <time>2011-07-30T07:15:53Z</time>
      </trkpt>
      <trkpt lat="45.51129" lon="6.6927">
        <ele>2065.3999023438</ele>
        <time>2011-07-30T07:15:59Z</time>
      </trkpt>
      <trkpt lat="45.51122" lon="6.69266">
        <ele>2066.6000976562</ele>
        <time>2011-07-30T07:16:06Z</time>
      </trkpt>
      <trkpt lat="45.51115" lon="6.69263">
        <ele>2067.1999511719</ele>
        <time>2011-07-30T07:16:10Z</time>
      </trkpt>
      <trkpt lat="45.51114" lon="6.69263">
        <ele>2067.1999511719</ele>
        <time>2011-07-30T07:16:11Z</time>
      </trkpt>
      <trkpt lat="45.51109" lon="6.69263">
        <ele>2067.6000976562</ele>
        <time>2011-07-30T07:16:15Z</time>
      </trkpt>
      <trkpt lat="45.51105" lon="6.69261">
        <ele>2067.8000488281</ele>
        <time>2011-07-30T07:16:17Z</time>
      </trkpt>
      <trkpt lat="45.51096" lon="6.69259">
        <ele>2068.8000488281</ele>
        <time>2011-07-30T07:16:22Z</time>
      </trkpt>
      <trkpt lat="45.51089" lon="6.69257">
        <ele>2069.1999511719</ele>
        <time>2011-07-30T07:16:25Z</time>
      </trkpt>
      <trkpt lat="45.51084" lon="6.69255">
        <ele>2069.3999023438</ele>
        <time>2011-07-30T07:16:27Z</time>
      </trkpt>
      <trkpt lat="45.51079" lon="6.69252">
        <ele>2069.6000976562</ele>
        <time>2011-07-30T07:16:30Z</time>
      </trkpt>
      <trkpt lat="45.5107" lon="6.69247">
        <ele>2070.1999511719</ele>
        <time>2011-07-30T07:16:35Z</time>
      </trkpt>
      <trkpt lat="45.51064" lon="6.69238">
        <ele>2071</ele>
        <time>2011-07-30T07:16:39Z</time>
      </trkpt>
      <trkpt lat="45.51056" lon="6.69227">
        <ele>2072.1999511719</ele>
        <time>2011-07-30T07:16:45Z</time>
      </trkpt>
      <trkpt lat="45.51056" lon="6.69225">
        <ele>2072.3999023438</ele>
        <time>2011-07-30T07:16:46Z</time>
      </trkpt>
      <trkpt lat="45.51062" lon="6.69223">
        <ele>2073</ele>
        <time>2011-07-30T07:16:49Z</time>
      </trkpt>
      <trkpt lat="45.5107" lon="6.6923">
        <ele>2074.3999023438</ele>
        <time>2011-07-30T07:16:54Z</time>
      </trkpt>
      <trkpt lat="45.51072" lon="6.69234">
        <ele>2074.8000488281</ele>
        <time>2011-07-30T07:16:56Z</time>
      </trkpt>
      <trkpt lat="45.51074" lon="6.69236">
        <ele>2075.1999511719</ele>
        <time>2011-07-30T07:16:58Z</time>
      </trkpt>
      <trkpt lat="45.51085" lon="6.69241">
        <ele>2076.8000488281</ele>
        <time>2011-07-30T07:17:04Z</time>
      </trkpt>
      <trkpt lat="45.51086" lon="6.69242">
        <ele>2077</ele>
        <time>2011-07-30T07:17:05Z</time>
      </trkpt>
      <trkpt lat="45.51094" lon="6.69242">
        <ele>2078.1999511719</ele>
        <time>2011-07-30T07:17:10Z</time>
      </trkpt>
      <trkpt lat="45.51095" lon="6.69242">
        <ele>2078.3999023438</ele>
        <time>2011-07-30T07:17:11Z</time>
      </trkpt>
      <trkpt lat="45.51102" lon="6.6924">
        <ele>2079.6000976562</ele>
        <time>2011-07-30T07:17:16Z</time>
      </trkpt>
      <trkpt lat="45.51107" lon="6.69236">
        <ele>2080.3999023438</ele>
        <time>2011-07-30T07:17:19Z</time>
      </trkpt>
      <trkpt lat="45.51114" lon="6.69231">
        <ele>2081.8000488281</ele>
        <time>2011-07-30T07:17:25Z</time>
      </trkpt>
      <trkpt lat="45.51115" lon="6.6923">
        <ele>2081.8000488281</ele>
        <time>2011-07-30T07:17:26Z</time>
      </trkpt>
      <trkpt lat="45.51122" lon="6.69222">
        <ele>2083.6000976562</ele>
        <time>2011-07-30T07:17:33Z</time>
      </trkpt>
      <trkpt lat="45.51129" lon="6.69211">
        <ele>2084.3999023438</ele>
        <time>2011-07-30T07:17:40Z</time>
      </trkpt>
      <trkpt lat="45.51131" lon="6.69206">
        <ele>2084.8000488281</ele>
        <time>2011-07-30T07:17:43Z</time>
      </trkpt>
      <trkpt lat="45.51138" lon="6.69196">
        <ele>2085</ele>
        <time>2011-07-30T07:17:50Z</time>
      </trkpt>
      <trkpt lat="45.51145" lon="6.69189">
        <ele>2085.8000488281</ele>
        <time>2011-07-30T07:17:57Z</time>
      </trkpt>
      <trkpt lat="45.51147" lon="6.69186">
        <ele>2086.1999511719</ele>
        <time>2011-07-30T07:18:00Z</time>
      </trkpt>
      <trkpt lat="45.51148" lon="6.69182">
        <ele>2086.6000976562</ele>
        <time>2011-07-30T07:18:04Z</time>
      </trkpt>
      <trkpt lat="45.51144" lon="6.6918">
        <ele>2087</ele>
        <time>2011-07-30T07:18:10Z</time>
      </trkpt>
      <trkpt lat="45.5114" lon="6.69185">
        <ele>2087.6000976562</ele>
        <time>2011-07-30T07:18:15Z</time>
      </trkpt>
      <trkpt lat="45.5113" lon="6.69191">
        <ele>2088.8000488281</ele>
        <time>2011-07-30T07:18:24Z</time>
      </trkpt>
      <trkpt lat="45.51123" lon="6.69196">
        <ele>2090</ele>
        <time>2011-07-30T07:18:31Z</time>
      </trkpt>
      <trkpt lat="45.51118" lon="6.69202">
        <ele>2090.6000976562</ele>
        <time>2011-07-30T07:18:36Z</time>
      </trkpt>
      <trkpt lat="45.51117" lon="6.69202">
        <ele>2090.6000976562</ele>
        <time>2011-07-30T07:18:37Z</time>
      </trkpt>
      <trkpt lat="45.51115" lon="6.69197">
        <ele>2091.1999511719</ele>
        <time>2011-07-30T07:18:41Z</time>
      </trkpt>
      <trkpt lat="45.51116" lon="6.69196">
        <ele>2091.3999023438</ele>
        <time>2011-07-30T07:18:42Z</time>
      </trkpt>
      <trkpt lat="45.51121" lon="6.69182">
        <ele>2092.6000976562</ele>
        <time>2011-07-30T07:18:50Z</time>
      </trkpt>
      <trkpt lat="45.51126" lon="6.69172">
        <ele>2093.8000488281</ele>
        <time>2011-07-30T07:18:57Z</time>
      </trkpt>
      <trkpt lat="45.51126" lon="6.6917">
        <ele>2094</ele>
        <time>2011-07-30T07:18:58Z</time>
      </trkpt>
      <trkpt lat="45.51124" lon="6.69162">
        <ele>2094.6000976562</ele>
        <time>2011-07-30T07:19:03Z</time>
      </trkpt>
      <trkpt lat="45.5112" lon="6.69158">
        <ele>2095</ele>
        <time>2011-07-30T07:19:07Z</time>
      </trkpt>
      <trkpt lat="45.51114" lon="6.69164">
        <ele>2096.3999023438</ele>
        <time>2011-07-30T07:19:13Z</time>
      </trkpt>
      <trkpt lat="45.51104" lon="6.6917">
        <ele>2097.8000488281</ele>
        <time>2011-07-30T07:19:21Z</time>
      </trkpt>
      <trkpt lat="45.51097" lon="6.69175">
        <ele>2098.8000488281</ele>
        <time>2011-07-30T07:19:27Z</time>
      </trkpt>
      <trkpt lat="45.51089" lon="6.69176">
        <ele>2099.8000488281</ele>
        <time>2011-07-30T07:19:33Z</time>
      </trkpt>
      <trkpt lat="45.51085" lon="6.69176">
        <ele>2100.6000976562</ele>
        <time>2011-07-30T07:19:37Z</time>
      </trkpt>
      <trkpt lat="45.51085" lon="6.6917">
        <ele>2101</ele>
        <time>2011-07-30T07:19:41Z</time>
      </trkpt>
      <trkpt lat="45.51091" lon="6.69157">
        <ele>2102.3999023438</ele>
        <time>2011-07-30T07:19:49Z</time>
      </trkpt>
      <trkpt lat="45.51096" lon="6.69147">
        <ele>2103.1999511719</ele>
        <time>2011-07-30T07:19:55Z</time>
      </trkpt>
      <trkpt lat="45.51097" lon="6.69137">
        <ele>2104.6000976562</ele>
        <time>2011-07-30T07:20:01Z</time>
      </trkpt>
      <trkpt lat="45.51098" lon="6.69119">
        <ele>2106.3999023438</ele>
        <time>2011-07-30T07:20:11Z</time>
      </trkpt>
      <trkpt lat="45.51099" lon="6.69118">
        <ele>2106.6000976562</ele>
        <time>2011-07-30T07:20:12Z</time>
      </trkpt>
      <trkpt lat="45.5111" lon="6.6911">
        <ele>2108.6000976562</ele>
        <time>2011-07-30T07:20:21Z</time>
      </trkpt>
      <trkpt lat="45.51111" lon="6.69109">
        <ele>2108.8000488281</ele>
        <time>2011-07-30T07:20:22Z</time>
      </trkpt>
      <trkpt lat="45.51117" lon="6.69107">
        <ele>2110</ele>
        <time>2011-07-30T07:20:27Z</time>
      </trkpt>
      <trkpt lat="45.5112" lon="6.69106">
        <ele>2110.6000976562</ele>
        <time>2011-07-30T07:20:30Z</time>
      </trkpt>
      <trkpt lat="45.51122" lon="6.69094">
        <ele>2111.3999023438</ele>
        <time>2011-07-30T07:20:35Z</time>
      </trkpt>
      <trkpt lat="45.51117" lon="6.69086">
        <ele>2112.3999023438</ele>
        <time>2011-07-30T07:20:39Z</time>
      </trkpt>
      <trkpt lat="45.51115" lon="6.69075">
        <ele>2113</ele>
        <time>2011-07-30T07:20:43Z</time>
      </trkpt>
      <trkpt lat="45.5112" lon="6.6906">
        <ele>2113.8000488281</ele>
        <time>2011-07-30T07:20:49Z</time>
      </trkpt>
      <trkpt lat="45.51128" lon="6.69062">
        <ele>2114.8000488281</ele>
        <time>2011-07-30T07:20:53Z</time>
      </trkpt>
      <trkpt lat="45.51139" lon="6.6907">
        <ele>2115.6000976562</ele>
        <time>2011-07-30T07:20:59Z</time>
      </trkpt>
      <trkpt lat="45.51155" lon="6.69066">
        <ele>2117.1999511719</ele>
        <time>2011-07-30T07:21:08Z</time>
      </trkpt>
      <trkpt lat="45.51166" lon="6.69054">
        <ele>2118</ele>
        <time>2011-07-30T07:21:14Z</time>
      </trkpt>
      <trkpt lat="45.51171" lon="6.69044">
        <ele>2119</ele>
        <time>2011-07-30T07:21:19Z</time>
      </trkpt>
      <trkpt lat="45.51171" lon="6.69043">
        <ele>2119.1999511719</ele>
        <time>2011-07-30T07:21:20Z</time>
      </trkpt>
      <trkpt lat="45.51168" lon="6.69041">
        <ele>2120.1999511719</ele>
        <time>2011-07-30T07:21:24Z</time>
      </trkpt>
      <trkpt lat="45.5116" lon="6.69044">
        <ele>2121.3999023438</ele>
        <time>2011-07-30T07:21:29Z</time>
      </trkpt>
      <trkpt lat="45.51158" lon="6.69045">
        <ele>2121.8000488281</ele>
        <time>2011-07-30T07:21:30Z</time>
      </trkpt>
      <trkpt lat="45.51155" lon="6.69045">
        <ele>2122.6000976562</ele>
        <time>2011-07-30T07:21:33Z</time>
      </trkpt>
      <trkpt lat="45.51149" lon="6.69034">
        <ele>2124.3999023438</ele>
        <time>2011-07-30T07:21:40Z</time>
      </trkpt>
      <trkpt lat="45.51145" lon="6.69017">
        <ele>2126.6000976562</ele>
        <time>2011-07-30T07:21:49Z</time>
      </trkpt>
      <trkpt lat="45.51141" lon="6.69005">
        <ele>2128.1999511719</ele>
        <time>2011-07-30T07:21:57Z</time>
      </trkpt>
      <trkpt lat="45.51136" lon="6.68998">
        <ele>2129.6000976562</ele>
        <time>2011-07-30T07:22:04Z</time>
      </trkpt>
      <trkpt lat="45.51132" lon="6.68995">
        <ele>2130.6000976562</ele>
        <time>2011-07-30T07:22:08Z</time>
      </trkpt>
      <trkpt lat="45.51123" lon="6.68985">
        <ele>2132</ele>
        <time>2011-07-30T07:22:14Z</time>
      </trkpt>
      <trkpt lat="45.5111" lon="6.6898">
        <ele>2133.6000976562</ele>
        <time>2011-07-30T07:22:20Z</time>
      </trkpt>
      <trkpt lat="45.51101" lon="6.68977">
        <ele>2134.1999511719</ele>
        <time>2011-07-30T07:22:24Z</time>
      </trkpt>
      <trkpt lat="45.51089" lon="6.68978">
        <ele>2135.3999023438</ele>
        <time>2011-07-30T07:22:29Z</time>
      </trkpt>
      <trkpt lat="45.51081" lon="6.68978">
        <ele>2136</ele>
        <time>2011-07-30T07:22:33Z</time>
      </trkpt>
      <trkpt lat="45.51075" lon="6.68977">
        <ele>2137.1999511719</ele>
        <time>2011-07-30T07:22:37Z</time>
      </trkpt>
      <trkpt lat="45.51072" lon="6.68984">
        <ele>2138.1999511719</ele>
        <time>2011-07-30T07:22:42Z</time>
      </trkpt>
      <trkpt lat="45.51067" lon="6.6899">
        <ele>2139.6000976562</ele>
        <time>2011-07-30T07:22:47Z</time>
      </trkpt>
      <trkpt lat="45.51064" lon="6.68993">
        <ele>2140</ele>
        <time>2011-07-30T07:22:50Z</time>
      </trkpt>
      <trkpt lat="45.51053" lon="6.69001">
        <ele>2140.8000488281</ele>
        <time>2011-07-30T07:22:57Z</time>
      </trkpt>
      <trkpt lat="45.51038" lon="6.69011">
        <ele>2141.1999511719</ele>
        <time>2011-07-30T07:23:05Z</time>
      </trkpt>
      <trkpt lat="45.51026" lon="6.69018">
        <ele>2141.3999023438</ele>
        <time>2011-07-30T07:23:11Z</time>
      </trkpt>
      <trkpt lat="45.51012" lon="6.69025">
        <ele>2141.3999023438</ele>
        <time>2011-07-30T07:23:17Z</time>
      </trkpt>
      <trkpt lat="45.50996" lon="6.69036">
        <ele>2141.6000976562</ele>
        <time>2011-07-30T07:23:24Z</time>
      </trkpt>
      <trkpt lat="45.50982" lon="6.69045">
        <ele>2141.3999023438</ele>
        <time>2011-07-30T07:23:30Z</time>
      </trkpt>
      <trkpt lat="45.50967" lon="6.69055">
        <ele>2140.3999023438</ele>
        <time>2011-07-30T07:23:36Z</time>
      </trkpt>
      <trkpt lat="45.50949" lon="6.69065">
        <ele>2140</ele>
        <time>2011-07-30T07:23:43Z</time>
      </trkpt>
      <trkpt lat="45.50935" lon="6.69069">
        <ele>2138.8000488281</ele>
        <time>2011-07-30T07:23:48Z</time>
      </trkpt>
      <trkpt lat="45.50921" lon="6.69067">
        <ele>2138.1999511719</ele>
        <time>2011-07-30T07:23:53Z</time>
      </trkpt>
      <trkpt lat="45.50906" lon="6.69066">
        <ele>2137.8000488281</ele>
        <time>2011-07-30T07:23:59Z</time>
      </trkpt>
      <trkpt lat="45.50893" lon="6.69065">
        <ele>2137</ele>
        <time>2011-07-30T07:24:04Z</time>
      </trkpt>
      <trkpt lat="45.50878" lon="6.69065">
        <ele>2136.1999511719</ele>
        <time>2011-07-30T07:24:10Z</time>
      </trkpt>
      <trkpt lat="45.50866" lon="6.69064">
        <ele>2135.8000488281</ele>
        <time>2011-07-30T07:24:15Z</time>
      </trkpt>
      <trkpt lat="45.50848" lon="6.69073">
        <ele>2135.6000976562</ele>
        <time>2011-07-30T07:24:22Z</time>
      </trkpt>
      <trkpt lat="45.5083" lon="6.69082">
        <ele>2135.3999023438</ele>
        <time>2011-07-30T07:24:29Z</time>
      </trkpt>
      <trkpt lat="45.5081" lon="6.69085">
        <ele>2135.3999023438</ele>
        <time>2011-07-30T07:24:36Z</time>
      </trkpt>
      <trkpt lat="45.50802" lon="6.69084">
        <ele>2135.3999023438</ele>
        <time>2011-07-30T07:24:41Z</time>
      </trkpt>
      <trkpt lat="45.50795" lon="6.69083">
        <ele>2135.3999023438</ele>
        <time>2011-07-30T07:24:45Z</time>
      </trkpt>
      <trkpt lat="45.50785" lon="6.69083">
        <ele>2135.3999023438</ele>
        <time>2011-07-30T07:24:51Z</time>
      </trkpt>
      <trkpt lat="45.50772" lon="6.69083">
        <ele>2135.3999023438</ele>
        <time>2011-07-30T07:25:00Z</time>
      </trkpt>
      <trkpt lat="45.50763" lon="6.69085">
        <ele>2135.3999023438</ele>
        <time>2011-07-30T07:25:06Z</time>
      </trkpt>
      <trkpt lat="45.50756" lon="6.69088">
        <ele>2134.8000488281</ele>
        <time>2011-07-30T07:25:11Z</time>
      </trkpt>
      <trkpt lat="45.50752" lon="6.6909">
        <ele>2134.3999023438</ele>
        <time>2011-07-30T07:25:14Z</time>
      </trkpt>
      <trkpt lat="45.50741" lon="6.69098">
        <ele>2133.8000488281</ele>
        <time>2011-07-30T07:25:22Z</time>
      </trkpt>
      <trkpt lat="45.50732" lon="6.69107">
        <ele>2133.6000976562</ele>
        <time>2011-07-30T07:25:29Z</time>
      </trkpt>
      <trkpt lat="45.50723" lon="6.69119">
        <ele>2132.1999511719</ele>
        <time>2011-07-30T07:25:37Z</time>
      </trkpt>
      <trkpt lat="45.50713" lon="6.69132">
        <ele>2131.6000976562</ele>
        <time>2011-07-30T07:25:45Z</time>
      </trkpt>
      <trkpt lat="45.50705" lon="6.69143">
        <ele>2130.8000488281</ele>
        <time>2011-07-30T07:25:52Z</time>
      </trkpt>
      <trkpt lat="45.50697" lon="6.69161">
        <ele>2129.8000488281</ele>
        <time>2011-07-30T07:26:02Z</time>
      </trkpt>
      <trkpt lat="45.50692" lon="6.69179">
        <ele>2129.3999023438</ele>
        <time>2011-07-30T07:26:11Z</time>
      </trkpt>
      <trkpt lat="45.50686" lon="6.69194">
        <ele>2129.1999511719</ele>
        <time>2011-07-30T07:26:19Z</time>
      </trkpt>
      <trkpt lat="45.50682" lon="6.69201">
        <ele>2129.1999511719</ele>
        <time>2011-07-30T07:26:24Z</time>
      </trkpt>
      <trkpt lat="45.50673" lon="6.69215">
        <ele>2129.1999511719</ele>
        <time>2011-07-30T07:26:33Z</time>
      </trkpt>
      <trkpt lat="45.50673" lon="6.69216">
        <ele>2129.1999511719</ele>
        <time>2011-07-30T07:26:34Z</time>
      </trkpt>
      <trkpt lat="45.50668" lon="6.69225">
        <ele>2129.1999511719</ele>
        <time>2011-07-30T07:26:39Z</time>
      </trkpt>
      <trkpt lat="45.50665" lon="6.69227">
        <ele>2129.1999511719</ele>
        <time>2011-07-30T07:26:41Z</time>
      </trkpt>
      <trkpt lat="45.50655" lon="6.69235">
        <ele>2129.1999511719</ele>
        <time>2011-07-30T07:26:47Z</time>
      </trkpt>
      <trkpt lat="45.50643" lon="6.69232">
        <ele>2129.1999511719</ele>
        <time>2011-07-30T07:26:52Z</time>
      </trkpt>
      <trkpt lat="45.50633" lon="6.69225">
        <ele>2129.3999023438</ele>
        <time>2011-07-30T07:26:57Z</time>
      </trkpt>
      <trkpt lat="45.50623" lon="6.69221">
        <ele>2130.1999511719</ele>
        <time>2011-07-30T07:27:02Z</time>
      </trkpt>
      <trkpt lat="45.50613" lon="6.69219">
        <ele>2130.6000976562</ele>
        <time>2011-07-30T07:27:07Z</time>
      </trkpt>
      <trkpt lat="45.50603" lon="6.69213">
        <ele>2130.8000488281</ele>
        <time>2011-07-30T07:27:12Z</time>
      </trkpt>
      <trkpt lat="45.50594" lon="6.6921">
        <ele>2131.8000488281</ele>
        <time>2011-07-30T07:27:16Z</time>
      </trkpt>
      <trkpt lat="45.50583" lon="6.69208">
        <ele>2132.3999023438</ele>
        <time>2011-07-30T07:27:21Z</time>
      </trkpt>
      <trkpt lat="45.50568" lon="6.69205">
        <ele>2132.8000488281</ele>
        <time>2011-07-30T07:27:27Z</time>
      </trkpt>
      <trkpt lat="45.50556" lon="6.69208">
        <ele>2133</ele>
        <time>2011-07-30T07:27:32Z</time>
      </trkpt>
      <trkpt lat="45.50543" lon="6.69214">
        <ele>2133.1999511719</ele>
        <time>2011-07-30T07:27:38Z</time>
      </trkpt>
      <trkpt lat="45.50532" lon="6.69219">
        <ele>2133.1999511719</ele>
        <time>2011-07-30T07:27:43Z</time>
      </trkpt>
      <trkpt lat="45.50523" lon="6.69221">
        <ele>2134</ele>
        <time>2011-07-30T07:27:47Z</time>
      </trkpt>
      <trkpt lat="45.5051" lon="6.69223">
        <ele>2134.6000976562</ele>
        <time>2011-07-30T07:27:53Z</time>
      </trkpt>
      <trkpt lat="45.50497" lon="6.69224">
        <ele>2135</ele>
        <time>2011-07-30T07:27:59Z</time>
      </trkpt>
      <trkpt lat="45.50484" lon="6.69227">
        <ele>2135.8000488281</ele>
        <time>2011-07-30T07:28:05Z</time>
      </trkpt>
      <trkpt lat="45.50475" lon="6.69233">
        <ele>2136.6000976562</ele>
        <time>2011-07-30T07:28:10Z</time>
      </trkpt>
      <trkpt lat="45.50463" lon="6.6924">
        <ele>2137.6000976562</ele>
        <time>2011-07-30T07:28:16Z</time>
      </trkpt>
      <trkpt lat="45.50453" lon="6.69244">
        <ele>2138.3999023438</ele>
        <time>2011-07-30T07:28:21Z</time>
      </trkpt>
      <trkpt lat="45.50442" lon="6.69247">
        <ele>2139</ele>
        <time>2011-07-30T07:28:26Z</time>
      </trkpt>
      <trkpt lat="45.5043" lon="6.69246">
        <ele>2140.1999511719</ele>
        <time>2011-07-30T07:28:31Z</time>
      </trkpt>
      <trkpt lat="45.5042" lon="6.69243">
        <ele>2140.8000488281</ele>
        <time>2011-07-30T07:28:36Z</time>
      </trkpt>
      <trkpt lat="45.50409" lon="6.69237">
        <ele>2141.1999511719</ele>
        <time>2011-07-30T07:28:42Z</time>
      </trkpt>
      <trkpt lat="45.50399" lon="6.69232">
        <ele>2142.1999511719</ele>
        <time>2011-07-30T07:28:47Z</time>
      </trkpt>
      <trkpt lat="45.50398" lon="6.69232">
        <ele>2142.3999023438</ele>
        <time>2011-07-30T07:28:48Z</time>
      </trkpt>
      <trkpt lat="45.50394" lon="6.69234">
        <ele>2142.8000488281</ele>
        <time>2011-07-30T07:28:52Z</time>
      </trkpt>
      <trkpt lat="45.50384" lon="6.69237">
        <ele>2143.8000488281</ele>
        <time>2011-07-30T07:29:00Z</time>
      </trkpt>
      <trkpt lat="45.50375" lon="6.69241">
        <ele>2144.8000488281</ele>
        <time>2011-07-30T07:29:06Z</time>
      </trkpt>
      <trkpt lat="45.5037" lon="6.69241">
        <ele>2145</ele>
        <time>2011-07-30T07:29:10Z</time>
      </trkpt>
      <trkpt lat="45.50358" lon="6.69242">
        <ele>2146.6000976562</ele>
        <time>2011-07-30T07:29:18Z</time>
      </trkpt>
      <trkpt lat="45.50349" lon="6.69246">
        <ele>2148.1999511719</ele>
        <time>2011-07-30T07:29:26Z</time>
      </trkpt>
      <trkpt lat="45.50347" lon="6.69248">
        <ele>2148.6000976562</ele>
        <time>2011-07-30T07:29:28Z</time>
      </trkpt>
      <trkpt lat="45.50344" lon="6.69256">
        <ele>2149.1999511719</ele>
        <time>2011-07-30T07:29:34Z</time>
      </trkpt>
      <trkpt lat="45.50346" lon="6.6927">
        <ele>2150.1999511719</ele>
        <time>2011-07-30T07:29:39Z</time>
      </trkpt>
      <trkpt lat="45.50352" lon="6.69288">
        <ele>2151</ele>
        <time>2011-07-30T07:29:45Z</time>
      </trkpt>
      <trkpt lat="45.50353" lon="6.69291">
        <ele>2151.1999511719</ele>
        <time>2011-07-30T07:29:46Z</time>
      </trkpt>
      <trkpt lat="45.50358" lon="6.69318">
        <ele>2151.6000976562</ele>
        <time>2011-07-30T07:29:53Z</time>
      </trkpt>
      <trkpt lat="45.50357" lon="6.69337">
        <ele>2151.8000488281</ele>
        <time>2011-07-30T07:29:58Z</time>
      </trkpt>
      <trkpt lat="45.50354" lon="6.69357">
        <ele>2151.8000488281</ele>
        <time>2011-07-30T07:30:03Z</time>
      </trkpt>
      <trkpt lat="45.50349" lon="6.69374">
        <ele>2152</ele>
        <time>2011-07-30T07:30:08Z</time>
      </trkpt>
      <trkpt lat="45.5034" lon="6.69393">
        <ele>2152</ele>
        <time>2011-07-30T07:30:14Z</time>
      </trkpt>
      <trkpt lat="45.50326" lon="6.69401">
        <ele>2152</ele>
        <time>2011-07-30T07:30:19Z</time>
      </trkpt>
      <trkpt lat="45.50315" lon="6.69405">
        <ele>2152</ele>
        <time>2011-07-30T07:30:23Z</time>
      </trkpt>
      <trkpt lat="45.50303" lon="6.69417">
        <ele>2152</ele>
        <time>2011-07-30T07:30:28Z</time>
      </trkpt>
      <trkpt lat="45.50296" lon="6.69438">
        <ele>2152.3999023438</ele>
        <time>2011-07-30T07:30:33Z</time>
      </trkpt>
      <trkpt lat="45.50287" lon="6.69455">
        <ele>2153</ele>
        <time>2011-07-30T07:30:38Z</time>
      </trkpt>
      <trkpt lat="45.50276" lon="6.69458">
        <ele>2153.3999023438</ele>
        <time>2011-07-30T07:30:42Z</time>
      </trkpt>
      <trkpt lat="45.50262" lon="6.69461">
        <ele>2153.6000976562</ele>
        <time>2011-07-30T07:30:47Z</time>
      </trkpt>
      <trkpt lat="45.50251" lon="6.6947">
        <ele>2153.8000488281</ele>
        <time>2011-07-30T07:30:52Z</time>
      </trkpt>
      <trkpt lat="45.50237" lon="6.69477">
        <ele>2154</ele>
        <time>2011-07-30T07:30:58Z</time>
      </trkpt>
      <trkpt lat="45.50223" lon="6.69479">
        <ele>2154</ele>
        <time>2011-07-30T07:31:04Z</time>
      </trkpt>
      <trkpt lat="45.50212" lon="6.69484">
        <ele>2154.3999023438</ele>
        <time>2011-07-30T07:31:09Z</time>
      </trkpt>
      <trkpt lat="45.50201" lon="6.69491">
        <ele>2155</ele>
        <time>2011-07-30T07:31:14Z</time>
      </trkpt>
      <trkpt lat="45.5019" lon="6.69506">
        <ele>2155.6000976562</ele>
        <time>2011-07-30T07:31:20Z</time>
      </trkpt>
      <trkpt lat="45.50182" lon="6.69521">
        <ele>2155.8000488281</ele>
        <time>2011-07-30T07:31:25Z</time>
      </trkpt>
      <trkpt lat="45.50172" lon="6.69531">
        <ele>2155.8000488281</ele>
        <time>2011-07-30T07:31:30Z</time>
      </trkpt>
      <trkpt lat="45.50157" lon="6.69539">
        <ele>2156</ele>
        <time>2011-07-30T07:31:36Z</time>
      </trkpt>
      <trkpt lat="45.50146" lon="6.69552">
        <ele>2156</ele>
        <time>2011-07-30T07:31:42Z</time>
      </trkpt>
      <trkpt lat="45.50137" lon="6.69569">
        <ele>2156</ele>
        <time>2011-07-30T07:31:48Z</time>
      </trkpt>
      <trkpt lat="45.50128" lon="6.69588">
        <ele>2156.3999023438</ele>
        <time>2011-07-30T07:31:54Z</time>
      </trkpt>
      <trkpt lat="45.50122" lon="6.69602">
        <ele>2157</ele>
        <time>2011-07-30T07:31:59Z</time>
      </trkpt>
      <trkpt lat="45.50114" lon="6.6962">
        <ele>2157.6000976562</ele>
        <time>2011-07-30T07:32:05Z</time>
      </trkpt>
      <trkpt lat="45.50106" lon="6.69638">
        <ele>2157.8000488281</ele>
        <time>2011-07-30T07:32:11Z</time>
      </trkpt>
      <trkpt lat="45.50105" lon="6.69655">
        <ele>2158</ele>
        <time>2011-07-30T07:32:16Z</time>
      </trkpt>
      <trkpt lat="45.50105" lon="6.69658">
        <ele>2158</ele>
        <time>2011-07-30T07:32:17Z</time>
      </trkpt>
      <trkpt lat="45.50103" lon="6.69676">
        <ele>2158</ele>
        <time>2011-07-30T07:32:22Z</time>
      </trkpt>
      <trkpt lat="45.50102" lon="6.69696">
        <ele>2158</ele>
        <time>2011-07-30T07:32:28Z</time>
      </trkpt>
      <trkpt lat="45.50102" lon="6.69716">
        <ele>2158</ele>
        <time>2011-07-30T07:32:34Z</time>
      </trkpt>
      <trkpt lat="45.50105" lon="6.69732">
        <ele>2158</ele>
        <time>2011-07-30T07:32:39Z</time>
      </trkpt>
      <trkpt lat="45.50104" lon="6.69751">
        <ele>2158</ele>
        <time>2011-07-30T07:32:45Z</time>
      </trkpt>
      <trkpt lat="45.501" lon="6.69769">
        <ele>2158.3999023438</ele>
        <time>2011-07-30T07:32:51Z</time>
      </trkpt>
      <trkpt lat="45.50094" lon="6.69788">
        <ele>2159.3999023438</ele>
        <time>2011-07-30T07:32:58Z</time>
      </trkpt>
      <trkpt lat="45.5009" lon="6.69805">
        <ele>2159.8000488281</ele>
        <time>2011-07-30T07:33:03Z</time>
      </trkpt>
      <trkpt lat="45.50087" lon="6.69824">
        <ele>2161</ele>
        <time>2011-07-30T07:33:09Z</time>
      </trkpt>
      <trkpt lat="45.50082" lon="6.69843">
        <ele>2161.6000976562</ele>
        <time>2011-07-30T07:33:15Z</time>
      </trkpt>
      <trkpt lat="45.50077" lon="6.69863">
        <ele>2163</ele>
        <time>2011-07-30T07:33:22Z</time>
      </trkpt>
      <trkpt lat="45.50074" lon="6.69881">
        <ele>2163.6000976562</ele>
        <time>2011-07-30T07:33:28Z</time>
      </trkpt>
      <trkpt lat="45.50075" lon="6.699">
        <ele>2164</ele>
        <time>2011-07-30T07:33:34Z</time>
      </trkpt>
      <trkpt lat="45.50071" lon="6.69914">
        <ele>2165</ele>
        <time>2011-07-30T07:33:39Z</time>
      </trkpt>
      <trkpt lat="45.50063" lon="6.69927">
        <ele>2165.6000976562</ele>
        <time>2011-07-30T07:33:45Z</time>
      </trkpt>
      <trkpt lat="45.50055" lon="6.69933">
        <ele>2165.8000488281</ele>
        <time>2011-07-30T07:33:50Z</time>
      </trkpt>
      <trkpt lat="45.50047" lon="6.6994">
        <ele>2167.1999511719</ele>
        <time>2011-07-30T07:33:57Z</time>
      </trkpt>
      <trkpt lat="45.50039" lon="6.69947">
        <ele>2167.8000488281</ele>
        <time>2011-07-30T07:34:04Z</time>
      </trkpt>
      <trkpt lat="45.50032" lon="6.69954">
        <ele>2169</ele>
        <time>2011-07-30T07:34:11Z</time>
      </trkpt>
      <trkpt lat="45.5003" lon="6.69958">
        <ele>2169.3999023438</ele>
        <time>2011-07-30T07:34:14Z</time>
      </trkpt>
      <trkpt lat="45.50021" lon="6.69965">
        <ele>2171</ele>
        <time>2011-07-30T07:34:23Z</time>
      </trkpt>
      <trkpt lat="45.50016" lon="6.69972">
        <ele>2172.1999511719</ele>
        <time>2011-07-30T07:34:30Z</time>
      </trkpt>
      <trkpt lat="45.50009" lon="6.69979">
        <ele>2173.6000976562</ele>
        <time>2011-07-30T07:34:38Z</time>
      </trkpt>
      <trkpt lat="45.49999" lon="6.69992">
        <ele>2175.3999023438</ele>
        <time>2011-07-30T07:34:47Z</time>
      </trkpt>
      <trkpt lat="45.49991" lon="6.70001">
        <ele>2176</ele>
        <time>2011-07-30T07:34:55Z</time>
      </trkpt>
      <trkpt lat="45.49988" lon="6.70007">
        <ele>2177.1999511719</ele>
        <time>2011-07-30T07:35:00Z</time>
      </trkpt>
      <trkpt lat="45.49982" lon="6.70017">
        <ele>2177.8000488281</ele>
        <time>2011-07-30T07:35:06Z</time>
      </trkpt>
      <trkpt lat="45.49977" lon="6.70025">
        <ele>2179</ele>
        <time>2011-07-30T07:35:11Z</time>
      </trkpt>
      <trkpt lat="45.49974" lon="6.7003">
        <ele>2179.6000976562</ele>
        <time>2011-07-30T07:35:15Z</time>
      </trkpt>
      <trkpt lat="45.49967" lon="6.70039">
        <ele>2181</ele>
        <time>2011-07-30T07:35:21Z</time>
      </trkpt>
      <trkpt lat="45.49965" lon="6.70045">
        <ele>2181.6000976562</ele>
        <time>2011-07-30T07:35:25Z</time>
      </trkpt>
      <trkpt lat="45.49958" lon="6.70053">
        <ele>2183.3999023438</ele>
        <time>2011-07-30T07:35:32Z</time>
      </trkpt>
      <trkpt lat="45.49949" lon="6.70059">
        <ele>2184.8000488281</ele>
        <time>2011-07-30T07:35:40Z</time>
      </trkpt>
      <trkpt lat="45.49942" lon="6.70065">
        <ele>2186</ele>
        <time>2011-07-30T07:35:46Z</time>
      </trkpt>
      <trkpt lat="45.49933" lon="6.70074">
        <ele>2187</ele>
        <time>2011-07-30T07:35:54Z</time>
      </trkpt>
      <trkpt lat="45.49923" lon="6.70086">
        <ele>2188.6000976562</ele>
        <time>2011-07-30T07:36:05Z</time>
      </trkpt>
      <trkpt lat="45.49915" lon="6.70097">
        <ele>2190</ele>
        <time>2011-07-30T07:36:13Z</time>
      </trkpt>
      <trkpt lat="45.49909" lon="6.70109">
        <ele>2190.8000488281</ele>
        <time>2011-07-30T07:36:21Z</time>
      </trkpt>
      <trkpt lat="45.49904" lon="6.70122">
        <ele>2192.1999511719</ele>
        <time>2011-07-30T07:36:28Z</time>
      </trkpt>
      <trkpt lat="45.49897" lon="6.70138">
        <ele>2194</ele>
        <time>2011-07-30T07:36:37Z</time>
      </trkpt>
      <trkpt lat="45.49892" lon="6.7015">
        <ele>2195.3999023438</ele>
        <time>2011-07-30T07:36:44Z</time>
      </trkpt>
      <trkpt lat="45.49887" lon="6.70164">
        <ele>2196.8000488281</ele>
        <time>2011-07-30T07:36:52Z</time>
      </trkpt>
      <trkpt lat="45.49882" lon="6.70176">
        <ele>2197.8000488281</ele>
        <time>2011-07-30T07:36:59Z</time>
      </trkpt>
      <trkpt lat="45.49881" lon="6.70178">
        <ele>2198</ele>
        <time>2011-07-30T07:37:00Z</time>
      </trkpt>
      <trkpt lat="45.49877" lon="6.70188">
        <ele>2198.8000488281</ele>
        <time>2011-07-30T07:37:06Z</time>
      </trkpt>
      <trkpt lat="45.49878" lon="6.7019">
        <ele>2199</ele>
        <time>2011-07-30T07:37:07Z</time>
      </trkpt>
      <trkpt lat="45.49883" lon="6.70197">
        <ele>2200.1999511719</ele>
        <time>2011-07-30T07:37:13Z</time>
      </trkpt>
      <trkpt lat="45.49884" lon="6.70199">
        <ele>2200.6000976562</ele>
        <time>2011-07-30T07:37:15Z</time>
      </trkpt>
      <trkpt lat="45.49887" lon="6.70212">
        <ele>2202.3999023438</ele>
        <time>2011-07-30T07:37:22Z</time>
      </trkpt>
      <trkpt lat="45.49887" lon="6.70214">
        <ele>2202.6000976562</ele>
        <time>2011-07-30T07:37:23Z</time>
      </trkpt>
      <trkpt lat="45.49884" lon="6.70226">
        <ele>2204.6000976562</ele>
        <time>2011-07-30T07:37:31Z</time>
      </trkpt>
      <trkpt lat="45.49884" lon="6.70229">
        <ele>2204.8000488281</ele>
        <time>2011-07-30T07:37:33Z</time>
      </trkpt>
      <trkpt lat="45.49881" lon="6.70237">
        <ele>2205.6000976562</ele>
        <time>2011-07-30T07:37:40Z</time>
      </trkpt>
      <trkpt lat="45.49881" lon="6.70238">
        <ele>2205.8000488281</ele>
        <time>2011-07-30T07:37:41Z</time>
      </trkpt>
      <trkpt lat="45.4988" lon="6.7024">
        <ele>2206.3999023438</ele>
        <time>2011-07-30T07:37:43Z</time>
      </trkpt>
      <trkpt lat="45.49878" lon="6.7025">
        <ele>2207.3999023438</ele>
        <time>2011-07-30T07:37:50Z</time>
      </trkpt>
      <trkpt lat="45.49875" lon="6.70258">
        <ele>2208</ele>
        <time>2011-07-30T07:37:57Z</time>
      </trkpt>
      <trkpt lat="45.49873" lon="6.70265">
        <ele>2209.1999511719</ele>
        <time>2011-07-30T07:38:03Z</time>
      </trkpt>
      <trkpt lat="45.4987" lon="6.70274">
        <ele>2209.8000488281</ele>
        <time>2011-07-30T07:38:10Z</time>
      </trkpt>
      <trkpt lat="45.49869" lon="6.70278">
        <ele>2210.6000976562</ele>
        <time>2011-07-30T07:38:13Z</time>
      </trkpt>
      <trkpt lat="45.49867" lon="6.70289">
        <ele>2211.6000976562</ele>
        <time>2011-07-30T07:38:21Z</time>
      </trkpt>
      <trkpt lat="45.49869" lon="6.70299">
        <ele>2213</ele>
        <time>2011-07-30T07:38:28Z</time>
      </trkpt>
      <trkpt lat="45.49871" lon="6.70307">
        <ele>2215</ele>
        <time>2011-07-30T07:38:36Z</time>
      </trkpt>
      <trkpt lat="45.4987" lon="6.70316">
        <ele>2217</ele>
        <time>2011-07-30T07:38:44Z</time>
      </trkpt>
      <trkpt lat="45.49865" lon="6.70327">
        <ele>2219.1999511719</ele>
        <time>2011-07-30T07:38:51Z</time>
      </trkpt>
      <trkpt lat="45.49862" lon="6.70334">
        <ele>2220.8000488281</ele>
        <time>2011-07-30T07:38:57Z</time>
      </trkpt>
      <trkpt lat="45.4986" lon="6.70338">
        <ele>2221.6000976562</ele>
        <time>2011-07-30T07:39:01Z</time>
      </trkpt>
      <trkpt lat="45.49858" lon="6.70346">
        <ele>2223.1999511719</ele>
        <time>2011-07-30T07:39:08Z</time>
      </trkpt>
      <trkpt lat="45.49858" lon="6.70347">
        <ele>2223.3999023438</ele>
        <time>2011-07-30T07:39:09Z</time>
      </trkpt>
      <trkpt lat="45.49858" lon="6.7035">
        <ele>2223.8000488281</ele>
        <time>2011-07-30T07:39:11Z</time>
      </trkpt>
      <trkpt lat="45.49858" lon="6.70355">
        <ele>2224.8000488281</ele>
        <time>2011-07-30T07:39:15Z</time>
      </trkpt>
      <trkpt lat="45.49859" lon="6.70363">
        <ele>2226</ele>
        <time>2011-07-30T07:39:20Z</time>
      </trkpt>
      <trkpt lat="45.49854" lon="6.70385">
        <ele>2227.8000488281</ele>
        <time>2011-07-30T07:39:27Z</time>
      </trkpt>
      <trkpt lat="45.49847" lon="6.70402">
        <ele>2229.1999511719</ele>
        <time>2011-07-30T07:39:33Z</time>
      </trkpt>
      <trkpt lat="45.49839" lon="6.70414">
        <ele>2230.6000976562</ele>
        <time>2011-07-30T07:39:39Z</time>
      </trkpt>
      <trkpt lat="45.49829" lon="6.70429">
        <ele>2232.6000976562</ele>
        <time>2011-07-30T07:39:46Z</time>
      </trkpt>
      <trkpt lat="45.4982" lon="6.70441">
        <ele>2234.1999511719</ele>
        <time>2011-07-30T07:39:52Z</time>
      </trkpt>
      <trkpt lat="45.49814" lon="6.70449">
        <ele>2235.6000976562</ele>
        <time>2011-07-30T07:39:57Z</time>
      </trkpt>
      <trkpt lat="45.49805" lon="6.70459">
        <ele>2237.8000488281</ele>
        <time>2011-07-30T07:40:04Z</time>
      </trkpt>
      <trkpt lat="45.49793" lon="6.70471">
        <ele>2240.1999511719</ele>
        <time>2011-07-30T07:40:12Z</time>
      </trkpt>
      <trkpt lat="45.49783" lon="6.70476">
        <ele>2242.1999511719</ele>
        <time>2011-07-30T07:40:18Z</time>
      </trkpt>
      <trkpt lat="45.49776" lon="6.70478">
        <ele>2243.1999511719</ele>
        <time>2011-07-30T07:40:21Z</time>
      </trkpt>
      <trkpt lat="45.49767" lon="6.70478">
        <ele>2244.6000976562</ele>
        <time>2011-07-30T07:40:26Z</time>
      </trkpt>
      <trkpt lat="45.49755" lon="6.70482">
        <ele>2246.1999511719</ele>
        <time>2011-07-30T07:40:32Z</time>
      </trkpt>
      <trkpt lat="45.49744" lon="6.70487">
        <ele>2247.3999023438</ele>
        <time>2011-07-30T07:40:38Z</time>
      </trkpt>
      <trkpt lat="45.49734" lon="6.70495">
        <ele>2248</ele>
        <time>2011-07-30T07:40:43Z</time>
      </trkpt>
      <trkpt lat="45.49722" lon="6.70505">
        <ele>2249.3999023438</ele>
        <time>2011-07-30T07:40:50Z</time>
      </trkpt>
      <trkpt lat="45.49714" lon="6.70512">
        <ele>2250</ele>
        <time>2011-07-30T07:40:55Z</time>
      </trkpt>
      <trkpt lat="45.49707" lon="6.70518">
        <ele>2251.3999023438</ele>
        <time>2011-07-30T07:41:01Z</time>
      </trkpt>
      <trkpt lat="45.49689" lon="6.70535">
        <ele>2254</ele>
        <time>2011-07-30T07:41:16Z</time>
      </trkpt>
      <trkpt lat="45.4968" lon="6.7054">
        <ele>2254.6000976562</ele>
        <time>2011-07-30T07:41:23Z</time>
      </trkpt>
      <trkpt lat="45.49669" lon="6.70546">
        <ele>2255.1999511719</ele>
        <time>2011-07-30T07:41:29Z</time>
      </trkpt>
      <trkpt lat="45.49659" lon="6.70549">
        <ele>2256</ele>
        <time>2011-07-30T07:41:35Z</time>
      </trkpt>
      <trkpt lat="45.49649" lon="6.70553">
        <ele>2257.1999511719</ele>
        <time>2011-07-30T07:41:41Z</time>
      </trkpt>
      <trkpt lat="45.49638" lon="6.70556">
        <ele>2258.1999511719</ele>
        <time>2011-07-30T07:41:47Z</time>
      </trkpt>
      <trkpt lat="45.4963" lon="6.70559">
        <ele>2258.6000976562</ele>
        <time>2011-07-30T07:41:51Z</time>
      </trkpt>
      <trkpt lat="45.49623" lon="6.70559">
        <ele>2259.3999023438</ele>
        <time>2011-07-30T07:41:56Z</time>
      </trkpt>
      <trkpt lat="45.49614" lon="6.7056">
        <ele>2260</ele>
        <time>2011-07-30T07:41:59Z</time>
      </trkpt>
      <trkpt lat="45.49605" lon="6.70561">
        <ele>2260.6000976562</ele>
        <time>2011-07-30T07:42:04Z</time>
      </trkpt>
      <trkpt lat="45.49597" lon="6.7056">
        <ele>2260.8000488281</ele>
        <time>2011-07-30T07:42:08Z</time>
      </trkpt>
      <trkpt lat="45.49584" lon="6.70565">
        <ele>2262.1999511719</ele>
        <time>2011-07-30T07:42:15Z</time>
      </trkpt>
      <trkpt lat="45.49576" lon="6.70577">
        <ele>2262.6000976562</ele>
        <time>2011-07-30T07:42:20Z</time>
      </trkpt>
      <trkpt lat="45.49566" lon="6.70598">
        <ele>2264</ele>
        <time>2011-07-30T07:42:28Z</time>
      </trkpt>
      <trkpt lat="45.49554" lon="6.70617">
        <ele>2264.8000488281</ele>
        <time>2011-07-30T07:42:37Z</time>
      </trkpt>
      <trkpt lat="45.49546" lon="6.70624">
        <ele>2265.3999023438</ele>
        <time>2011-07-30T07:42:42Z</time>
      </trkpt>
      <trkpt lat="45.49537" lon="6.70631">
        <ele>2266.6000976562</ele>
        <time>2011-07-30T07:42:48Z</time>
      </trkpt>
      <trkpt lat="45.49528" lon="6.70637">
        <ele>2267</ele>
        <time>2011-07-30T07:42:56Z</time>
      </trkpt>
      <trkpt lat="45.4952" lon="6.70644">
        <ele>2267.3999023438</ele>
        <time>2011-07-30T07:43:03Z</time>
      </trkpt>
      <trkpt lat="45.49511" lon="6.70651">
        <ele>2267.3999023438</ele>
        <time>2011-07-30T07:43:09Z</time>
      </trkpt>
      <trkpt lat="45.49502" lon="6.70659">
        <ele>2268.1999511719</ele>
        <time>2011-07-30T07:43:18Z</time>
      </trkpt>
      <trkpt lat="45.49501" lon="6.70659">
        <ele>2268.3999023438</ele>
        <time>2011-07-30T07:43:18Z</time>
      </trkpt>
      <trkpt lat="45.49495" lon="6.70665">
        <ele>2269</ele>
        <time>2011-07-30T07:43:25Z</time>
      </trkpt>
      <trkpt lat="45.49486" lon="6.70673">
        <ele>2269.3999023438</ele>
        <time>2011-07-30T07:43:32Z</time>
      </trkpt>
      <trkpt lat="45.49478" lon="6.7068">
        <ele>2269.3999023438</ele>
        <time>2011-07-30T07:43:40Z</time>
      </trkpt>
      <trkpt lat="45.49472" lon="6.70685">
        <ele>2269.6000976562</ele>
        <time>2011-07-30T07:43:45Z</time>
      </trkpt>
      <trkpt lat="45.49466" lon="6.70692">
        <ele>2270.1999511719</ele>
        <time>2011-07-30T07:43:52Z</time>
      </trkpt>
      <trkpt lat="45.4946" lon="6.70697">
        <ele>2271</ele>
        <time>2011-07-30T07:43:58Z</time>
      </trkpt>
      <trkpt lat="45.49453" lon="6.70703">
        <ele>2271.8000488281</ele>
        <time>2011-07-30T07:44:07Z</time>
      </trkpt>
      <trkpt lat="45.49447" lon="6.70707">
        <ele>2272.8000488281</ele>
        <time>2011-07-30T07:44:13Z</time>
      </trkpt>
      <trkpt lat="45.49442" lon="6.7071">
        <ele>2273.1999511719</ele>
        <time>2011-07-30T07:44:20Z</time>
      </trkpt>
      <trkpt lat="45.4944" lon="6.70712">
        <ele>2274.1999511719</ele>
        <time>2011-07-30T07:44:23Z</time>
      </trkpt>
      <trkpt lat="45.49435" lon="6.7072">
        <ele>2275</ele>
        <time>2011-07-30T07:44:30Z</time>
      </trkpt>
      <trkpt lat="45.49428" lon="6.70726">
        <ele>2276.3999023438</ele>
        <time>2011-07-30T07:44:38Z</time>
      </trkpt>
      <trkpt lat="45.49426" lon="6.70727">
        <ele>2276.6000976562</ele>
        <time>2011-07-30T07:44:40Z</time>
      </trkpt>
      <trkpt lat="45.49419" lon="6.70729">
        <ele>2278</ele>
        <time>2011-07-30T07:44:46Z</time>
      </trkpt>
      <trkpt lat="45.49418" lon="6.7073">
        <ele>2278.1999511719</ele>
        <time>2011-07-30T07:44:48Z</time>
      </trkpt>
      <trkpt lat="45.49415" lon="6.70732">
        <ele>2278.8000488281</ele>
        <time>2011-07-30T07:44:51Z</time>
      </trkpt>
      <trkpt lat="45.49406" lon="6.70734">
        <ele>2280.8000488281</ele>
        <time>2011-07-30T07:45:01Z</time>
      </trkpt>
      <trkpt lat="45.49405" lon="6.70735">
        <ele>2281</ele>
        <time>2011-07-30T07:45:02Z</time>
      </trkpt>
      <trkpt lat="45.49397" lon="6.70734">
        <ele>2282.6000976562</ele>
        <time>2011-07-30T07:45:09Z</time>
      </trkpt>
      <trkpt lat="45.4939" lon="6.70736">
        <ele>2283.3999023438</ele>
        <time>2011-07-30T07:45:16Z</time>
      </trkpt>
      <trkpt lat="45.49384" lon="6.70736">
        <ele>2284.8000488281</ele>
        <time>2011-07-30T07:45:23Z</time>
      </trkpt>
      <trkpt lat="45.49384" lon="6.70736">
        <ele>2285</ele>
        <time>2011-07-30T07:45:25Z</time>
      </trkpt>
      <trkpt lat="45.49377" lon="6.70737">
        <ele>2285.8000488281</ele>
        <time>2011-07-30T07:45:31Z</time>
      </trkpt>
      <trkpt lat="45.4937" lon="6.70737">
        <ele>2287.3999023438</ele>
        <time>2011-07-30T07:45:38Z</time>
      </trkpt>
      <trkpt lat="45.49363" lon="6.70738">
        <ele>2288.8000488281</ele>
        <time>2011-07-30T07:45:46Z</time>
      </trkpt>
      <trkpt lat="45.49357" lon="6.70739">
        <ele>2290</ele>
        <time>2011-07-30T07:45:52Z</time>
      </trkpt>
      <trkpt lat="45.49355" lon="6.70739">
        <ele>2290.6000976562</ele>
        <time>2011-07-30T07:45:55Z</time>
      </trkpt>
      <trkpt lat="45.49347" lon="6.70741">
        <ele>2291.8000488281</ele>
        <time>2011-07-30T07:46:03Z</time>
      </trkpt>
      <trkpt lat="45.49337" lon="6.70742">
        <ele>2293.3999023438</ele>
        <time>2011-07-30T07:46:10Z</time>
      </trkpt>
      <trkpt lat="45.49329" lon="6.70743">
        <ele>2295.1999511719</ele>
        <time>2011-07-30T07:46:18Z</time>
      </trkpt>
      <trkpt lat="45.49324" lon="6.70743">
        <ele>2295.6000976562</ele>
        <time>2011-07-30T07:46:22Z</time>
      </trkpt>
      <trkpt lat="45.49318" lon="6.70744">
        <ele>2297</ele>
        <time>2011-07-30T07:46:30Z</time>
      </trkpt>
      <trkpt lat="45.49316" lon="6.70745">
        <ele>2297.1999511719</ele>
        <time>2011-07-30T07:46:31Z</time>
      </trkpt>
      <trkpt lat="45.4931" lon="6.70746">
        <ele>2298.3999023438</ele>
        <time>2011-07-30T07:46:38Z</time>
      </trkpt>
      <trkpt lat="45.49303" lon="6.70746">
        <ele>2299.6000976562</ele>
        <time>2011-07-30T07:46:45Z</time>
      </trkpt>
      <trkpt lat="45.49295" lon="6.70748">
        <ele>2301</ele>
        <time>2011-07-30T07:46:52Z</time>
      </trkpt>
      <trkpt lat="45.4929" lon="6.70749">
        <ele>2301.8000488281</ele>
        <time>2011-07-30T07:46:57Z</time>
      </trkpt>
      <trkpt lat="45.49281" lon="6.7075">
        <ele>2302.8000488281</ele>
        <time>2011-07-30T07:47:06Z</time>
      </trkpt>
      <trkpt lat="45.49271" lon="6.70751">
        <ele>2304.1999511719</ele>
        <time>2011-07-30T07:47:15Z</time>
      </trkpt>
      <trkpt lat="45.49263" lon="6.70755">
        <ele>2304.8000488281</ele>
        <time>2011-07-30T07:47:21Z</time>
      </trkpt>
      <trkpt lat="45.4926" lon="6.70757">
        <ele>2305.3999023438</ele>
        <time>2011-07-30T07:47:23Z</time>
      </trkpt>
      <trkpt lat="45.49255" lon="6.70762">
        <ele>2306.1999511719</ele>
        <time>2011-07-30T07:47:30Z</time>
      </trkpt>
      <trkpt lat="45.49249" lon="6.70766">
        <ele>2307.8000488281</ele>
        <time>2011-07-30T07:47:38Z</time>
      </trkpt>
      <trkpt lat="45.49245" lon="6.7077">
        <ele>2309.1999511719</ele>
        <time>2011-07-30T07:47:45Z</time>
      </trkpt>
      <trkpt lat="45.49239" lon="6.70778">
        <ele>2311.6000976562</ele>
        <time>2011-07-30T07:47:56Z</time>
      </trkpt>
      <trkpt lat="45.49235" lon="6.70783">
        <ele>2313.3999023438</ele>
        <time>2011-07-30T07:48:03Z</time>
      </trkpt>
      <trkpt lat="45.49232" lon="6.70787">
        <ele>2314.6000976562</ele>
        <time>2011-07-30T07:48:08Z</time>
      </trkpt>
      <trkpt lat="45.49228" lon="6.70791">
        <ele>2315.8000488281</ele>
        <time>2011-07-30T07:48:13Z</time>
      </trkpt>
      <trkpt lat="45.49224" lon="6.70796">
        <ele>2317.1999511719</ele>
        <time>2011-07-30T07:48:20Z</time>
      </trkpt>
      <trkpt lat="45.49222" lon="6.708">
        <ele>2318.1999511719</ele>
        <time>2011-07-30T07:48:25Z</time>
      </trkpt>
      <trkpt lat="45.49219" lon="6.70806">
        <ele>2320</ele>
        <time>2011-07-30T07:48:33Z</time>
      </trkpt>
      <trkpt lat="45.49217" lon="6.70812">
        <ele>2321.3999023438</ele>
        <time>2011-07-30T07:48:38Z</time>
      </trkpt>
      <trkpt lat="45.49216" lon="6.70819">
        <ele>2323.1999511719</ele>
        <time>2011-07-30T07:48:46Z</time>
      </trkpt>
      <trkpt lat="45.49216" lon="6.70827">
        <ele>2325</ele>
        <time>2011-07-30T07:48:52Z</time>
      </trkpt>
      <trkpt lat="45.49216" lon="6.70833">
        <ele>2326.8000488281</ele>
        <time>2011-07-30T07:48:58Z</time>
      </trkpt>
      <trkpt lat="45.49217" lon="6.70841">
        <ele>2328.8000488281</ele>
        <time>2011-07-30T07:49:05Z</time>
      </trkpt>
      <trkpt lat="45.49218" lon="6.70848">
        <ele>2330.8000488281</ele>
        <time>2011-07-30T07:49:13Z</time>
      </trkpt>
      <trkpt lat="45.4922" lon="6.70853">
        <ele>2332.6000976562</ele>
        <time>2011-07-30T07:49:18Z</time>
      </trkpt>
      <trkpt lat="45.4922" lon="6.7086">
        <ele>2334.6000976562</ele>
        <time>2011-07-30T07:49:26Z</time>
      </trkpt>
      <trkpt lat="45.49222" lon="6.70863">
        <ele>2336.1999511719</ele>
        <time>2011-07-30T07:49:31Z</time>
      </trkpt>
      <trkpt lat="45.49223" lon="6.70868">
        <ele>2338.1999511719</ele>
        <time>2011-07-30T07:49:38Z</time>
      </trkpt>
      <trkpt lat="45.49224" lon="6.70872">
        <ele>2339.8000488281</ele>
        <time>2011-07-30T07:49:43Z</time>
      </trkpt>
      <trkpt lat="45.49225" lon="6.70878">
        <ele>2341.6000976562</ele>
        <time>2011-07-30T07:49:48Z</time>
      </trkpt>
      <trkpt lat="45.49228" lon="6.70884">
        <ele>2343.1999511719</ele>
        <time>2011-07-30T07:49:55Z</time>
      </trkpt>
      <trkpt lat="45.4923" lon="6.7089">
        <ele>2345</ele>
        <time>2011-07-30T07:50:02Z</time>
      </trkpt>
      <trkpt lat="45.49233" lon="6.70895">
        <ele>2347</ele>
        <time>2011-07-30T07:50:08Z</time>
      </trkpt>
      <trkpt lat="45.49236" lon="6.70901">
        <ele>2348.6000976562</ele>
        <time>2011-07-30T07:50:13Z</time>
      </trkpt>
      <trkpt lat="45.49236" lon="6.70907">
        <ele>2349.8000488281</ele>
        <time>2011-07-30T07:50:17Z</time>
      </trkpt>
      <trkpt lat="45.49237" lon="6.70909">
        <ele>2350.6000976562</ele>
        <time>2011-07-30T07:50:20Z</time>
      </trkpt>
      <trkpt lat="45.49236" lon="6.70918">
        <ele>2351.8000488281</ele>
        <time>2011-07-30T07:50:25Z</time>
      </trkpt>
      <trkpt lat="45.49236" lon="6.70921">
        <ele>2352.1999511719</ele>
        <time>2011-07-30T07:50:27Z</time>
      </trkpt>
      <trkpt lat="45.49231" lon="6.70928">
        <ele>2353.6000976562</ele>
        <time>2011-07-30T07:50:32Z</time>
      </trkpt>
      <trkpt lat="45.49224" lon="6.70933">
        <ele>2355</ele>
        <time>2011-07-30T07:50:38Z</time>
      </trkpt>
      <trkpt lat="45.49216" lon="6.70936">
        <ele>2356.1999511719</ele>
        <time>2011-07-30T07:50:45Z</time>
      </trkpt>
      <trkpt lat="45.49212" lon="6.7094">
        <ele>2356.8000488281</ele>
        <time>2011-07-30T07:50:48Z</time>
      </trkpt>
      <trkpt lat="45.49205" lon="6.70944">
        <ele>2358.1999511719</ele>
        <time>2011-07-30T07:50:54Z</time>
      </trkpt>
      <trkpt lat="45.49197" lon="6.70952">
        <ele>2359.8000488281</ele>
        <time>2011-07-30T07:51:02Z</time>
      </trkpt>
      <trkpt lat="45.49189" lon="6.70965">
        <ele>2362.1999511719</ele>
        <time>2011-07-30T07:51:12Z</time>
      </trkpt>
      <trkpt lat="45.49181" lon="6.70976">
        <ele>2363.6000976562</ele>
        <time>2011-07-30T07:51:17Z</time>
      </trkpt>
      <trkpt lat="45.49164" lon="6.70983">
        <ele>2364.6000976562</ele>
        <time>2011-07-30T07:51:23Z</time>
      </trkpt>
      <trkpt lat="45.49151" lon="6.70986">
        <ele>2365.1999511719</ele>
        <time>2011-07-30T07:51:28Z</time>
      </trkpt>
      <trkpt lat="45.49133" lon="6.70995">
        <ele>2365.3999023438</ele>
        <time>2011-07-30T07:51:35Z</time>
      </trkpt>
      <trkpt lat="45.49116" lon="6.71005">
        <ele>2365.6000976562</ele>
        <time>2011-07-30T07:51:41Z</time>
      </trkpt>
      <trkpt lat="45.49104" lon="6.71017">
        <ele>2365.8000488281</ele>
        <time>2011-07-30T07:51:46Z</time>
      </trkpt>
      <trkpt lat="45.49097" lon="6.71036">
        <ele>2365.8000488281</ele>
        <time>2011-07-30T07:51:51Z</time>
      </trkpt>
      <trkpt lat="45.49097" lon="6.71039">
        <ele>2365.8000488281</ele>
        <time>2011-07-30T07:51:52Z</time>
      </trkpt>
      <trkpt lat="45.49095" lon="6.71046">
        <ele>2365.8000488281</ele>
        <time>2011-07-30T07:51:55Z</time>
      </trkpt>
      <trkpt lat="45.49099" lon="6.71065">
        <ele>2365.8000488281</ele>
        <time>2011-07-30T07:52:01Z</time>
      </trkpt>
      <trkpt lat="45.49099" lon="6.7108">
        <ele>2366.6000976562</ele>
        <time>2011-07-30T07:52:04Z</time>
      </trkpt>
      <trkpt lat="45.49093" lon="6.71107">
        <ele>2367.1999511719</ele>
        <time>2011-07-30T07:52:12Z</time>
      </trkpt>
      <trkpt lat="45.49086" lon="6.71124">
        <ele>2367.8000488281</ele>
        <time>2011-07-30T07:52:16Z</time>
      </trkpt>
      <trkpt lat="45.49084" lon="6.71139">
        <ele>2368.3999023438</ele>
        <time>2011-07-30T07:52:21Z</time>
      </trkpt>
      <trkpt lat="45.49081" lon="6.71157">
        <ele>2369.1999511719</ele>
        <time>2011-07-30T07:52:26Z</time>
      </trkpt>
      <trkpt lat="45.49079" lon="6.71178">
        <ele>2369.6000976562</ele>
        <time>2011-07-30T07:52:32Z</time>
      </trkpt>
      <trkpt lat="45.49077" lon="6.71195">
        <ele>2369.8000488281</ele>
        <time>2011-07-30T07:52:37Z</time>
      </trkpt>
      <trkpt lat="45.49077" lon="6.71211">
        <ele>2370.3999023438</ele>
        <time>2011-07-30T07:52:42Z</time>
      </trkpt>
      <trkpt lat="45.4908" lon="6.71226">
        <ele>2371</ele>
        <time>2011-07-30T07:52:47Z</time>
      </trkpt>
      <trkpt lat="45.4908" lon="6.71233">
        <ele>2371.1999511719</ele>
        <time>2011-07-30T07:52:50Z</time>
      </trkpt>
      <trkpt lat="45.49082" lon="6.71241">
        <ele>2371.6000976562</ele>
        <time>2011-07-30T07:52:55Z</time>
      </trkpt>
      <trkpt lat="45.49086" lon="6.71258">
        <ele>2371.8000488281</ele>
        <time>2011-07-30T07:53:03Z</time>
      </trkpt>
      <trkpt lat="45.49089" lon="6.7127">
        <ele>2372</ele>
        <time>2011-07-30T07:53:10Z</time>
      </trkpt>
      <trkpt lat="45.4909" lon="6.71272">
        <ele>2372</ele>
        <time>2011-07-30T07:53:10Z</time>
      </trkpt>
      <trkpt lat="45.49091" lon="6.71284">
        <ele>2372</ele>
        <time>2011-07-30T07:53:18Z</time>
      </trkpt>
      <trkpt lat="45.49091" lon="6.7129">
        <ele>2372</ele>
        <time>2011-07-30T07:53:23Z</time>
      </trkpt>
      <trkpt lat="45.49091" lon="6.71292">
        <ele>2372</ele>
        <time>2011-07-30T07:53:23Z</time>
      </trkpt>
      <trkpt lat="45.49092" lon="6.71298">
        <ele>2372.6000976562</ele>
        <time>2011-07-30T07:53:30Z</time>
      </trkpt>
      <trkpt lat="45.49092" lon="6.71306">
        <ele>2373.3999023438</ele>
        <time>2011-07-30T07:53:37Z</time>
      </trkpt>
      <trkpt lat="45.49092" lon="6.71312">
        <ele>2373.6000976562</ele>
        <time>2011-07-30T07:53:43Z</time>
      </trkpt>
      <trkpt lat="45.49093" lon="6.7132">
        <ele>2375</ele>
        <time>2011-07-30T07:53:50Z</time>
      </trkpt>
      <trkpt lat="45.49092" lon="6.71328">
        <ele>2376.1999511719</ele>
        <time>2011-07-30T07:53:57Z</time>
      </trkpt>
      <trkpt lat="45.49091" lon="6.71331">
        <ele>2376.6000976562</ele>
        <time>2011-07-30T07:53:59Z</time>
      </trkpt>
      <trkpt lat="45.49091" lon="6.71339">
        <ele>2377.6000976562</ele>
        <time>2011-07-30T07:54:06Z</time>
      </trkpt>
      <trkpt lat="45.49089" lon="6.71349">
        <ele>2379</ele>
        <time>2011-07-30T07:54:13Z</time>
      </trkpt>
      <trkpt lat="45.49088" lon="6.71356">
        <ele>2380.3999023438</ele>
        <time>2011-07-30T07:54:18Z</time>
      </trkpt>
      <trkpt lat="45.49086" lon="6.71366">
        <ele>2381.3999023438</ele>
        <time>2011-07-30T07:54:25Z</time>
      </trkpt>
      <trkpt lat="45.49086" lon="6.71367">
        <ele>2381.8000488281</ele>
        <time>2011-07-30T07:54:26Z</time>
      </trkpt>
      <trkpt lat="45.49084" lon="6.71376">
        <ele>2383</ele>
        <time>2011-07-30T07:54:31Z</time>
      </trkpt>
      <trkpt lat="45.49084" lon="6.71379">
        <ele>2383.3999023438</ele>
        <time>2011-07-30T07:54:33Z</time>
      </trkpt>
      <trkpt lat="45.49084" lon="6.71392">
        <ele>2384.6000976562</ele>
        <time>2011-07-30T07:54:40Z</time>
      </trkpt>
      <trkpt lat="45.49085" lon="6.71399">
        <ele>2385.3999023438</ele>
        <time>2011-07-30T07:54:45Z</time>
      </trkpt>
      <trkpt lat="45.49085" lon="6.71409">
        <ele>2386.8000488281</ele>
        <time>2011-07-30T07:54:51Z</time>
      </trkpt>
      <trkpt lat="45.49084" lon="6.71422">
        <ele>2388.3999023438</ele>
        <time>2011-07-30T07:54:58Z</time>
      </trkpt>
      <trkpt lat="45.49085" lon="6.71433">
        <ele>2389.6000976562</ele>
        <time>2011-07-30T07:55:05Z</time>
      </trkpt>
      <trkpt lat="45.49088" lon="6.71449">
        <ele>2391.3999023438</ele>
        <time>2011-07-30T07:55:12Z</time>
      </trkpt>
      <trkpt lat="45.49089" lon="6.7146">
        <ele>2392.6000976562</ele>
        <time>2011-07-30T07:55:16Z</time>
      </trkpt>
      <trkpt lat="45.49092" lon="6.7147">
        <ele>2394</ele>
        <time>2011-07-30T07:55:22Z</time>
      </trkpt>
      <trkpt lat="45.49093" lon="6.71473">
        <ele>2394.6000976562</ele>
        <time>2011-07-30T07:55:24Z</time>
      </trkpt>
      <trkpt lat="45.49097" lon="6.71484">
        <ele>2396.6000976562</ele>
        <time>2011-07-30T07:55:32Z</time>
      </trkpt>
      <trkpt lat="45.49097" lon="6.71484">
        <ele>2397</ele>
        <time>2011-07-30T07:55:33Z</time>
      </trkpt>
      <trkpt lat="45.49102" lon="6.71495">
        <ele>2399</ele>
        <time>2011-07-30T07:55:41Z</time>
      </trkpt>
      <trkpt lat="45.49109" lon="6.71505">
        <ele>2400.8000488281</ele>
        <time>2011-07-30T07:55:48Z</time>
      </trkpt>
      <trkpt lat="45.49111" lon="6.7151">
        <ele>2402</ele>
        <time>2011-07-30T07:55:54Z</time>
      </trkpt>
      <trkpt lat="45.4911" lon="6.71511">
        <ele>2402.3999023438</ele>
        <time>2011-07-30T07:55:56Z</time>
      </trkpt>
      <trkpt lat="45.49116" lon="6.7152">
        <ele>2404.3999023438</ele>
        <time>2011-07-30T07:56:04Z</time>
      </trkpt>
      <trkpt lat="45.49117" lon="6.71522">
        <ele>2404.3999023438</ele>
        <time>2011-07-30T07:56:05Z</time>
      </trkpt>
      <trkpt lat="45.49123" lon="6.71532">
        <ele>2406.3999023438</ele>
        <time>2011-07-30T07:56:14Z</time>
      </trkpt>
      <trkpt lat="45.49125" lon="6.71534">
        <ele>2406.8000488281</ele>
        <time>2011-07-30T07:56:16Z</time>
      </trkpt>
      <trkpt lat="45.49122" lon="6.71536">
        <ele>2408.1999511719</ele>
        <time>2011-07-30T07:56:22Z</time>
      </trkpt>
      <trkpt lat="45.49117" lon="6.71532">
        <ele>2409</ele>
        <time>2011-07-30T07:56:27Z</time>
      </trkpt>
      <trkpt lat="45.49109" lon="6.7153">
        <ele>2410.3999023438</ele>
        <time>2011-07-30T07:56:34Z</time>
      </trkpt>
      <trkpt lat="45.49108" lon="6.7153">
        <ele>2410.6000976562</ele>
        <time>2011-07-30T07:56:36Z</time>
      </trkpt>
      <trkpt lat="45.49104" lon="6.71529">
        <ele>2411.3999023438</ele>
        <time>2011-07-30T07:56:41Z</time>
      </trkpt>
      <trkpt lat="45.491" lon="6.71525">
        <ele>2412.6000976562</ele>
        <time>2011-07-30T07:56:46Z</time>
      </trkpt>
      <trkpt lat="45.49096" lon="6.71523">
        <ele>2413.6000976562</ele>
        <time>2011-07-30T07:56:52Z</time>
      </trkpt>
      <trkpt lat="45.49092" lon="6.7152">
        <ele>2414.8000488281</ele>
        <time>2011-07-30T07:56:58Z</time>
      </trkpt>
      <trkpt lat="45.49089" lon="6.7152">
        <ele>2416.1999511719</ele>
        <time>2011-07-30T07:57:03Z</time>
      </trkpt>
      <trkpt lat="45.49085" lon="6.71519">
        <ele>2417.1999511719</ele>
        <time>2011-07-30T07:57:08Z</time>
      </trkpt>
      <trkpt lat="45.49083" lon="6.71519">
        <ele>2417.8000488281</ele>
        <time>2011-07-30T07:57:10Z</time>
      </trkpt>
      <trkpt lat="45.49084" lon="6.71526">
        <ele>2419</ele>
        <time>2011-07-30T07:57:16Z</time>
      </trkpt>
      <trkpt lat="45.49086" lon="6.7153">
        <ele>2419.3999023438</ele>
        <time>2011-07-30T07:57:19Z</time>
      </trkpt>
      <trkpt lat="45.49095" lon="6.71544">
        <ele>2421</ele>
        <time>2011-07-30T07:57:26Z</time>
      </trkpt>
      <trkpt lat="45.49105" lon="6.71558">
        <ele>2421.8000488281</ele>
        <time>2011-07-30T07:57:33Z</time>
      </trkpt>
      <trkpt lat="45.49112" lon="6.71567">
        <ele>2422.8000488281</ele>
        <time>2011-07-30T07:57:38Z</time>
      </trkpt>
      <trkpt lat="45.49121" lon="6.71578">
        <ele>2423.8000488281</ele>
        <time>2011-07-30T07:57:44Z</time>
      </trkpt>
      <trkpt lat="45.49126" lon="6.71583">
        <ele>2424.6000976562</ele>
        <time>2011-07-30T07:57:48Z</time>
      </trkpt>
      <trkpt lat="45.49129" lon="6.71588">
        <ele>2425.3999023438</ele>
        <time>2011-07-30T07:57:52Z</time>
      </trkpt>
      <trkpt lat="45.49133" lon="6.716">
        <ele>2426.3999023438</ele>
        <time>2011-07-30T07:57:58Z</time>
      </trkpt>
      <trkpt lat="45.49136" lon="6.7161">
        <ele>2427.3999023438</ele>
        <time>2011-07-30T07:58:04Z</time>
      </trkpt>
      <trkpt lat="45.4914" lon="6.71621">
        <ele>2428.3999023438</ele>
        <time>2011-07-30T07:58:11Z</time>
      </trkpt>
      <trkpt lat="45.49146" lon="6.71634">
        <ele>2429.8000488281</ele>
        <time>2011-07-30T07:58:18Z</time>
      </trkpt>
      <trkpt lat="45.49155" lon="6.71649">
        <ele>2430.6000976562</ele>
        <time>2011-07-30T07:58:25Z</time>
      </trkpt>
      <trkpt lat="45.49161" lon="6.71661">
        <ele>2431.8000488281</ele>
        <time>2011-07-30T07:58:30Z</time>
      </trkpt>
      <trkpt lat="45.49165" lon="6.71668">
        <ele>2432.1999511719</ele>
        <time>2011-07-30T07:58:33Z</time>
      </trkpt>
      <trkpt lat="45.49172" lon="6.71683">
        <ele>2433.3999023438</ele>
        <time>2011-07-30T07:58:39Z</time>
      </trkpt>
      <trkpt lat="45.49176" lon="6.71695">
        <ele>2434.1999511719</ele>
        <time>2011-07-30T07:58:43Z</time>
      </trkpt>
      <trkpt lat="45.49179" lon="6.71706">
        <ele>2434.8000488281</ele>
        <time>2011-07-30T07:58:47Z</time>
      </trkpt>
      <trkpt lat="45.49183" lon="6.71731">
        <ele>2436.3999023438</ele>
        <time>2011-07-30T07:58:55Z</time>
      </trkpt>
      <trkpt lat="45.49184" lon="6.71747">
        <ele>2436.8000488281</ele>
        <time>2011-07-30T07:59:00Z</time>
      </trkpt>
      <trkpt lat="45.49183" lon="6.71761">
        <ele>2437.1999511719</ele>
        <time>2011-07-30T07:59:05Z</time>
      </trkpt>
      <trkpt lat="45.49182" lon="6.71777">
        <ele>2437.1999511719</ele>
        <time>2011-07-30T07:59:10Z</time>
      </trkpt>
      <trkpt lat="45.49181" lon="6.71793">
        <ele>2437.3999023438</ele>
        <time>2011-07-30T07:59:15Z</time>
      </trkpt>
      <trkpt lat="45.49181" lon="6.71798">
        <ele>2437.3999023438</ele>
        <time>2011-07-30T07:59:17Z</time>
      </trkpt>
      <trkpt lat="45.49186" lon="6.7181">
        <ele>2437.3999023438</ele>
        <time>2011-07-30T07:59:22Z</time>
      </trkpt>
      <trkpt lat="45.49196" lon="6.71824">
        <ele>2437.3999023438</ele>
        <time>2011-07-30T07:59:29Z</time>
      </trkpt>
      <trkpt lat="45.49198" lon="6.71829">
        <ele>2437.6000976562</ele>
        <time>2011-07-30T07:59:31Z</time>
      </trkpt>
      <trkpt lat="45.49192" lon="6.71841">
        <ele>2437.6000976562</ele>
        <time>2011-07-30T07:59:36Z</time>
      </trkpt>
      <trkpt lat="45.49191" lon="6.71843">
        <ele>2437.6000976562</ele>
        <time>2011-07-30T07:59:37Z</time>
      </trkpt>
      <trkpt lat="45.49186" lon="6.71854">
        <ele>2437.6000976562</ele>
        <time>2011-07-30T07:59:42Z</time>
      </trkpt>
      <trkpt lat="45.49184" lon="6.71865">
        <ele>2437.6000976562</ele>
        <time>2011-07-30T07:59:48Z</time>
      </trkpt>
      <trkpt lat="45.49184" lon="6.71874">
        <ele>2438.6000976562</ele>
        <time>2011-07-30T07:59:54Z</time>
      </trkpt>
      <trkpt lat="45.49187" lon="6.71882">
        <ele>2439</ele>
        <time>2011-07-30T07:59:59Z</time>
      </trkpt>
      <trkpt lat="45.49193" lon="6.71897">
        <ele>2440.6000976562</ele>
        <time>2011-07-30T08:00:08Z</time>
      </trkpt>
      <trkpt lat="45.49198" lon="6.71914">
        <ele>2442</ele>
        <time>2011-07-30T08:00:17Z</time>
      </trkpt>
      <trkpt lat="45.49203" lon="6.71927">
        <ele>2443</ele>
        <time>2011-07-30T08:00:24Z</time>
      </trkpt>
      <trkpt lat="45.49208" lon="6.71937">
        <ele>2444.1999511719</ele>
        <time>2011-07-30T08:00:31Z</time>
      </trkpt>
      <trkpt lat="45.4921" lon="6.7195">
        <ele>2445.1999511719</ele>
        <time>2011-07-30T08:00:38Z</time>
      </trkpt>
      <trkpt lat="45.4921" lon="6.71954">
        <ele>2445.8000488281</ele>
        <time>2011-07-30T08:00:41Z</time>
      </trkpt>
      <trkpt lat="45.49208" lon="6.71962">
        <ele>2446.6000976562</ele>
        <time>2011-07-30T08:00:46Z</time>
      </trkpt>
      <trkpt lat="45.49208" lon="6.71967">
        <ele>2447</ele>
        <time>2011-07-30T08:00:49Z</time>
      </trkpt>
      <trkpt lat="45.4921" lon="6.71979">
        <ele>2448.6000976562</ele>
        <time>2011-07-30T08:00:57Z</time>
      </trkpt>
      <trkpt lat="45.49211" lon="6.71989">
        <ele>2450</ele>
        <time>2011-07-30T08:01:04Z</time>
      </trkpt>
      <trkpt lat="45.49211" lon="6.71998">
        <ele>2451.1999511719</ele>
        <time>2011-07-30T08:01:12Z</time>
      </trkpt>
      <trkpt lat="45.4921" lon="6.72003">
        <ele>2452.1999511719</ele>
        <time>2011-07-30T08:01:16Z</time>
      </trkpt>
      <trkpt lat="45.4921" lon="6.72013">
        <ele>2453.6000976562</ele>
        <time>2011-07-30T08:01:24Z</time>
      </trkpt>
      <trkpt lat="45.49208" lon="6.72022">
        <ele>2455</ele>
        <time>2011-07-30T08:01:30Z</time>
      </trkpt>
      <trkpt lat="45.49205" lon="6.72031">
        <ele>2456.3999023438</ele>
        <time>2011-07-30T08:01:36Z</time>
      </trkpt>
      <trkpt lat="45.49203" lon="6.72043">
        <ele>2458</ele>
        <time>2011-07-30T08:01:44Z</time>
      </trkpt>
      <trkpt lat="45.49204" lon="6.72045">
        <ele>2458.3999023438</ele>
        <time>2011-07-30T08:01:45Z</time>
      </trkpt>
      <trkpt lat="45.49202" lon="6.72054">
        <ele>2459.3999023438</ele>
        <time>2011-07-30T08:01:50Z</time>
      </trkpt>
      <trkpt lat="45.492" lon="6.7207">
        <ele>2461.1999511719</ele>
        <time>2011-07-30T08:01:59Z</time>
      </trkpt>
      <trkpt lat="45.49198" lon="6.72081">
        <ele>2462.3999023438</ele>
        <time>2011-07-30T08:02:06Z</time>
      </trkpt>
      <trkpt lat="45.49197" lon="6.72085">
        <ele>2463</ele>
        <time>2011-07-30T08:02:09Z</time>
      </trkpt>
      <trkpt lat="45.49194" lon="6.72098">
        <ele>2464.3999023438</ele>
        <time>2011-07-30T08:02:17Z</time>
      </trkpt>
      <trkpt lat="45.49194" lon="6.72106">
        <ele>2465.3999023438</ele>
        <time>2011-07-30T08:02:22Z</time>
      </trkpt>
      <trkpt lat="45.49192" lon="6.72112">
        <ele>2466.1999511719</ele>
        <time>2011-07-30T08:02:27Z</time>
      </trkpt>
      <trkpt lat="45.49192" lon="6.72116">
        <ele>2466.8000488281</ele>
        <time>2011-07-30T08:02:29Z</time>
      </trkpt>
      <trkpt lat="45.49191" lon="6.7212">
        <ele>2467.3999023438</ele>
        <time>2011-07-30T08:02:32Z</time>
      </trkpt>
      <trkpt lat="45.49189" lon="6.72134">
        <ele>2469.1999511719</ele>
        <time>2011-07-30T08:02:40Z</time>
      </trkpt>
      <trkpt lat="45.49187" lon="6.72137">
        <ele>2469.6000976562</ele>
        <time>2011-07-30T08:02:42Z</time>
      </trkpt>
      <trkpt lat="45.49187" lon="6.72146">
        <ele>2470.1999511719</ele>
        <time>2011-07-30T08:02:46Z</time>
      </trkpt>
      <trkpt lat="45.49186" lon="6.72149">
        <ele>2470.8000488281</ele>
        <time>2011-07-30T08:02:48Z</time>
      </trkpt>
      <trkpt lat="45.49184" lon="6.72159">
        <ele>2472</ele>
        <time>2011-07-30T08:02:54Z</time>
      </trkpt>
      <trkpt lat="45.49183" lon="6.7217">
        <ele>2473.1999511719</ele>
        <time>2011-07-30T08:03:00Z</time>
      </trkpt>
      <trkpt lat="45.49181" lon="6.72185">
        <ele>2474.8000488281</ele>
        <time>2011-07-30T08:03:08Z</time>
      </trkpt>
      <trkpt lat="45.49179" lon="6.72196">
        <ele>2476.1999511719</ele>
        <time>2011-07-30T08:03:14Z</time>
      </trkpt>
      <trkpt lat="45.4918" lon="6.72211">
        <ele>2477.3999023438</ele>
        <time>2011-07-30T08:03:21Z</time>
      </trkpt>
      <trkpt lat="45.49181" lon="6.72227">
        <ele>2478.8000488281</ele>
        <time>2011-07-30T08:03:29Z</time>
      </trkpt>
      <trkpt lat="45.49181" lon="6.72238">
        <ele>2479.8000488281</ele>
        <time>2011-07-30T08:03:34Z</time>
      </trkpt>
      <trkpt lat="45.49181" lon="6.72253">
        <ele>2481</ele>
        <time>2011-07-30T08:03:41Z</time>
      </trkpt>
      <trkpt lat="45.49182" lon="6.72267">
        <ele>2481.3999023438</ele>
        <time>2011-07-30T08:03:48Z</time>
      </trkpt>
      <trkpt lat="45.49182" lon="6.72269">
        <ele>2481.6000976562</ele>
        <time>2011-07-30T08:03:49Z</time>
      </trkpt>
      <trkpt lat="45.49182" lon="6.7228">
        <ele>2482.8000488281</ele>
        <time>2011-07-30T08:03:55Z</time>
      </trkpt>
      <trkpt lat="45.49184" lon="6.72302">
        <ele>2485.1999511719</ele>
        <time>2011-07-30T08:04:10Z</time>
      </trkpt>
      <trkpt lat="45.49184" lon="6.72305">
        <ele>2485.1999511719</ele>
        <time>2011-07-30T08:04:11Z</time>
      </trkpt>
      <trkpt lat="45.49181" lon="6.72316">
        <ele>2486.8000488281</ele>
        <time>2011-07-30T08:04:18Z</time>
      </trkpt>
      <trkpt lat="45.49178" lon="6.72323">
        <ele>2487.3999023438</ele>
        <time>2011-07-30T08:04:23Z</time>
      </trkpt>
      <trkpt lat="45.49175" lon="6.72335">
        <ele>2488.8000488281</ele>
        <time>2011-07-30T08:04:30Z</time>
      </trkpt>
      <trkpt lat="45.49175" lon="6.72351">
        <ele>2489.6000976562</ele>
        <time>2011-07-30T08:04:38Z</time>
      </trkpt>
      <trkpt lat="45.49178" lon="6.72365">
        <ele>2491</ele>
        <time>2011-07-30T08:04:44Z</time>
      </trkpt>
      <trkpt lat="45.49178" lon="6.72368">
        <ele>2491</ele>
        <time>2011-07-30T08:04:45Z</time>
      </trkpt>
      <trkpt lat="45.49179" lon="6.72371">
        <ele>2491.3999023438</ele>
        <time>2011-07-30T08:04:47Z</time>
      </trkpt>
      <trkpt lat="45.49179" lon="6.72374">
        <ele>2491.6000976562</ele>
        <time>2011-07-30T08:04:49Z</time>
      </trkpt>
      <trkpt lat="45.49181" lon="6.72378">
        <ele>2492</ele>
        <time>2011-07-30T08:04:51Z</time>
      </trkpt>
      <trkpt lat="45.49183" lon="6.72396">
        <ele>2493.6000976562</ele>
        <time>2011-07-30T08:05:00Z</time>
      </trkpt>
      <trkpt lat="45.49182" lon="6.72416">
        <ele>2494.3999023438</ele>
        <time>2011-07-30T08:05:10Z</time>
      </trkpt>
      <trkpt lat="45.49177" lon="6.72432">
        <ele>2495.6000976562</ele>
        <time>2011-07-30T08:05:18Z</time>
      </trkpt>
      <trkpt lat="45.49172" lon="6.72445">
        <ele>2496.1999511719</ele>
        <time>2011-07-30T08:05:25Z</time>
      </trkpt>
      <trkpt lat="45.49164" lon="6.72456">
        <ele>2496.8000488281</ele>
        <time>2011-07-30T08:05:30Z</time>
      </trkpt>
      <trkpt lat="45.49156" lon="6.72468">
        <ele>2497.6000976562</ele>
        <time>2011-07-30T08:05:35Z</time>
      </trkpt>
      <trkpt lat="45.49147" lon="6.72482">
        <ele>2499.1999511719</ele>
        <time>2011-07-30T08:05:41Z</time>
      </trkpt>
      <trkpt lat="45.49141" lon="6.72494">
        <ele>2501</ele>
        <time>2011-07-30T08:05:46Z</time>
      </trkpt>
      <trkpt lat="45.49133" lon="6.72507">
        <ele>2503</ele>
        <time>2011-07-30T08:05:52Z</time>
      </trkpt>
      <trkpt lat="45.49129" lon="6.72522">
        <ele>2505</ele>
        <time>2011-07-30T08:05:58Z</time>
      </trkpt>
      <trkpt lat="45.49127" lon="6.72538">
        <ele>2506.3999023438</ele>
        <time>2011-07-30T08:06:04Z</time>
      </trkpt>
      <trkpt lat="45.49127" lon="6.72556">
        <ele>2507.1999511719</ele>
        <time>2011-07-30T08:06:11Z</time>
      </trkpt>
      <trkpt lat="45.49126" lon="6.72568">
        <ele>2508.3999023438</ele>
        <time>2011-07-30T08:06:16Z</time>
      </trkpt>
      <trkpt lat="45.49128" lon="6.7258">
        <ele>2509</ele>
        <time>2011-07-30T08:06:21Z</time>
      </trkpt>
      <trkpt lat="45.4913" lon="6.72588">
        <ele>2509.3999023438</ele>
        <time>2011-07-30T08:06:26Z</time>
      </trkpt>
      <trkpt lat="45.4913" lon="6.72591">
        <ele>2509.3999023438</ele>
        <time>2011-07-30T08:06:27Z</time>
      </trkpt>
      <trkpt lat="45.49134" lon="6.72599">
        <ele>2509.6000976562</ele>
        <time>2011-07-30T08:06:33Z</time>
      </trkpt>
      <trkpt lat="45.49137" lon="6.7261">
        <ele>2509.8000488281</ele>
        <time>2011-07-30T08:06:40Z</time>
      </trkpt>
      <trkpt lat="45.49142" lon="6.72621">
        <ele>2510.1999511719</ele>
        <time>2011-07-30T08:06:48Z</time>
      </trkpt>
      <trkpt lat="45.49149" lon="6.72629">
        <ele>2511.1999511719</ele>
        <time>2011-07-30T08:06:55Z</time>
      </trkpt>
      <trkpt lat="45.4915" lon="6.7263">
        <ele>2511.1999511719</ele>
        <time>2011-07-30T08:06:56Z</time>
      </trkpt>
      <trkpt lat="45.49153" lon="6.72642">
        <ele>2511.8000488281</ele>
        <time>2011-07-30T08:07:05Z</time>
      </trkpt>
      <trkpt lat="45.49157" lon="6.7266">
        <ele>2513.3999023438</ele>
        <time>2011-07-30T08:07:18Z</time>
      </trkpt>
      <trkpt lat="45.49159" lon="6.7267">
        <ele>2514.3999023438</ele>
        <time>2011-07-30T08:07:26Z</time>
      </trkpt>
      <trkpt lat="45.49161" lon="6.72679">
        <ele>2515.3999023438</ele>
        <time>2011-07-30T08:07:33Z</time>
      </trkpt>
      <trkpt lat="45.49161" lon="6.72689">
        <ele>2516.6000976562</ele>
        <time>2011-07-30T08:07:40Z</time>
      </trkpt>
      <trkpt lat="45.49161" lon="6.72697">
        <ele>2517.3999023438</ele>
        <time>2011-07-30T08:07:46Z</time>
      </trkpt>
      <trkpt lat="45.49159" lon="6.72703">
        <ele>2518.1999511719</ele>
        <time>2011-07-30T08:07:51Z</time>
      </trkpt>
      <trkpt lat="45.49158" lon="6.72711">
        <ele>2519.3999023438</ele>
        <time>2011-07-30T08:07:58Z</time>
      </trkpt>
      <trkpt lat="45.49158" lon="6.72718">
        <ele>2520.3999023438</ele>
        <time>2011-07-30T08:08:04Z</time>
      </trkpt>
      <trkpt lat="45.49159" lon="6.72725">
        <ele>2521.3999023438</ele>
        <time>2011-07-30T08:08:10Z</time>
      </trkpt>
      <trkpt lat="45.4916" lon="6.7273">
        <ele>2522</ele>
        <time>2011-07-30T08:08:15Z</time>
      </trkpt>
      <trkpt lat="45.49161" lon="6.72733">
        <ele>2522.3999023438</ele>
        <time>2011-07-30T08:08:17Z</time>
      </trkpt>
      <trkpt lat="45.4916" lon="6.72746">
        <ele>2524</ele>
        <time>2011-07-30T08:08:26Z</time>
      </trkpt>
      <trkpt lat="45.49161" lon="6.72756">
        <ele>2525.3999023438</ele>
        <time>2011-07-30T08:08:33Z</time>
      </trkpt>
      <trkpt lat="45.49163" lon="6.72767">
        <ele>2527.3999023438</ele>
        <time>2011-07-30T08:08:43Z</time>
      </trkpt>
      <trkpt lat="45.49166" lon="6.72775">
        <ele>2528.8000488281</ele>
        <time>2011-07-30T08:08:49Z</time>
      </trkpt>
      <trkpt lat="45.49166" lon="6.72778">
        <ele>2529.1999511719</ele>
        <time>2011-07-30T08:08:51Z</time>
      </trkpt>
      <trkpt lat="45.4917" lon="6.72789">
        <ele>2530.8000488281</ele>
        <time>2011-07-30T08:09:00Z</time>
      </trkpt>
      <trkpt lat="45.49169" lon="6.72799">
        <ele>2532</ele>
        <time>2011-07-30T08:09:08Z</time>
      </trkpt>
      <trkpt lat="45.49168" lon="6.72804">
        <ele>2532.8000488281</ele>
        <time>2011-07-30T08:09:13Z</time>
      </trkpt>
      <trkpt lat="45.49168" lon="6.7281">
        <ele>2534</ele>
        <time>2011-07-30T08:09:20Z</time>
      </trkpt>
      <trkpt lat="45.4917" lon="6.72816">
        <ele>2535</ele>
        <time>2011-07-30T08:09:25Z</time>
      </trkpt>
      <trkpt lat="45.49171" lon="6.72822">
        <ele>2536</ele>
        <time>2011-07-30T08:09:31Z</time>
      </trkpt>
      <trkpt lat="45.4917" lon="6.7283">
        <ele>2537.3999023438</ele>
        <time>2011-07-30T08:09:39Z</time>
      </trkpt>
      <trkpt lat="45.49169" lon="6.72835">
        <ele>2538</ele>
        <time>2011-07-30T08:09:42Z</time>
      </trkpt>
      <trkpt lat="45.49168" lon="6.72845">
        <ele>2539.3999023438</ele>
        <time>2011-07-30T08:09:49Z</time>
      </trkpt>
      <trkpt lat="45.49167" lon="6.72852">
        <ele>2540.3999023438</ele>
        <time>2011-07-30T08:09:56Z</time>
      </trkpt>
      <trkpt lat="45.49167" lon="6.72853">
        <ele>2540.8000488281</ele>
        <time>2011-07-30T08:09:57Z</time>
      </trkpt>
      <trkpt lat="45.49164" lon="6.72863">
        <ele>2542.3999023438</ele>
        <time>2011-07-30T08:10:05Z</time>
      </trkpt>
      <trkpt lat="45.49161" lon="6.72871">
        <ele>2544</ele>
        <time>2011-07-30T08:10:12Z</time>
      </trkpt>
      <trkpt lat="45.49161" lon="6.72872">
        <ele>2544.1999511719</ele>
        <time>2011-07-30T08:10:13Z</time>
      </trkpt>
      <trkpt lat="45.49161" lon="6.72874">
        <ele>2544.3999023438</ele>
        <time>2011-07-30T08:10:15Z</time>
      </trkpt>
      <trkpt lat="45.49157" lon="6.72879">
        <ele>2546</ele>
        <time>2011-07-30T08:10:21Z</time>
      </trkpt>
      <trkpt lat="45.49156" lon="6.7288">
        <ele>2546.1999511719</ele>
        <time>2011-07-30T08:10:22Z</time>
      </trkpt>
      <trkpt lat="45.49149" lon="6.72885">
        <ele>2547.8000488281</ele>
        <time>2011-07-30T08:10:29Z</time>
      </trkpt>
      <trkpt lat="45.49144" lon="6.7289">
        <ele>2549.1999511719</ele>
        <time>2011-07-30T08:10:35Z</time>
      </trkpt>
      <trkpt lat="45.4914" lon="6.729">
        <ele>2550.3999023438</ele>
        <time>2011-07-30T08:10:41Z</time>
      </trkpt>
      <trkpt lat="45.49138" lon="6.72913">
        <ele>2552.1999511719</ele>
        <time>2011-07-30T08:10:49Z</time>
      </trkpt>
      <trkpt lat="45.49138" lon="6.72915">
        <ele>2552.3999023438</ele>
        <time>2011-07-30T08:10:50Z</time>
      </trkpt>
      <trkpt lat="45.49137" lon="6.72923">
        <ele>2553</ele>
        <time>2011-07-30T08:10:54Z</time>
      </trkpt>
      <trkpt lat="45.49134" lon="6.72939">
        <ele>2554.8000488281</ele>
        <time>2011-07-30T08:11:03Z</time>
      </trkpt>
      <trkpt lat="45.4913" lon="6.72955">
        <ele>2556.6000976562</ele>
        <time>2011-07-30T08:11:12Z</time>
      </trkpt>
      <trkpt lat="45.49126" lon="6.72969">
        <ele>2558.3999023438</ele>
        <time>2011-07-30T08:11:20Z</time>
      </trkpt>
      <trkpt lat="45.49126" lon="6.72972">
        <ele>2558.8000488281</ele>
        <time>2011-07-30T08:11:22Z</time>
      </trkpt>
      <trkpt lat="45.49126" lon="6.72989">
        <ele>2560.3999023438</ele>
        <time>2011-07-30T08:11:31Z</time>
      </trkpt>
      <trkpt lat="45.4913" lon="6.73001">
        <ele>2561.6000976562</ele>
        <time>2011-07-30T08:11:38Z</time>
      </trkpt>
      <trkpt lat="45.49137" lon="6.73014">
        <ele>2562.8000488281</ele>
        <time>2011-07-30T08:11:47Z</time>
      </trkpt>
      <trkpt lat="45.49144" lon="6.73024">
        <ele>2563.6000976562</ele>
        <time>2011-07-30T08:11:54Z</time>
      </trkpt>
      <trkpt lat="45.49152" lon="6.7304">
        <ele>2565.6000976562</ele>
        <time>2011-07-30T08:12:04Z</time>
      </trkpt>
      <trkpt lat="45.49153" lon="6.73068">
        <ele>2567.8000488281</ele>
        <time>2011-07-30T08:12:19Z</time>
      </trkpt>
      <trkpt lat="45.49153" lon="6.73072">
        <ele>2568</ele>
        <time>2011-07-30T08:12:22Z</time>
      </trkpt>
      <trkpt lat="45.49152" lon="6.73078">
        <ele>2568.3999023438</ele>
        <time>2011-07-30T08:12:25Z</time>
      </trkpt>
      <trkpt lat="45.49151" lon="6.73093">
        <ele>2569.8000488281</ele>
        <time>2011-07-30T08:12:33Z</time>
      </trkpt>
      <trkpt lat="45.49154" lon="6.73106">
        <ele>2571</ele>
        <time>2011-07-30T08:12:40Z</time>
      </trkpt>
      <trkpt lat="45.4916" lon="6.73117">
        <ele>2572</ele>
        <time>2011-07-30T08:12:47Z</time>
      </trkpt>
      <trkpt lat="45.49169" lon="6.73127">
        <ele>2573.3999023438</ele>
        <time>2011-07-30T08:12:55Z</time>
      </trkpt>
      <trkpt lat="45.49177" lon="6.73135">
        <ele>2574.1999511719</ele>
        <time>2011-07-30T08:13:02Z</time>
      </trkpt>
      <trkpt lat="45.49188" lon="6.73144">
        <ele>2575</ele>
        <time>2011-07-30T08:13:11Z</time>
      </trkpt>
      <trkpt lat="45.49197" lon="6.7315">
        <ele>2576</ele>
        <time>2011-07-30T08:13:18Z</time>
      </trkpt>
      <trkpt lat="45.4921" lon="6.73156">
        <ele>2576.8000488281</ele>
        <time>2011-07-30T08:13:27Z</time>
      </trkpt>
      <trkpt lat="45.49222" lon="6.73161">
        <ele>2578.1999511719</ele>
        <time>2011-07-30T08:13:35Z</time>
      </trkpt>
      <trkpt lat="45.4923" lon="6.73161">
        <ele>2579</ele>
        <time>2011-07-30T08:13:40Z</time>
      </trkpt>
      <trkpt lat="45.49242" lon="6.7316">
        <ele>2580.1999511719</ele>
        <time>2011-07-30T08:13:50Z</time>
      </trkpt>
      <trkpt lat="45.49253" lon="6.7316">
        <ele>2581.3999023438</ele>
        <time>2011-07-30T08:13:57Z</time>
      </trkpt>
      <trkpt lat="45.4926" lon="6.73161">
        <ele>2582.1999511719</ele>
        <time>2011-07-30T08:14:03Z</time>
      </trkpt>
      <trkpt lat="45.49268" lon="6.73162">
        <ele>2582.8000488281</ele>
        <time>2011-07-30T08:14:09Z</time>
      </trkpt>
      <trkpt lat="45.49279" lon="6.73163">
        <ele>2584</ele>
        <time>2011-07-30T08:14:16Z</time>
      </trkpt>
      <trkpt lat="45.49293" lon="6.73163">
        <ele>2584.8000488281</ele>
        <time>2011-07-30T08:14:24Z</time>
      </trkpt>
      <trkpt lat="45.49304" lon="6.73161">
        <ele>2585.6000976562</ele>
        <time>2011-07-30T08:14:31Z</time>
      </trkpt>
      <trkpt lat="45.49319" lon="6.73158">
        <ele>2586.6000976562</ele>
        <time>2011-07-30T08:14:41Z</time>
      </trkpt>
      <trkpt lat="45.49332" lon="6.73158">
        <ele>2587.8000488281</ele>
        <time>2011-07-30T08:14:49Z</time>
      </trkpt>
      <trkpt lat="45.49342" lon="6.73159">
        <ele>2588.6000976562</ele>
        <time>2011-07-30T08:14:56Z</time>
      </trkpt>
      <trkpt lat="45.49354" lon="6.73161">
        <ele>2589.8000488281</ele>
        <time>2011-07-30T08:15:04Z</time>
      </trkpt>
      <trkpt lat="45.49366" lon="6.73162">
        <ele>2590.6000976562</ele>
        <time>2011-07-30T08:15:11Z</time>
      </trkpt>
      <trkpt lat="45.49376" lon="6.73161">
        <ele>2591</ele>
        <time>2011-07-30T08:15:18Z</time>
      </trkpt>
      <trkpt lat="45.49386" lon="6.7316">
        <ele>2592</ele>
        <time>2011-07-30T08:15:24Z</time>
      </trkpt>
      <trkpt lat="45.494" lon="6.73161">
        <ele>2593</ele>
        <time>2011-07-30T08:15:34Z</time>
      </trkpt>
      <trkpt lat="45.49412" lon="6.73164">
        <ele>2594.1999511719</ele>
        <time>2011-07-30T08:15:42Z</time>
      </trkpt>
      <trkpt lat="45.49418" lon="6.73168">
        <ele>2595</ele>
        <time>2011-07-30T08:15:47Z</time>
      </trkpt>
      <trkpt lat="45.49431" lon="6.73177">
        <ele>2597</ele>
        <time>2011-07-30T08:15:56Z</time>
      </trkpt>
      <trkpt lat="45.49434" lon="6.73178">
        <ele>2597.6000976562</ele>
        <time>2011-07-30T08:15:58Z</time>
      </trkpt>
      <trkpt lat="45.49444" lon="6.73186">
        <ele>2599.8000488281</ele>
        <time>2011-07-30T08:16:07Z</time>
      </trkpt>
      <trkpt lat="45.49455" lon="6.73193">
        <ele>2602.1999511719</ele>
        <time>2011-07-30T08:16:16Z</time>
      </trkpt>
      <trkpt lat="45.49464" lon="6.73196">
        <ele>2604.1999511719</ele>
        <time>2011-07-30T08:16:23Z</time>
      </trkpt>
      <trkpt lat="45.49474" lon="6.73198">
        <ele>2606</ele>
        <time>2011-07-30T08:16:30Z</time>
      </trkpt>
      <trkpt lat="45.49483" lon="6.73201">
        <ele>2607.3999023438</ele>
        <time>2011-07-30T08:16:37Z</time>
      </trkpt>
      <trkpt lat="45.495" lon="6.73205">
        <ele>2609.3999023438</ele>
        <time>2011-07-30T08:16:48Z</time>
      </trkpt>
      <trkpt lat="45.4951" lon="6.73207">
        <ele>2611</ele>
        <time>2011-07-30T08:16:56Z</time>
      </trkpt>
      <trkpt lat="45.49519" lon="6.73209">
        <ele>2612</ele>
        <time>2011-07-30T08:17:03Z</time>
      </trkpt>
      <trkpt lat="45.4953" lon="6.73211">
        <ele>2613.6000976562</ele>
        <time>2011-07-30T08:17:11Z</time>
      </trkpt>
      <trkpt lat="45.49543" lon="6.73215">
        <ele>2615.6000976562</ele>
        <time>2011-07-30T08:17:20Z</time>
      </trkpt>
      <trkpt lat="45.49552" lon="6.73218">
        <ele>2617.1999511719</ele>
        <time>2011-07-30T08:17:27Z</time>
      </trkpt>
      <trkpt lat="45.49557" lon="6.7322">
        <ele>2617.8000488281</ele>
        <time>2011-07-30T08:17:31Z</time>
      </trkpt>
      <trkpt lat="45.49561" lon="6.73222">
        <ele>2618.6000976562</ele>
        <time>2011-07-30T08:17:34Z</time>
      </trkpt>
      <trkpt lat="45.49571" lon="6.73225">
        <ele>2620.1999511719</ele>
        <time>2011-07-30T08:17:42Z</time>
      </trkpt>
      <trkpt lat="45.49587" lon="6.7323">
        <ele>2622.6000976562</ele>
        <time>2011-07-30T08:17:53Z</time>
      </trkpt>
      <trkpt lat="45.49596" lon="6.73235">
        <ele>2623.8000488281</ele>
        <time>2011-07-30T08:18:00Z</time>
      </trkpt>
      <trkpt lat="45.49605" lon="6.7324">
        <ele>2625.6000976562</ele>
        <time>2011-07-30T08:18:07Z</time>
      </trkpt>
      <trkpt lat="45.49617" lon="6.7325">
        <ele>2626.8000488281</ele>
        <time>2011-07-30T08:18:17Z</time>
      </trkpt>
      <trkpt lat="45.49619" lon="6.73252">
        <ele>2627.1999511719</ele>
        <time>2011-07-30T08:18:19Z</time>
      </trkpt>
      <trkpt lat="45.49629" lon="6.73258">
        <ele>2628.6000976562</ele>
        <time>2011-07-30T08:18:28Z</time>
      </trkpt>
      <trkpt lat="45.49632" lon="6.73269">
        <ele>2630</ele>
        <time>2011-07-30T08:18:35Z</time>
      </trkpt>
      <trkpt lat="45.49628" lon="6.73273">
        <ele>2630.3999023438</ele>
        <time>2011-07-30T08:18:39Z</time>
      </trkpt>
      <trkpt lat="45.49622" lon="6.73278">
        <ele>2631.8000488281</ele>
        <time>2011-07-30T08:18:45Z</time>
      </trkpt>
      <trkpt lat="45.49622" lon="6.73278">
        <ele>2632</ele>
        <time>2011-07-30T08:18:46Z</time>
      </trkpt>
      <trkpt lat="45.49614" lon="6.73279">
        <ele>2632.6000976562</ele>
        <time>2011-07-30T08:18:53Z</time>
      </trkpt>
      <trkpt lat="45.49609" lon="6.73279">
        <ele>2634</ele>
        <time>2011-07-30T08:18:59Z</time>
      </trkpt>
      <trkpt lat="45.496" lon="6.73278">
        <ele>2634.6000976562</ele>
        <time>2011-07-30T08:19:06Z</time>
      </trkpt>
      <trkpt lat="45.4959" lon="6.73277">
        <ele>2635.3999023438</ele>
        <time>2011-07-30T08:19:14Z</time>
      </trkpt>
      <trkpt lat="45.4958" lon="6.73276">
        <ele>2636.6000976562</ele>
        <time>2011-07-30T08:19:22Z</time>
      </trkpt>
      <trkpt lat="45.49569" lon="6.73277">
        <ele>2637</ele>
        <time>2011-07-30T08:19:31Z</time>
      </trkpt>
      <trkpt lat="45.49557" lon="6.73276">
        <ele>2638.1999511719</ele>
        <time>2011-07-30T08:19:41Z</time>
      </trkpt>
      <trkpt lat="45.49546" lon="6.73277">
        <ele>2638.8000488281</ele>
        <time>2011-07-30T08:19:49Z</time>
      </trkpt>
      <trkpt lat="45.49537" lon="6.73278">
        <ele>2640.1999511719</ele>
        <time>2011-07-30T08:19:55Z</time>
      </trkpt>
      <trkpt lat="45.49532" lon="6.7328">
        <ele>2640.6000976562</ele>
        <time>2011-07-30T08:19:59Z</time>
      </trkpt>
      <trkpt lat="45.49527" lon="6.7328">
        <ele>2641.6000976562</ele>
        <time>2011-07-30T08:20:03Z</time>
      </trkpt>
      <trkpt lat="45.49522" lon="6.7328">
        <ele>2642.1999511719</ele>
        <time>2011-07-30T08:20:06Z</time>
      </trkpt>
      <trkpt lat="45.49511" lon="6.73284">
        <ele>2644.1999511719</ele>
        <time>2011-07-30T08:20:16Z</time>
      </trkpt>
      <trkpt lat="45.49502" lon="6.73287">
        <ele>2645.8000488281</ele>
        <time>2011-07-30T08:20:23Z</time>
      </trkpt>
      <trkpt lat="45.49495" lon="6.7329">
        <ele>2646.8000488281</ele>
        <time>2011-07-30T08:20:29Z</time>
      </trkpt>
      <trkpt lat="45.49484" lon="6.73294">
        <ele>2648.6000976562</ele>
        <time>2011-07-30T08:20:37Z</time>
      </trkpt>
      <trkpt lat="45.49477" lon="6.73296">
        <ele>2649.8000488281</ele>
        <time>2011-07-30T08:20:42Z</time>
      </trkpt>
      <trkpt lat="45.4947" lon="6.73302">
        <ele>2651.1999511719</ele>
        <time>2011-07-30T08:20:50Z</time>
      </trkpt>
      <trkpt lat="45.49461" lon="6.73306">
        <ele>2652.8000488281</ele>
        <time>2011-07-30T08:20:57Z</time>
      </trkpt>
      <trkpt lat="45.49451" lon="6.73311">
        <ele>2654</ele>
        <time>2011-07-30T08:21:05Z</time>
      </trkpt>
      <trkpt lat="45.49438" lon="6.73315">
        <ele>2655.3999023438</ele>
        <time>2011-07-30T08:21:14Z</time>
      </trkpt>
      <trkpt lat="45.49428" lon="6.73316">
        <ele>2657</ele>
        <time>2011-07-30T08:21:22Z</time>
      </trkpt>
      <trkpt lat="45.49414" lon="6.73319">
        <ele>2658.1999511719</ele>
        <time>2011-07-30T08:21:32Z</time>
      </trkpt>
      <trkpt lat="45.49406" lon="6.73321">
        <ele>2659.3999023438</ele>
        <time>2011-07-30T08:21:38Z</time>
      </trkpt>
      <trkpt lat="45.49397" lon="6.73324">
        <ele>2660</ele>
        <time>2011-07-30T08:21:46Z</time>
      </trkpt>
      <trkpt lat="45.49388" lon="6.73325">
        <ele>2661.6000976562</ele>
        <time>2011-07-30T08:21:54Z</time>
      </trkpt>
      <trkpt lat="45.49373" lon="6.73329">
        <ele>2662.8000488281</ele>
        <time>2011-07-30T08:22:05Z</time>
      </trkpt>
      <trkpt lat="45.49363" lon="6.73333">
        <ele>2663.8000488281</ele>
        <time>2011-07-30T08:22:13Z</time>
      </trkpt>
      <trkpt lat="45.49353" lon="6.73337">
        <ele>2665.3999023438</ele>
        <time>2011-07-30T08:22:21Z</time>
      </trkpt>
      <trkpt lat="45.49342" lon="6.73342">
        <ele>2667.1999511719</ele>
        <time>2011-07-30T08:22:30Z</time>
      </trkpt>
      <trkpt lat="45.49337" lon="6.73345">
        <ele>2668.6000976562</ele>
        <time>2011-07-30T08:22:36Z</time>
      </trkpt>
      <trkpt lat="45.49326" lon="6.7335">
        <ele>2670.1999511719</ele>
        <time>2011-07-30T08:22:43Z</time>
      </trkpt>
      <trkpt lat="45.49313" lon="6.73355">
        <ele>2672.6000976562</ele>
        <time>2011-07-30T08:22:53Z</time>
      </trkpt>
      <trkpt lat="45.49301" lon="6.73363">
        <ele>2674.1999511719</ele>
        <time>2011-07-30T08:23:02Z</time>
      </trkpt>
      <trkpt lat="45.49294" lon="6.73369">
        <ele>2675.8000488281</ele>
        <time>2011-07-30T08:23:09Z</time>
      </trkpt>
      <trkpt lat="45.49286" lon="6.73375">
        <ele>2677.1999511719</ele>
        <time>2011-07-30T08:23:16Z</time>
      </trkpt>
      <trkpt lat="45.49277" lon="6.7338">
        <ele>2678.3999023438</ele>
        <time>2011-07-30T08:23:23Z</time>
      </trkpt>
      <trkpt lat="45.49266" lon="6.73388">
        <ele>2680.1999511719</ele>
        <time>2011-07-30T08:23:32Z</time>
      </trkpt>
      <trkpt lat="45.49257" lon="6.73395">
        <ele>2681.6000976562</ele>
        <time>2011-07-30T08:23:40Z</time>
      </trkpt>
      <trkpt lat="45.49249" lon="6.73402">
        <ele>2683</ele>
        <time>2011-07-30T08:23:47Z</time>
      </trkpt>
      <trkpt lat="45.49241" lon="6.7341">
        <ele>2685.3999023438</ele>
        <time>2011-07-30T08:23:55Z</time>
      </trkpt>
      <trkpt lat="45.49237" lon="6.73414">
        <ele>2686.8000488281</ele>
        <time>2011-07-30T08:23:59Z</time>
      </trkpt>
      <trkpt lat="45.49235" lon="6.73419">
        <ele>2688.1999511719</ele>
        <time>2011-07-30T08:24:03Z</time>
      </trkpt>
      <trkpt lat="45.49233" lon="6.7343">
        <ele>2690.8000488281</ele>
        <time>2011-07-30T08:24:10Z</time>
      </trkpt>
      <trkpt lat="45.49235" lon="6.73441">
        <ele>2693.1999511719</ele>
        <time>2011-07-30T08:24:17Z</time>
      </trkpt>
      <trkpt lat="45.49238" lon="6.73451">
        <ele>2695.6000976562</ele>
        <time>2011-07-30T08:24:24Z</time>
      </trkpt>
      <trkpt lat="45.49239" lon="6.73452">
        <ele>2695.8000488281</ele>
        <time>2011-07-30T08:24:25Z</time>
      </trkpt>
      <trkpt lat="45.4924" lon="6.73454">
        <ele>2696.6000976562</ele>
        <time>2011-07-30T08:24:28Z</time>
      </trkpt>
      <trkpt lat="45.49242" lon="6.73465">
        <ele>2698.1999511719</ele>
        <time>2011-07-30T08:24:34Z</time>
      </trkpt>
      <trkpt lat="45.49249" lon="6.73477">
        <ele>2699</ele>
        <time>2011-07-30T08:24:39Z</time>
      </trkpt>
      <trkpt lat="45.49252" lon="6.73481">
        <ele>2699.1999511719</ele>
        <time>2011-07-30T08:24:41Z</time>
      </trkpt>
      <trkpt lat="45.49257" lon="6.73492">
        <ele>2699.6000976562</ele>
        <time>2011-07-30T08:24:45Z</time>
      </trkpt>
      <trkpt lat="45.49262" lon="6.73513">
        <ele>2700</ele>
        <time>2011-07-30T08:24:51Z</time>
      </trkpt>
      <trkpt lat="45.49263" lon="6.73517">
        <ele>2700</ele>
        <time>2011-07-30T08:24:52Z</time>
      </trkpt>
      <trkpt lat="45.49249" lon="6.7352">
        <ele>2700</ele>
        <time>2011-07-30T08:24:56Z</time>
      </trkpt>
      <trkpt lat="45.49247" lon="6.73516">
        <ele>2700.1999511719</ele>
        <time>2011-07-30T08:24:57Z</time>
      </trkpt>
      <trkpt lat="45.49234" lon="6.73492">
        <ele>2700.1999511719</ele>
        <time>2011-07-30T08:25:03Z</time>
      </trkpt>
      <trkpt lat="45.49222" lon="6.73471">
        <ele>2700.1999511719</ele>
        <time>2011-07-30T08:25:09Z</time>
      </trkpt>
      <trkpt lat="45.4921" lon="6.73448">
        <ele>2699.3999023438</ele>
        <time>2011-07-30T08:25:16Z</time>
      </trkpt>
      <trkpt lat="45.49198" lon="6.73425">
        <ele>2698.8000488281</ele>
        <time>2011-07-30T08:25:23Z</time>
      </trkpt>
      <trkpt lat="45.49187" lon="6.73408">
        <ele>2698.1999511719</ele>
        <time>2011-07-30T08:25:28Z</time>
      </trkpt>
      <trkpt lat="45.49173" lon="6.73395">
        <ele>2697.3999023438</ele>
        <time>2011-07-30T08:25:33Z</time>
      </trkpt>
      <trkpt lat="45.4916" lon="6.73383">
        <ele>2696.6000976562</ele>
        <time>2011-07-30T08:25:38Z</time>
      </trkpt>
      <trkpt lat="45.49145" lon="6.73369">
        <ele>2695.3999023438</ele>
        <time>2011-07-30T08:25:44Z</time>
      </trkpt>
      <trkpt lat="45.49128" lon="6.73358">
        <ele>2694.1999511719</ele>
        <time>2011-07-30T08:25:50Z</time>
      </trkpt>
      <trkpt lat="45.49116" lon="6.73352">
        <ele>2693.3999023438</ele>
        <time>2011-07-30T08:25:54Z</time>
      </trkpt>
      <trkpt lat="45.49101" lon="6.73345">
        <ele>2692</ele>
        <time>2011-07-30T08:26:00Z</time>
      </trkpt>
      <trkpt lat="45.49099" lon="6.73344">
        <ele>2691.8000488281</ele>
        <time>2011-07-30T08:26:01Z</time>
      </trkpt>
      <trkpt lat="45.49083" lon="6.73333">
        <ele>2690.6000976562</ele>
        <time>2011-07-30T08:26:07Z</time>
      </trkpt>
      <trkpt lat="45.49067" lon="6.73318">
        <ele>2689</ele>
        <time>2011-07-30T08:26:14Z</time>
      </trkpt>
      <trkpt lat="45.49051" lon="6.73304">
        <ele>2687.6000976562</ele>
        <time>2011-07-30T08:26:20Z</time>
      </trkpt>
      <trkpt lat="45.49034" lon="6.73293">
        <ele>2685.8000488281</ele>
        <time>2011-07-30T08:26:26Z</time>
      </trkpt>
      <trkpt lat="45.49016" lon="6.73284">
        <ele>2684.1999511719</ele>
        <time>2011-07-30T08:26:32Z</time>
      </trkpt>
      <trkpt lat="45.48999" lon="6.73276">
        <ele>2682.8000488281</ele>
        <time>2011-07-30T08:26:37Z</time>
      </trkpt>
      <trkpt lat="45.48979" lon="6.7327">
        <ele>2680.8000488281</ele>
        <time>2011-07-30T08:26:43Z</time>
      </trkpt>
      <trkpt lat="45.48969" lon="6.73263">
        <ele>2679.3999023438</ele>
        <time>2011-07-30T08:26:47Z</time>
      </trkpt>
      <trkpt lat="45.48952" lon="6.73264">
        <ele>2677.1999511719</ele>
        <time>2011-07-30T08:26:53Z</time>
      </trkpt>
      <trkpt lat="45.4895" lon="6.73263">
        <ele>2675.1999511719</ele>
        <time>2011-07-30T08:26:58Z</time>
      </trkpt>
      <trkpt lat="45.48952" lon="6.73262">
        <ele>2669.1999511719</ele>
        <time>2011-07-30T08:27:24Z</time>
      </trkpt>
      <trkpt lat="45.48954" lon="6.73262">
        <ele>2667.6000976562</ele>
        <time>2011-07-30T08:27:36Z</time>
      </trkpt>
      <trkpt lat="45.48954" lon="6.73262">
        <ele>2666.8000488281</ele>
        <time>2011-07-30T08:27:42Z</time>
      </trkpt>
      <trkpt lat="45.48963" lon="6.73268">
        <ele>2666.6000976562</ele>
        <time>2011-07-30T08:27:46Z</time>
      </trkpt>
      <trkpt lat="45.48981" lon="6.73282">
        <ele>2666.3999023438</ele>
        <time>2011-07-30T08:27:52Z</time>
      </trkpt>
      <trkpt lat="45.48991" lon="6.73288">
        <ele>2666</ele>
        <time>2011-07-30T08:27:55Z</time>
      </trkpt>
      <trkpt lat="45.49004" lon="6.73301">
        <ele>2665.1999511719</ele>
        <time>2011-07-30T08:28:00Z</time>
      </trkpt>
      <trkpt lat="45.49023" lon="6.73313">
        <ele>2663.8000488281</ele>
        <time>2011-07-30T08:28:06Z</time>
      </trkpt>
      <trkpt lat="45.49025" lon="6.73315">
        <ele>2663.6000976562</ele>
        <time>2011-07-30T08:28:07Z</time>
      </trkpt>
      <trkpt lat="45.49017" lon="6.73326">
        <ele>2662.8000488281</ele>
        <time>2011-07-30T08:28:10Z</time>
      </trkpt>
      <trkpt lat="45.49003" lon="6.73321">
        <ele>2661.8000488281</ele>
        <time>2011-07-30T08:28:14Z</time>
      </trkpt>
      <trkpt lat="45.48999" lon="6.7332">
        <ele>2661.6000976562</ele>
        <time>2011-07-30T08:28:15Z</time>
      </trkpt>
      <trkpt lat="45.4898" lon="6.73317">
        <ele>2659.6000976562</ele>
        <time>2011-07-30T08:28:21Z</time>
      </trkpt>
      <trkpt lat="45.48976" lon="6.73319">
        <ele>2659.1999511719</ele>
        <time>2011-07-30T08:28:22Z</time>
      </trkpt>
      <trkpt lat="45.48973" lon="6.7333">
        <ele>2658.1999511719</ele>
        <time>2011-07-30T08:28:25Z</time>
      </trkpt>
      <trkpt lat="45.48979" lon="6.73336">
        <ele>2657.6000976562</ele>
        <time>2011-07-30T08:28:27Z</time>
      </trkpt>
      <trkpt lat="45.48996" lon="6.7335">
        <ele>2655.3999023438</ele>
        <time>2011-07-30T08:28:33Z</time>
      </trkpt>
      <trkpt lat="45.49007" lon="6.73361">
        <ele>2653.8000488281</ele>
        <time>2011-07-30T08:28:37Z</time>
      </trkpt>
      <trkpt lat="45.49022" lon="6.73377">
        <ele>2651</ele>
        <time>2011-07-30T08:28:43Z</time>
      </trkpt>
      <trkpt lat="45.49035" lon="6.73393">
        <ele>2648.3999023438</ele>
        <time>2011-07-30T08:28:49Z</time>
      </trkpt>
      <trkpt lat="45.49046" lon="6.73399">
        <ele>2646.3999023438</ele>
        <time>2011-07-30T08:28:53Z</time>
      </trkpt>
      <trkpt lat="45.49059" lon="6.73409">
        <ele>2644</ele>
        <time>2011-07-30T08:28:58Z</time>
      </trkpt>
      <trkpt lat="45.49071" lon="6.73421">
        <ele>2641.8000488281</ele>
        <time>2011-07-30T08:29:03Z</time>
      </trkpt>
      <trkpt lat="45.49087" lon="6.73439">
        <ele>2638.8000488281</ele>
        <time>2011-07-30T08:29:10Z</time>
      </trkpt>
      <trkpt lat="45.49097" lon="6.73453">
        <ele>2637</ele>
        <time>2011-07-30T08:29:15Z</time>
      </trkpt>
      <trkpt lat="45.49109" lon="6.73471">
        <ele>2635.1999511719</ele>
        <time>2011-07-30T08:29:21Z</time>
      </trkpt>
      <trkpt lat="45.49118" lon="6.73489">
        <ele>2633.3999023438</ele>
        <time>2011-07-30T08:29:26Z</time>
      </trkpt>
      <trkpt lat="45.49126" lon="6.73513">
        <ele>2631.6000976562</ele>
        <time>2011-07-30T08:29:32Z</time>
      </trkpt>
      <trkpt lat="45.49128" lon="6.73533">
        <ele>2630.3999023438</ele>
        <time>2011-07-30T08:29:37Z</time>
      </trkpt>
      <trkpt lat="45.4913" lon="6.73548">
        <ele>2629.3999023438</ele>
        <time>2011-07-30T08:29:41Z</time>
      </trkpt>
      <trkpt lat="45.49134" lon="6.7357">
        <ele>2628.1999511719</ele>
        <time>2011-07-30T08:29:47Z</time>
      </trkpt>
      <trkpt lat="45.49135" lon="6.73585">
        <ele>2627.6000976562</ele>
        <time>2011-07-30T08:29:51Z</time>
      </trkpt>
      <trkpt lat="45.49135" lon="6.73607">
        <ele>2626.6000976562</ele>
        <time>2011-07-30T08:29:57Z</time>
      </trkpt>
      <trkpt lat="45.49134" lon="6.7363">
        <ele>2625.6000976562</ele>
        <time>2011-07-30T08:30:03Z</time>
      </trkpt>
      <trkpt lat="45.49131" lon="6.73648">
        <ele>2624.8000488281</ele>
        <time>2011-07-30T08:30:08Z</time>
      </trkpt>
      <trkpt lat="45.49126" lon="6.73665">
        <ele>2623.8000488281</ele>
        <time>2011-07-30T08:30:13Z</time>
      </trkpt>
      <trkpt lat="45.49122" lon="6.73688">
        <ele>2622.8000488281</ele>
        <time>2011-07-30T08:30:19Z</time>
      </trkpt>
      <trkpt lat="45.49117" lon="6.73706">
        <ele>2621.8000488281</ele>
        <time>2011-07-30T08:30:24Z</time>
      </trkpt>
      <trkpt lat="45.49106" lon="6.73726">
        <ele>2620.8000488281</ele>
        <time>2011-07-30T08:30:30Z</time>
      </trkpt>
      <trkpt lat="45.49096" lon="6.7374">
        <ele>2619.8000488281</ele>
        <time>2011-07-30T08:30:35Z</time>
      </trkpt>
      <trkpt lat="45.49082" lon="6.73752">
        <ele>2618.6000976562</ele>
        <time>2011-07-30T08:30:41Z</time>
      </trkpt>
      <trkpt lat="45.49072" lon="6.73764">
        <ele>2617.6000976562</ele>
        <time>2011-07-30T08:30:46Z</time>
      </trkpt>
      <trkpt lat="45.4906" lon="6.73778">
        <ele>2616.1999511719</ele>
        <time>2011-07-30T08:30:52Z</time>
      </trkpt>
      <trkpt lat="45.49049" lon="6.73788">
        <ele>2615</ele>
        <time>2011-07-30T08:30:57Z</time>
      </trkpt>
      <trkpt lat="45.49037" lon="6.73795">
        <ele>2613.8000488281</ele>
        <time>2011-07-30T08:31:02Z</time>
      </trkpt>
      <trkpt lat="45.49024" lon="6.73802">
        <ele>2612.1999511719</ele>
        <time>2011-07-30T08:31:07Z</time>
      </trkpt>
      <trkpt lat="45.49012" lon="6.73812">
        <ele>2611.3999023438</ele>
        <time>2011-07-30T08:31:12Z</time>
      </trkpt>
      <trkpt lat="45.49002" lon="6.73818">
        <ele>2610.1999511719</ele>
        <time>2011-07-30T08:31:16Z</time>
      </trkpt>
      <trkpt lat="45.48989" lon="6.73822">
        <ele>2609.1999511719</ele>
        <time>2011-07-30T08:31:21Z</time>
      </trkpt>
      <trkpt lat="45.48977" lon="6.73819">
        <ele>2608.1999511719</ele>
        <time>2011-07-30T08:31:25Z</time>
      </trkpt>
      <trkpt lat="45.48962" lon="6.73815">
        <ele>2607.1999511719</ele>
        <time>2011-07-30T08:31:30Z</time>
      </trkpt>
      <trkpt lat="45.48949" lon="6.73808">
        <ele>2606</ele>
        <time>2011-07-30T08:31:35Z</time>
      </trkpt>
      <trkpt lat="45.48935" lon="6.73812">
        <ele>2604.8000488281</ele>
        <time>2011-07-30T08:31:40Z</time>
      </trkpt>
      <trkpt lat="45.48923" lon="6.73829">
        <ele>2603</ele>
        <time>2011-07-30T08:31:46Z</time>
      </trkpt>
      <trkpt lat="45.48915" lon="6.7385">
        <ele>2601</ele>
        <time>2011-07-30T08:31:52Z</time>
      </trkpt>
      <trkpt lat="45.48914" lon="6.73854">
        <ele>2600.6000976562</ele>
        <time>2011-07-30T08:31:53Z</time>
      </trkpt>
      <trkpt lat="45.48915" lon="6.73872">
        <ele>2599</ele>
        <time>2011-07-30T08:31:57Z</time>
      </trkpt>
      <trkpt lat="45.48914" lon="6.73898">
        <ele>2596.3999023438</ele>
        <time>2011-07-30T08:32:03Z</time>
      </trkpt>
      <trkpt lat="45.48909" lon="6.73921">
        <ele>2593.6000976562</ele>
        <time>2011-07-30T08:32:09Z</time>
      </trkpt>
      <trkpt lat="45.48905" lon="6.7395">
        <ele>2589.8000488281</ele>
        <time>2011-07-30T08:32:16Z</time>
      </trkpt>
      <trkpt lat="45.48899" lon="6.7397">
        <ele>2587</ele>
        <time>2011-07-30T08:32:21Z</time>
      </trkpt>
      <trkpt lat="45.48896" lon="6.73995">
        <ele>2583.6000976562</ele>
        <time>2011-07-30T08:32:27Z</time>
      </trkpt>
      <trkpt lat="45.48895" lon="6.74014">
        <ele>2581.8000488281</ele>
        <time>2011-07-30T08:32:31Z</time>
      </trkpt>
      <trkpt lat="45.48894" lon="6.74035">
        <ele>2579.6000976562</ele>
        <time>2011-07-30T08:32:36Z</time>
      </trkpt>
      <trkpt lat="45.48882" lon="6.74058">
        <ele>2577</ele>
        <time>2011-07-30T08:32:42Z</time>
      </trkpt>
      <trkpt lat="45.48872" lon="6.74074">
        <ele>2575</ele>
        <time>2011-07-30T08:32:47Z</time>
      </trkpt>
      <trkpt lat="45.4886" lon="6.74084">
        <ele>2573.1999511719</ele>
        <time>2011-07-30T08:32:51Z</time>
      </trkpt>
      <trkpt lat="45.48843" lon="6.741">
        <ele>2570.1999511719</ele>
        <time>2011-07-30T08:32:57Z</time>
      </trkpt>
      <trkpt lat="45.48827" lon="6.74109">
        <ele>2567.8000488281</ele>
        <time>2011-07-30T08:33:02Z</time>
      </trkpt>
      <trkpt lat="45.48812" lon="6.74116">
        <ele>2565.3999023438</ele>
        <time>2011-07-30T08:33:07Z</time>
      </trkpt>
      <trkpt lat="45.48804" lon="6.74119">
        <ele>2564</ele>
        <time>2011-07-30T08:33:10Z</time>
      </trkpt>
      <trkpt lat="45.48797" lon="6.74122">
        <ele>2562.1999511719</ele>
        <time>2011-07-30T08:33:14Z</time>
      </trkpt>
      <trkpt lat="45.48792" lon="6.74125">
        <ele>2561.1999511719</ele>
        <time>2011-07-30T08:33:16Z</time>
      </trkpt>
      <trkpt lat="45.48776" lon="6.74138">
        <ele>2558.1999511719</ele>
        <time>2011-07-30T08:33:23Z</time>
      </trkpt>
      <trkpt lat="45.48764" lon="6.74152">
        <ele>2556.6000976562</ele>
        <time>2011-07-30T08:33:28Z</time>
      </trkpt>
      <trkpt lat="45.48751" lon="6.74164">
        <ele>2555</ele>
        <time>2011-07-30T08:33:33Z</time>
      </trkpt>
      <trkpt lat="45.48734" lon="6.74174">
        <ele>2552.8000488281</ele>
        <time>2011-07-30T08:33:39Z</time>
      </trkpt>
      <trkpt lat="45.4872" lon="6.74185">
        <ele>2550.6000976562</ele>
        <time>2011-07-30T08:33:45Z</time>
      </trkpt>
      <trkpt lat="45.48707" lon="6.74197">
        <ele>2549</ele>
        <time>2011-07-30T08:33:50Z</time>
      </trkpt>
      <trkpt lat="45.48691" lon="6.74206">
        <ele>2547</ele>
        <time>2011-07-30T08:33:56Z</time>
      </trkpt>
      <trkpt lat="45.48674" lon="6.74217">
        <ele>2545</ele>
        <time>2011-07-30T08:34:02Z</time>
      </trkpt>
      <trkpt lat="45.48661" lon="6.74236">
        <ele>2543.6000976562</ele>
        <time>2011-07-30T08:34:09Z</time>
      </trkpt>
      <trkpt lat="45.48647" lon="6.74247">
        <ele>2542.1999511719</ele>
        <time>2011-07-30T08:34:14Z</time>
      </trkpt>
      <trkpt lat="45.48632" lon="6.74255">
        <ele>2540.8000488281</ele>
        <time>2011-07-30T08:34:20Z</time>
      </trkpt>
      <trkpt lat="45.48614" lon="6.7426">
        <ele>2539.1999511719</ele>
        <time>2011-07-30T08:34:27Z</time>
      </trkpt>
      <trkpt lat="45.48597" lon="6.74265">
        <ele>2537.3999023438</ele>
        <time>2011-07-30T08:34:33Z</time>
      </trkpt>
      <trkpt lat="45.48589" lon="6.7427">
        <ele>2536.8000488281</ele>
        <time>2011-07-30T08:34:36Z</time>
      </trkpt>
      <trkpt lat="45.48584" lon="6.74279">
        <ele>2535.8000488281</ele>
        <time>2011-07-30T08:34:39Z</time>
      </trkpt>
      <trkpt lat="45.48591" lon="6.74306">
        <ele>2534</ele>
        <time>2011-07-30T08:34:46Z</time>
      </trkpt>
      <trkpt lat="45.48601" lon="6.74313">
        <ele>2533</ele>
        <time>2011-07-30T08:34:50Z</time>
      </trkpt>
      <trkpt lat="45.48621" lon="6.74315">
        <ele>2530.8000488281</ele>
        <time>2011-07-30T08:34:56Z</time>
      </trkpt>
      <trkpt lat="45.48637" lon="6.74318">
        <ele>2529</ele>
        <time>2011-07-30T08:35:01Z</time>
      </trkpt>
      <trkpt lat="45.48657" lon="6.74318">
        <ele>2527</ele>
        <time>2011-07-30T08:35:07Z</time>
      </trkpt>
      <trkpt lat="45.48674" lon="6.74319">
        <ele>2525.1999511719</ele>
        <time>2011-07-30T08:35:12Z</time>
      </trkpt>
      <trkpt lat="45.4869" lon="6.74321">
        <ele>2524</ele>
        <time>2011-07-30T08:35:17Z</time>
      </trkpt>
      <trkpt lat="45.48707" lon="6.74321">
        <ele>2522.1999511719</ele>
        <time>2011-07-30T08:35:23Z</time>
      </trkpt>
      <trkpt lat="45.48716" lon="6.74317">
        <ele>2521</ele>
        <time>2011-07-30T08:35:27Z</time>
      </trkpt>
      <trkpt lat="45.48735" lon="6.74307">
        <ele>2519.6000976562</ele>
        <time>2011-07-30T08:35:34Z</time>
      </trkpt>
      <trkpt lat="45.48748" lon="6.74301">
        <ele>2518.3999023438</ele>
        <time>2011-07-30T08:35:39Z</time>
      </trkpt>
      <trkpt lat="45.48762" lon="6.74303">
        <ele>2517.6000976562</ele>
        <time>2011-07-30T08:35:44Z</time>
      </trkpt>
      <trkpt lat="45.48763" lon="6.74303">
        <ele>2517.3999023438</ele>
        <time>2011-07-30T08:35:45Z</time>
      </trkpt>
      <trkpt lat="45.48774" lon="6.74294">
        <ele>2517</ele>
        <time>2011-07-30T08:35:50Z</time>
      </trkpt>
      <trkpt lat="45.48775" lon="6.74292">
        <ele>2517</ele>
        <time>2011-07-30T08:35:51Z</time>
      </trkpt>
      <trkpt lat="45.48778" lon="6.7429">
        <ele>2516.8000488281</ele>
        <time>2011-07-30T08:35:52Z</time>
      </trkpt>
      <trkpt lat="45.48789" lon="6.74287">
        <ele>2516.6000976562</ele>
        <time>2011-07-30T08:35:56Z</time>
      </trkpt>
      <trkpt lat="45.48808" lon="6.74278">
        <ele>2516.6000976562</ele>
        <time>2011-07-30T08:36:04Z</time>
      </trkpt>
      <trkpt lat="45.48816" lon="6.74274">
        <ele>2516.3999023438</ele>
        <time>2011-07-30T08:36:07Z</time>
      </trkpt>
      <trkpt lat="45.4883" lon="6.74265">
        <ele>2516.3999023438</ele>
        <time>2011-07-30T08:36:13Z</time>
      </trkpt>
      <trkpt lat="45.48845" lon="6.74263">
        <ele>2515.8000488281</ele>
        <time>2011-07-30T08:36:19Z</time>
      </trkpt>
      <trkpt lat="45.48861" lon="6.74269">
        <ele>2515</ele>
        <time>2011-07-30T08:36:26Z</time>
      </trkpt>
      <trkpt lat="45.48876" lon="6.74269">
        <ele>2514.8000488281</ele>
        <time>2011-07-30T08:36:32Z</time>
      </trkpt>
      <trkpt lat="45.48885" lon="6.74271">
        <ele>2514.6000976562</ele>
        <time>2011-07-30T08:36:35Z</time>
      </trkpt>
      <trkpt lat="45.4889" lon="6.74287">
        <ele>2514.3999023438</ele>
        <time>2011-07-30T08:36:41Z</time>
      </trkpt>
      <trkpt lat="45.48885" lon="6.74307">
        <ele>2514.3999023438</ele>
        <time>2011-07-30T08:36:47Z</time>
      </trkpt>
      <trkpt lat="45.48883" lon="6.74319">
        <ele>2514.3999023438</ele>
        <time>2011-07-30T08:36:51Z</time>
      </trkpt>
      <trkpt lat="45.4889" lon="6.74332">
        <ele>2514.3999023438</ele>
        <time>2011-07-30T08:36:56Z</time>
      </trkpt>
      <trkpt lat="45.48891" lon="6.74333">
        <ele>2514.3999023438</ele>
        <time>2011-07-30T08:36:57Z</time>
      </trkpt>
      <trkpt lat="45.48905" lon="6.74339">
        <ele>2514.3999023438</ele>
        <time>2011-07-30T08:37:03Z</time>
      </trkpt>
      <trkpt lat="45.48914" lon="6.74344">
        <ele>2514.3999023438</ele>
        <time>2011-07-30T08:37:09Z</time>
      </trkpt>
      <trkpt lat="45.48923" lon="6.74345">
        <ele>2514.3999023438</ele>
        <time>2011-07-30T08:37:15Z</time>
      </trkpt>
      <trkpt lat="45.48925" lon="6.74345">
        <ele>2514.1999511719</ele>
        <time>2011-07-30T08:37:16Z</time>
      </trkpt>
      <trkpt lat="45.48927" lon="6.74346">
        <ele>2513.8000488281</ele>
        <time>2011-07-30T08:37:18Z</time>
      </trkpt>
      <trkpt lat="45.48936" lon="6.74345">
        <ele>2513</ele>
        <time>2011-07-30T08:37:25Z</time>
      </trkpt>
      <trkpt lat="45.48946" lon="6.74346">
        <ele>2512.6000976562</ele>
        <time>2011-07-30T08:37:32Z</time>
      </trkpt>
      <trkpt lat="45.48953" lon="6.74357">
        <ele>2512.3999023438</ele>
        <time>2011-07-30T08:37:39Z</time>
      </trkpt>
      <trkpt lat="45.48957" lon="6.74373">
        <ele>2512.3999023438</ele>
        <time>2011-07-30T08:37:47Z</time>
      </trkpt>
      <trkpt lat="45.48962" lon="6.74382">
        <ele>2512.3999023438</ele>
        <time>2011-07-30T08:37:52Z</time>
      </trkpt>
      <trkpt lat="45.48968" lon="6.74394">
        <ele>2511.6000976562</ele>
        <time>2011-07-30T08:37:59Z</time>
      </trkpt>
      <trkpt lat="45.48973" lon="6.74405">
        <ele>2511</ele>
        <time>2011-07-30T08:38:05Z</time>
      </trkpt>
      <trkpt lat="45.48983" lon="6.74415">
        <ele>2510.8000488281</ele>
        <time>2011-07-30T08:38:10Z</time>
      </trkpt>
      <trkpt lat="45.48996" lon="6.74426">
        <ele>2510.6000976562</ele>
        <time>2011-07-30T08:38:16Z</time>
      </trkpt>
      <trkpt lat="45.4901" lon="6.74431">
        <ele>2510.3999023438</ele>
        <time>2011-07-30T08:38:22Z</time>
      </trkpt>
      <trkpt lat="45.4902" lon="6.74441">
        <ele>2510.3999023438</ele>
        <time>2011-07-30T08:38:27Z</time>
      </trkpt>
      <trkpt lat="45.49032" lon="6.74458">
        <ele>2510.3999023438</ele>
        <time>2011-07-30T08:38:33Z</time>
      </trkpt>
      <trkpt lat="45.49047" lon="6.74477">
        <ele>2510.1999511719</ele>
        <time>2011-07-30T08:38:40Z</time>
      </trkpt>
      <trkpt lat="45.49061" lon="6.7449">
        <ele>2510.1999511719</ele>
        <time>2011-07-30T08:38:46Z</time>
      </trkpt>
      <trkpt lat="45.49076" lon="6.74498">
        <ele>2510.1999511719</ele>
        <time>2011-07-30T08:38:52Z</time>
      </trkpt>
      <trkpt lat="45.49084" lon="6.74507">
        <ele>2510.1999511719</ele>
        <time>2011-07-30T08:38:56Z</time>
      </trkpt>
      <trkpt lat="45.49094" lon="6.74528">
        <ele>2510.1999511719</ele>
        <time>2011-07-30T08:39:02Z</time>
      </trkpt>
      <trkpt lat="45.49102" lon="6.74551">
        <ele>2510.1999511719</ele>
        <time>2011-07-30T08:39:08Z</time>
      </trkpt>
      <trkpt lat="45.4911" lon="6.74572">
        <ele>2510.1999511719</ele>
        <time>2011-07-30T08:39:14Z</time>
      </trkpt>
      <trkpt lat="45.49118" lon="6.74594">
        <ele>2510.1999511719</ele>
        <time>2011-07-30T08:39:20Z</time>
      </trkpt>
      <trkpt lat="45.49128" lon="6.74615">
        <ele>2510.1999511719</ele>
        <time>2011-07-30T08:39:27Z</time>
      </trkpt>
      <trkpt lat="45.49139" lon="6.74633">
        <ele>2510.1999511719</ele>
        <time>2011-07-30T08:39:32Z</time>
      </trkpt>
      <trkpt lat="45.49154" lon="6.74653">
        <ele>2510.1999511719</ele>
        <time>2011-07-30T08:39:39Z</time>
      </trkpt>
      <trkpt lat="45.49156" lon="6.74655">
        <ele>2510.1999511719</ele>
        <time>2011-07-30T08:39:40Z</time>
      </trkpt>
      <trkpt lat="45.49158" lon="6.74656">
        <ele>2509.8000488281</ele>
        <time>2011-07-30T08:39:46Z</time>
      </trkpt>
      <trkpt lat="45.49159" lon="6.74655">
        <ele>2506.8000488281</ele>
        <time>2011-07-30T08:40:09Z</time>
      </trkpt>
      <trkpt lat="45.49159" lon="6.74655">
        <ele>2506.6000976562</ele>
        <time>2011-07-30T08:40:17Z</time>
      </trkpt>
      <trkpt lat="45.49158" lon="6.74657">
        <ele>2504.6000976562</ele>
        <time>2011-07-30T08:40:34Z</time>
      </trkpt>
      <trkpt lat="45.49158" lon="6.74658">
        <ele>2504.3999023438</ele>
        <time>2011-07-30T08:40:40Z</time>
      </trkpt>
      <trkpt lat="45.49157" lon="6.74654">
        <ele>2504.1999511719</ele>
        <time>2011-07-30T08:41:03Z</time>
      </trkpt>
      <trkpt lat="45.49159" lon="6.74654">
        <ele>2504.1999511719</ele>
        <time>2011-07-30T08:41:13Z</time>
      </trkpt>
      <trkpt lat="45.49158" lon="6.74657">
        <ele>2504.1999511719</ele>
        <time>2011-07-30T08:41:28Z</time>
      </trkpt>
      <trkpt lat="45.49157" lon="6.74657">
        <ele>2504.1999511719</ele>
        <time>2011-07-30T08:41:36Z</time>
      </trkpt>
      <trkpt lat="45.49158" lon="6.74657">
        <ele>2504.1999511719</ele>
        <time>2011-07-30T08:41:41Z</time>
      </trkpt>
      <trkpt lat="45.49159" lon="6.74653">
        <ele>2504.1999511719</ele>
        <time>2011-07-30T08:41:46Z</time>
      </trkpt>
      <trkpt lat="45.49165" lon="6.74647">
        <ele>2503.3999023438</ele>
        <time>2011-07-30T08:41:51Z</time>
      </trkpt>
      <trkpt lat="45.49183" lon="6.74629">
        <ele>2502.8000488281</ele>
        <time>2011-07-30T08:41:56Z</time>
      </trkpt>
      <trkpt lat="45.49193" lon="6.74611">
        <ele>2502.1999511719</ele>
        <time>2011-07-30T08:42:00Z</time>
      </trkpt>
      <trkpt lat="45.49202" lon="6.74592">
        <ele>2501.3999023438</ele>
        <time>2011-07-30T08:42:04Z</time>
      </trkpt>
      <trkpt lat="45.49207" lon="6.74582">
        <ele>2500.6000976562</ele>
        <time>2011-07-30T08:42:06Z</time>
      </trkpt>
      <trkpt lat="45.49216" lon="6.74569">
        <ele>2499.8000488281</ele>
        <time>2011-07-30T08:42:09Z</time>
      </trkpt>
      <trkpt lat="45.49224" lon="6.74547">
        <ele>2498.3999023438</ele>
        <time>2011-07-30T08:42:13Z</time>
      </trkpt>
      <trkpt lat="45.49231" lon="6.74532">
        <ele>2497.1999511719</ele>
        <time>2011-07-30T08:42:16Z</time>
      </trkpt>
      <trkpt lat="45.49241" lon="6.74516">
        <ele>2495.8000488281</ele>
        <time>2011-07-30T08:42:20Z</time>
      </trkpt>
      <trkpt lat="45.49259" lon="6.74495">
        <ele>2493.1999511719</ele>
        <time>2011-07-30T08:42:26Z</time>
      </trkpt>
      <trkpt lat="45.49277" lon="6.74477">
        <ele>2490.8000488281</ele>
        <time>2011-07-30T08:42:31Z</time>
      </trkpt>
      <trkpt lat="45.49281" lon="6.74474">
        <ele>2490.3999023438</ele>
        <time>2011-07-30T08:42:32Z</time>
      </trkpt>
      <trkpt lat="45.49295" lon="6.74459">
        <ele>2488.3999023438</ele>
        <time>2011-07-30T08:42:36Z</time>
      </trkpt>
      <trkpt lat="45.49298" lon="6.74455">
        <ele>2487.6000976562</ele>
        <time>2011-07-30T08:42:37Z</time>
      </trkpt>
      <trkpt lat="45.49303" lon="6.74446">
        <ele>2486.6000976562</ele>
        <time>2011-07-30T08:42:39Z</time>
      </trkpt>
      <trkpt lat="45.49314" lon="6.74434">
        <ele>2484.1999511719</ele>
        <time>2011-07-30T08:42:43Z</time>
      </trkpt>
      <trkpt lat="45.49316" lon="6.74431">
        <ele>2483.6000976562</ele>
        <time>2011-07-30T08:42:44Z</time>
      </trkpt>
      <trkpt lat="45.49332" lon="6.74407">
        <ele>2479.1999511719</ele>
        <time>2011-07-30T08:42:51Z</time>
      </trkpt>
      <trkpt lat="45.49342" lon="6.74397">
        <ele>2476.8000488281</ele>
        <time>2011-07-30T08:42:55Z</time>
      </trkpt>
      <trkpt lat="45.49359" lon="6.74385">
        <ele>2473</ele>
        <time>2011-07-30T08:43:01Z</time>
      </trkpt>
      <trkpt lat="45.49377" lon="6.74372">
        <ele>2468.6000976562</ele>
        <time>2011-07-30T08:43:08Z</time>
      </trkpt>
      <trkpt lat="45.49393" lon="6.74356">
        <ele>2465.1999511719</ele>
        <time>2011-07-30T08:43:14Z</time>
      </trkpt>
      <trkpt lat="45.49406" lon="6.74343">
        <ele>2462.1999511719</ele>
        <time>2011-07-30T08:43:19Z</time>
      </trkpt>
      <trkpt lat="45.49422" lon="6.7433">
        <ele>2458.8000488281</ele>
        <time>2011-07-30T08:43:25Z</time>
      </trkpt>
      <trkpt lat="45.49435" lon="6.74319">
        <ele>2456.1999511719</ele>
        <time>2011-07-30T08:43:30Z</time>
      </trkpt>
      <trkpt lat="45.49448" lon="6.7431">
        <ele>2453</ele>
        <time>2011-07-30T08:43:35Z</time>
      </trkpt>
      <trkpt lat="45.49465" lon="6.743">
        <ele>2448.8000488281</ele>
        <time>2011-07-30T08:43:41Z</time>
      </trkpt>
      <trkpt lat="45.49482" lon="6.74288">
        <ele>2444.6000976562</ele>
        <time>2011-07-30T08:43:47Z</time>
      </trkpt>
      <trkpt lat="45.49495" lon="6.74284">
        <ele>2441.6000976562</ele>
        <time>2011-07-30T08:43:51Z</time>
      </trkpt>
      <trkpt lat="45.495" lon="6.74286">
        <ele>2440.3999023438</ele>
        <time>2011-07-30T08:43:53Z</time>
      </trkpt>
      <trkpt lat="45.49506" lon="6.74278">
        <ele>2437.8000488281</ele>
        <time>2011-07-30T08:43:57Z</time>
      </trkpt>
      <trkpt lat="45.49504" lon="6.7427">
        <ele>2436.1999511719</ele>
        <time>2011-07-30T08:43:59Z</time>
      </trkpt>
      <trkpt lat="45.49498" lon="6.74266">
        <ele>2435</ele>
        <time>2011-07-30T08:44:01Z</time>
      </trkpt>
      <trkpt lat="45.49482" lon="6.74258">
        <ele>2432</ele>
        <time>2011-07-30T08:44:06Z</time>
      </trkpt>
      <trkpt lat="45.49467" lon="6.74241">
        <ele>2428.8000488281</ele>
        <time>2011-07-30T08:44:12Z</time>
      </trkpt>
      <trkpt lat="45.49454" lon="6.74229">
        <ele>2426.3999023438</ele>
        <time>2011-07-30T08:44:17Z</time>
      </trkpt>
      <trkpt lat="45.49452" lon="6.74226">
        <ele>2426.1999511719</ele>
        <time>2011-07-30T08:44:18Z</time>
      </trkpt>
      <trkpt lat="45.49456" lon="6.74216">
        <ele>2425</ele>
        <time>2011-07-30T08:44:21Z</time>
      </trkpt>
      <trkpt lat="45.49461" lon="6.74211">
        <ele>2424.1999511719</ele>
        <time>2011-07-30T08:44:23Z</time>
      </trkpt>
      <trkpt lat="45.49473" lon="6.74205">
        <ele>2422.8000488281</ele>
        <time>2011-07-30T08:44:27Z</time>
      </trkpt>
      <trkpt lat="45.49479" lon="6.74203">
        <ele>2422.1999511719</ele>
        <time>2011-07-30T08:44:29Z</time>
      </trkpt>
      <trkpt lat="45.49495" lon="6.74197">
        <ele>2420.6000976562</ele>
        <time>2011-07-30T08:44:34Z</time>
      </trkpt>
      <trkpt lat="45.49515" lon="6.74191">
        <ele>2418.8000488281</ele>
        <time>2011-07-30T08:44:40Z</time>
      </trkpt>
      <trkpt lat="45.49529" lon="6.74186">
        <ele>2417.3999023438</ele>
        <time>2011-07-30T08:44:45Z</time>
      </trkpt>
      <trkpt lat="45.49547" lon="6.74178">
        <ele>2416</ele>
        <time>2011-07-30T08:44:51Z</time>
      </trkpt>
      <trkpt lat="45.49561" lon="6.74167">
        <ele>2414.6000976562</ele>
        <time>2011-07-30T08:44:56Z</time>
      </trkpt>
      <trkpt lat="45.49578" lon="6.74167">
        <ele>2413.3999023438</ele>
        <time>2011-07-30T08:45:01Z</time>
      </trkpt>
      <trkpt lat="45.49596" lon="6.74162">
        <ele>2411.8000488281</ele>
        <time>2011-07-30T08:45:07Z</time>
      </trkpt>
      <trkpt lat="45.49613" lon="6.74156">
        <ele>2410.3999023438</ele>
        <time>2011-07-30T08:45:13Z</time>
      </trkpt>
      <trkpt lat="45.49623" lon="6.74154">
        <ele>2409.1999511719</ele>
        <time>2011-07-30T08:45:17Z</time>
      </trkpt>
      <trkpt lat="45.49638" lon="6.74152">
        <ele>2407.6000976562</ele>
        <time>2011-07-30T08:45:22Z</time>
      </trkpt>
      <trkpt lat="45.4965" lon="6.74146">
        <ele>2406.1999511719</ele>
        <time>2011-07-30T08:45:26Z</time>
      </trkpt>
      <trkpt lat="45.49664" lon="6.74145">
        <ele>2404.6000976562</ele>
        <time>2011-07-30T08:45:30Z</time>
      </trkpt>
      <trkpt lat="45.49681" lon="6.74144">
        <ele>2402.8000488281</ele>
        <time>2011-07-30T08:45:35Z</time>
      </trkpt>
      <trkpt lat="45.49696" lon="6.74139">
        <ele>2401</ele>
        <time>2011-07-30T08:45:40Z</time>
      </trkpt>
      <trkpt lat="45.49711" lon="6.74136">
        <ele>2399.1999511719</ele>
        <time>2011-07-30T08:45:45Z</time>
      </trkpt>
      <trkpt lat="45.49725" lon="6.74133">
        <ele>2397.1999511719</ele>
        <time>2011-07-30T08:45:50Z</time>
      </trkpt>
      <trkpt lat="45.49744" lon="6.74133">
        <ele>2394.3999023438</ele>
        <time>2011-07-30T08:45:56Z</time>
      </trkpt>
      <trkpt lat="45.49758" lon="6.74145">
        <ele>2391.6000976562</ele>
        <time>2011-07-30T08:46:01Z</time>
      </trkpt>
      <trkpt lat="45.4977" lon="6.74149">
        <ele>2389</ele>
        <time>2011-07-30T08:46:05Z</time>
      </trkpt>
      <trkpt lat="45.49784" lon="6.74155">
        <ele>2385.8000488281</ele>
        <time>2011-07-30T08:46:10Z</time>
      </trkpt>
      <trkpt lat="45.49786" lon="6.74155">
        <ele>2385</ele>
        <time>2011-07-30T08:46:11Z</time>
      </trkpt>
      <trkpt lat="45.49787" lon="6.74154">
        <ele>2381</ele>
        <time>2011-07-30T08:46:16Z</time>
      </trkpt>
      <trkpt lat="45.49794" lon="6.74162">
        <ele>2376.1999511719</ele>
        <time>2011-07-30T08:46:21Z</time>
      </trkpt>
      <trkpt lat="45.49798" lon="6.74164">
        <ele>2374</ele>
        <time>2011-07-30T08:46:23Z</time>
      </trkpt>
      <trkpt lat="45.4981" lon="6.74171">
        <ele>2366.1999511719</ele>
        <time>2011-07-30T08:46:30Z</time>
      </trkpt>
      <trkpt lat="45.49818" lon="6.74176">
        <ele>2360.3999023438</ele>
        <time>2011-07-30T08:46:35Z</time>
      </trkpt>
      <trkpt lat="45.49829" lon="6.74187">
        <ele>2353.6000976562</ele>
        <time>2011-07-30T08:46:41Z</time>
      </trkpt>
      <trkpt lat="45.49838" lon="6.74191">
        <ele>2348</ele>
        <time>2011-07-30T08:46:46Z</time>
      </trkpt>
      <trkpt lat="45.49848" lon="6.74196">
        <ele>2340.6000976562</ele>
        <time>2011-07-30T08:46:53Z</time>
      </trkpt>
      <trkpt lat="45.49857" lon="6.74198">
        <ele>2335.6000976562</ele>
        <time>2011-07-30T08:46:58Z</time>
      </trkpt>
      <trkpt lat="45.49865" lon="6.74196">
        <ele>2332.8000488281</ele>
        <time>2011-07-30T08:47:01Z</time>
      </trkpt>
      <trkpt lat="45.49879" lon="6.74185">
        <ele>2327.6000976562</ele>
        <time>2011-07-30T08:47:07Z</time>
      </trkpt>
      <trkpt lat="45.4989" lon="6.74175">
        <ele>2324</ele>
        <time>2011-07-30T08:47:12Z</time>
      </trkpt>
      <trkpt lat="45.49903" lon="6.7416">
        <ele>2319.8000488281</ele>
        <time>2011-07-30T08:47:18Z</time>
      </trkpt>
      <trkpt lat="45.49912" lon="6.74144">
        <ele>2316.6000976562</ele>
        <time>2011-07-30T08:47:23Z</time>
      </trkpt>
      <trkpt lat="45.49914" lon="6.74135">
        <ele>2314.8000488281</ele>
        <time>2011-07-30T08:47:26Z</time>
      </trkpt>
      <trkpt lat="45.49915" lon="6.74128">
        <ele>2313.1999511719</ele>
        <time>2011-07-30T08:47:29Z</time>
      </trkpt>
      <trkpt lat="45.49921" lon="6.74114">
        <ele>2310.3999023438</ele>
        <time>2011-07-30T08:47:34Z</time>
      </trkpt>
      <trkpt lat="45.49923" lon="6.74112">
        <ele>2309.8000488281</ele>
        <time>2011-07-30T08:47:35Z</time>
      </trkpt>
      <trkpt lat="45.49933" lon="6.74108">
        <ele>2307.1999511719</ele>
        <time>2011-07-30T08:47:40Z</time>
      </trkpt>
      <trkpt lat="45.49944" lon="6.74106">
        <ele>2305.1999511719</ele>
        <time>2011-07-30T08:47:44Z</time>
      </trkpt>
      <trkpt lat="45.49957" lon="6.74095">
        <ele>2302.3999023438</ele>
        <time>2011-07-30T08:47:50Z</time>
      </trkpt>
      <trkpt lat="45.49967" lon="6.74085">
        <ele>2300.1999511719</ele>
        <time>2011-07-30T08:47:55Z</time>
      </trkpt>
      <trkpt lat="45.49979" lon="6.74081">
        <ele>2298.6000976562</ele>
        <time>2011-07-30T08:47:59Z</time>
      </trkpt>
      <trkpt lat="45.49991" lon="6.74077">
        <ele>2296.6000976562</ele>
        <time>2011-07-30T08:48:04Z</time>
      </trkpt>
      <trkpt lat="45.5" lon="6.7407">
        <ele>2295</ele>
        <time>2011-07-30T08:48:08Z</time>
      </trkpt>
      <trkpt lat="45.50014" lon="6.74058">
        <ele>2292.6000976562</ele>
        <time>2011-07-30T08:48:14Z</time>
      </trkpt>
      <trkpt lat="45.50019" lon="6.74051">
        <ele>2291.3999023438</ele>
        <time>2011-07-30T08:48:17Z</time>
      </trkpt>
      <trkpt lat="45.50026" lon="6.74039">
        <ele>2288.6000976562</ele>
        <time>2011-07-30T08:48:23Z</time>
      </trkpt>
      <trkpt lat="45.50034" lon="6.7404">
        <ele>2287</ele>
        <time>2011-07-30T08:48:27Z</time>
      </trkpt>
      <trkpt lat="45.50051" lon="6.74037">
        <ele>2284.1999511719</ele>
        <time>2011-07-30T08:48:34Z</time>
      </trkpt>
      <trkpt lat="45.50064" lon="6.74034">
        <ele>2282.3999023438</ele>
        <time>2011-07-30T08:48:39Z</time>
      </trkpt>
      <trkpt lat="45.50077" lon="6.74034">
        <ele>2280.3999023438</ele>
        <time>2011-07-30T08:48:44Z</time>
      </trkpt>
      <trkpt lat="45.50086" lon="6.74032">
        <ele>2279</ele>
        <time>2011-07-30T08:48:48Z</time>
      </trkpt>
      <trkpt lat="45.50088" lon="6.74033">
        <ele>2278.6000976562</ele>
        <time>2011-07-30T08:48:49Z</time>
      </trkpt>
      <trkpt lat="45.50095" lon="6.74028">
        <ele>2276.8000488281</ele>
        <time>2011-07-30T08:48:54Z</time>
      </trkpt>
      <trkpt lat="45.50096" lon="6.74027">
        <ele>2276.3999023438</ele>
        <time>2011-07-30T08:48:55Z</time>
      </trkpt>
      <trkpt lat="45.50101" lon="6.74025">
        <ele>2274.8000488281</ele>
        <time>2011-07-30T08:48:59Z</time>
      </trkpt>
      <trkpt lat="45.50107" lon="6.74021">
        <ele>2273.1999511719</ele>
        <time>2011-07-30T08:49:03Z</time>
      </trkpt>
      <trkpt lat="45.50111" lon="6.7402">
        <ele>2272.3999023438</ele>
        <time>2011-07-30T08:49:05Z</time>
      </trkpt>
      <trkpt lat="45.50116" lon="6.74017">
        <ele>2270.3999023438</ele>
        <time>2011-07-30T08:49:09Z</time>
      </trkpt>
      <trkpt lat="45.50126" lon="6.74012">
        <ele>2268</ele>
        <time>2011-07-30T08:49:14Z</time>
      </trkpt>
      <trkpt lat="45.50132" lon="6.74003">
        <ele>2266.1999511719</ele>
        <time>2011-07-30T08:49:17Z</time>
      </trkpt>
      <trkpt lat="45.50141" lon="6.73985">
        <ele>2263</ele>
        <time>2011-07-30T08:49:23Z</time>
      </trkpt>
      <trkpt lat="45.50151" lon="6.73972">
        <ele>2260</ele>
        <time>2011-07-30T08:49:28Z</time>
      </trkpt>
      <trkpt lat="45.50154" lon="6.73969">
        <ele>2259.3999023438</ele>
        <time>2011-07-30T08:49:29Z</time>
      </trkpt>
      <trkpt lat="45.50162" lon="6.73965">
        <ele>2257.6000976562</ele>
        <time>2011-07-30T08:49:32Z</time>
      </trkpt>
      <trkpt lat="45.50169" lon="6.73962">
        <ele>2256.1999511719</ele>
        <time>2011-07-30T08:49:34Z</time>
      </trkpt>
      <trkpt lat="45.50175" lon="6.7396">
        <ele>2255</ele>
        <time>2011-07-30T08:49:36Z</time>
      </trkpt>
      <trkpt lat="45.50184" lon="6.73959">
        <ele>2253.1999511719</ele>
        <time>2011-07-30T08:49:39Z</time>
      </trkpt>
      <trkpt lat="45.50188" lon="6.73958">
        <ele>2252.6000976562</ele>
        <time>2011-07-30T08:49:40Z</time>
      </trkpt>
      <trkpt lat="45.50203" lon="6.73957">
        <ele>2249.8000488281</ele>
        <time>2011-07-30T08:49:45Z</time>
      </trkpt>
      <trkpt lat="45.50215" lon="6.7396">
        <ele>2247</ele>
        <time>2011-07-30T08:49:50Z</time>
      </trkpt>
      <trkpt lat="45.50229" lon="6.73962">
        <ele>2243.6000976562</ele>
        <time>2011-07-30T08:49:56Z</time>
      </trkpt>
      <trkpt lat="45.50238" lon="6.73963">
        <ele>2240.6000976562</ele>
        <time>2011-07-30T08:50:01Z</time>
      </trkpt>
      <trkpt lat="45.50249" lon="6.73969">
        <ele>2237.1999511719</ele>
        <time>2011-07-30T08:50:06Z</time>
      </trkpt>
      <trkpt lat="45.50262" lon="6.73972">
        <ele>2233.6000976562</ele>
        <time>2011-07-30T08:50:11Z</time>
      </trkpt>
      <trkpt lat="45.50272" lon="6.73971">
        <ele>2230.8000488281</ele>
        <time>2011-07-30T08:50:15Z</time>
      </trkpt>
      <trkpt lat="45.50275" lon="6.7397">
        <ele>2230</ele>
        <time>2011-07-30T08:50:16Z</time>
      </trkpt>
      <trkpt lat="45.50277" lon="6.7397">
        <ele>2229.1999511719</ele>
        <time>2011-07-30T08:50:17Z</time>
      </trkpt>
      <trkpt lat="45.50287" lon="6.7396">
        <ele>2225.6000976562</ele>
        <time>2011-07-30T08:50:22Z</time>
      </trkpt>
      <trkpt lat="45.50296" lon="6.7395">
        <ele>2222.8000488281</ele>
        <time>2011-07-30T08:50:26Z</time>
      </trkpt>
      <trkpt lat="45.50313" lon="6.73937">
        <ele>2218.3999023438</ele>
        <time>2011-07-30T08:50:33Z</time>
      </trkpt>
      <trkpt lat="45.5032" lon="6.7393">
        <ele>2215.8000488281</ele>
        <time>2011-07-30T08:50:37Z</time>
      </trkpt>
      <trkpt lat="45.5033" lon="6.73922">
        <ele>2212.1999511719</ele>
        <time>2011-07-30T08:50:42Z</time>
      </trkpt>
      <trkpt lat="45.50336" lon="6.7391">
        <ele>2208.3999023438</ele>
        <time>2011-07-30T08:50:47Z</time>
      </trkpt>
      <trkpt lat="45.50337" lon="6.739">
        <ele>2205</ele>
        <time>2011-07-30T08:50:51Z</time>
      </trkpt>
      <trkpt lat="45.50339" lon="6.73884">
        <ele>2200.8000488281</ele>
        <time>2011-07-30T08:50:56Z</time>
      </trkpt>
      <trkpt lat="45.50346" lon="6.73869">
        <ele>2195.8000488281</ele>
        <time>2011-07-30T08:51:02Z</time>
      </trkpt>
      <trkpt lat="45.50356" lon="6.73864">
        <ele>2191.6000976562</ele>
        <time>2011-07-30T08:51:07Z</time>
      </trkpt>
      <trkpt lat="45.50358" lon="6.73865">
        <ele>2191</ele>
        <time>2011-07-30T08:51:08Z</time>
      </trkpt>
      <trkpt lat="45.50367" lon="6.73865">
        <ele>2188.6000976562</ele>
        <time>2011-07-30T08:51:11Z</time>
      </trkpt>
      <trkpt lat="45.50369" lon="6.73866">
        <ele>2187.8000488281</ele>
        <time>2011-07-30T08:51:12Z</time>
      </trkpt>
      <trkpt lat="45.50384" lon="6.73869">
        <ele>2184.1999511719</ele>
        <time>2011-07-30T08:51:17Z</time>
      </trkpt>
      <trkpt lat="45.50402" lon="6.73868">
        <ele>2180.1999511719</ele>
        <time>2011-07-30T08:51:23Z</time>
      </trkpt>
      <trkpt lat="45.50416" lon="6.73864">
        <ele>2177.3999023438</ele>
        <time>2011-07-30T08:51:28Z</time>
      </trkpt>
      <trkpt lat="45.50426" lon="6.73859">
        <ele>2175</ele>
        <time>2011-07-30T08:51:32Z</time>
      </trkpt>
      <trkpt lat="45.50431" lon="6.73854">
        <ele>2172.6000976562</ele>
        <time>2011-07-30T08:51:36Z</time>
      </trkpt>
      <trkpt lat="45.50439" lon="6.73843">
        <ele>2169</ele>
        <time>2011-07-30T08:51:42Z</time>
      </trkpt>
      <trkpt lat="45.50441" lon="6.73842">
        <ele>2168.3999023438</ele>
        <time>2011-07-30T08:51:43Z</time>
      </trkpt>
      <trkpt lat="45.50448" lon="6.73839">
        <ele>2166.1999511719</ele>
        <time>2011-07-30T08:51:47Z</time>
      </trkpt>
      <trkpt lat="45.50451" lon="6.73838">
        <ele>2164.8000488281</ele>
        <time>2011-07-30T08:51:49Z</time>
      </trkpt>
      <trkpt lat="45.50453" lon="6.73837">
        <ele>2163.8000488281</ele>
        <time>2011-07-30T08:51:51Z</time>
      </trkpt>
      <trkpt lat="45.50458" lon="6.73834">
        <ele>2162</ele>
        <time>2011-07-30T08:51:54Z</time>
      </trkpt>
      <trkpt lat="45.50465" lon="6.73832">
        <ele>2159.8000488281</ele>
        <time>2011-07-30T08:51:58Z</time>
      </trkpt>
      <trkpt lat="45.50473" lon="6.73822">
        <ele>2157</ele>
        <time>2011-07-30T08:52:03Z</time>
      </trkpt>
      <trkpt lat="45.5048" lon="6.73815">
        <ele>2154.6000976562</ele>
        <time>2011-07-30T08:52:08Z</time>
      </trkpt>
      <trkpt lat="45.50481" lon="6.73813">
        <ele>2154</ele>
        <time>2011-07-30T08:52:09Z</time>
      </trkpt>
      <trkpt lat="45.50487" lon="6.7381">
        <ele>2152.6000976562</ele>
        <time>2011-07-30T08:52:12Z</time>
      </trkpt>
      <trkpt lat="45.50494" lon="6.73803">
        <ele>2150</ele>
        <time>2011-07-30T08:52:17Z</time>
      </trkpt>
      <trkpt lat="45.50501" lon="6.73804">
        <ele>2147.1999511719</ele>
        <time>2011-07-30T08:52:23Z</time>
      </trkpt>
      <trkpt lat="45.50506" lon="6.73803">
        <ele>2145.3999023438</ele>
        <time>2011-07-30T08:52:27Z</time>
      </trkpt>
      <trkpt lat="45.50515" lon="6.73801">
        <ele>2142.6000976562</ele>
        <time>2011-07-30T08:52:33Z</time>
      </trkpt>
      <trkpt lat="45.5052" lon="6.73804">
        <ele>2140.8000488281</ele>
        <time>2011-07-30T08:52:37Z</time>
      </trkpt>
      <trkpt lat="45.50521" lon="6.73805">
        <ele>2140.3999023438</ele>
        <time>2011-07-30T08:52:38Z</time>
      </trkpt>
      <trkpt lat="45.50528" lon="6.73814">
        <ele>2138.1999511719</ele>
        <time>2011-07-30T08:52:43Z</time>
      </trkpt>
      <trkpt lat="45.50531" lon="6.73821">
        <ele>2136.8000488281</ele>
        <time>2011-07-30T08:52:46Z</time>
      </trkpt>
      <trkpt lat="45.50541" lon="6.73822">
        <ele>2134.6000976562</ele>
        <time>2011-07-30T08:52:51Z</time>
      </trkpt>
      <trkpt lat="45.50544" lon="6.73821">
        <ele>2133.8000488281</ele>
        <time>2011-07-30T08:52:53Z</time>
      </trkpt>
      <trkpt lat="45.50552" lon="6.73822">
        <ele>2131.1999511719</ele>
        <time>2011-07-30T08:52:59Z</time>
      </trkpt>
      <trkpt lat="45.50553" lon="6.73822">
        <ele>2130.8000488281</ele>
        <time>2011-07-30T08:53:00Z</time>
      </trkpt>
      <trkpt lat="45.50558" lon="6.73813">
        <ele>2128.1999511719</ele>
        <time>2011-07-30T08:53:06Z</time>
      </trkpt>
      <trkpt lat="45.50564" lon="6.7382">
        <ele>2126.3999023438</ele>
        <time>2011-07-30T08:53:10Z</time>
      </trkpt>
      <trkpt lat="45.50573" lon="6.73831">
        <ele>2123.8000488281</ele>
        <time>2011-07-30T08:53:16Z</time>
      </trkpt>
      <trkpt lat="45.50573" lon="6.73834">
        <ele>2123.1999511719</ele>
        <time>2011-07-30T08:53:17Z</time>
      </trkpt>
      <trkpt lat="45.50582" lon="6.73848">
        <ele>2119.1999511719</ele>
        <time>2011-07-30T08:53:25Z</time>
      </trkpt>
      <trkpt lat="45.50583" lon="6.73848">
        <ele>2118.3999023438</ele>
        <time>2011-07-30T08:53:26Z</time>
      </trkpt>
      <trkpt lat="45.5059" lon="6.73845">
        <ele>2116.1999511719</ele>
        <time>2011-07-30T08:53:30Z</time>
      </trkpt>
      <trkpt lat="45.50592" lon="6.73829">
        <ele>2112.8000488281</ele>
        <time>2011-07-30T08:53:36Z</time>
      </trkpt>
      <trkpt lat="45.50594" lon="6.7382">
        <ele>2111.3999023438</ele>
        <time>2011-07-30T08:53:39Z</time>
      </trkpt>
      <trkpt lat="45.50602" lon="6.73818">
        <ele>2109.3999023438</ele>
        <time>2011-07-30T08:53:43Z</time>
      </trkpt>
      <trkpt lat="45.50608" lon="6.7383">
        <ele>2107.3999023438</ele>
        <time>2011-07-30T08:53:47Z</time>
      </trkpt>
      <trkpt lat="45.50609" lon="6.73832">
        <ele>2107</ele>
        <time>2011-07-30T08:53:48Z</time>
      </trkpt>
      <trkpt lat="45.50612" lon="6.73836">
        <ele>2106.1999511719</ele>
        <time>2011-07-30T08:53:50Z</time>
      </trkpt>
      <trkpt lat="45.5062" lon="6.73834">
        <ele>2104</ele>
        <time>2011-07-30T08:53:55Z</time>
      </trkpt>
      <trkpt lat="45.50625" lon="6.7382">
        <ele>2101.6000976562</ele>
        <time>2011-07-30T08:54:01Z</time>
      </trkpt>
      <trkpt lat="45.50628" lon="6.73808">
        <ele>2099.8000488281</ele>
        <time>2011-07-30T08:54:06Z</time>
      </trkpt>
      <trkpt lat="45.5063" lon="6.73806">
        <ele>2099.1999511719</ele>
        <time>2011-07-30T08:54:07Z</time>
      </trkpt>
      <trkpt lat="45.50632" lon="6.73809">
        <ele>2098.8000488281</ele>
        <time>2011-07-30T08:54:08Z</time>
      </trkpt>
      <trkpt lat="45.5064" lon="6.73819">
        <ele>2096.6000976562</ele>
        <time>2011-07-30T08:54:13Z</time>
      </trkpt>
      <trkpt lat="45.50642" lon="6.73828">
        <ele>2095.6000976562</ele>
        <time>2011-07-30T08:54:16Z</time>
      </trkpt>
      <trkpt lat="45.50644" lon="6.73831">
        <ele>2094.3999023438</ele>
        <time>2011-07-30T08:54:18Z</time>
      </trkpt>
      <trkpt lat="45.50648" lon="6.73828">
        <ele>2093</ele>
        <time>2011-07-30T08:54:21Z</time>
      </trkpt>
      <trkpt lat="45.50652" lon="6.73821">
        <ele>2091.6000976562</ele>
        <time>2011-07-30T08:54:24Z</time>
      </trkpt>
      <trkpt lat="45.50649" lon="6.73805">
        <ele>2089.1999511719</ele>
        <time>2011-07-30T08:54:29Z</time>
      </trkpt>
      <trkpt lat="45.50649" lon="6.73792">
        <ele>2087.1999511719</ele>
        <time>2011-07-30T08:54:33Z</time>
      </trkpt>
      <trkpt lat="45.50651" lon="6.73788">
        <ele>2086.8000488281</ele>
        <time>2011-07-30T08:54:34Z</time>
      </trkpt>
      <trkpt lat="45.50655" lon="6.73774">
        <ele>2084.3999023438</ele>
        <time>2011-07-30T08:54:39Z</time>
      </trkpt>
      <trkpt lat="45.50655" lon="6.73771">
        <ele>2083.8000488281</ele>
        <time>2011-07-30T08:54:40Z</time>
      </trkpt>
      <trkpt lat="45.50647" lon="6.73762">
        <ele>2081.8000488281</ele>
        <time>2011-07-30T08:54:44Z</time>
      </trkpt>
      <trkpt lat="45.50645" lon="6.73759">
        <ele>2081.1999511719</ele>
        <time>2011-07-30T08:54:45Z</time>
      </trkpt>
      <trkpt lat="45.50637" lon="6.7375">
        <ele>2079.8000488281</ele>
        <time>2011-07-30T08:54:48Z</time>
      </trkpt>
      <trkpt lat="45.50633" lon="6.73738">
        <ele>2078.3999023438</ele>
        <time>2011-07-30T08:54:51Z</time>
      </trkpt>
      <trkpt lat="45.50631" lon="6.73731">
        <ele>2077.6000976562</ele>
        <time>2011-07-30T08:54:53Z</time>
      </trkpt>
      <trkpt lat="45.50624" lon="6.73725">
        <ele>2075.3999023438</ele>
        <time>2011-07-30T08:54:58Z</time>
      </trkpt>
      <trkpt lat="45.50624" lon="6.73724">
        <ele>2075</ele>
        <time>2011-07-30T08:54:59Z</time>
      </trkpt>
      <trkpt lat="45.50623" lon="6.73722">
        <ele>2074.6000976562</ele>
        <time>2011-07-30T08:55:00Z</time>
      </trkpt>
      <trkpt lat="45.50619" lon="6.73712">
        <ele>2072.3999023438</ele>
        <time>2011-07-30T08:55:05Z</time>
      </trkpt>
      <trkpt lat="45.50625" lon="6.73706">
        <ele>2070.6000976562</ele>
        <time>2011-07-30T08:55:09Z</time>
      </trkpt>
      <trkpt lat="45.50627" lon="6.737">
        <ele>2068.6000976562</ele>
        <time>2011-07-30T08:55:13Z</time>
      </trkpt>
      <trkpt lat="45.50624" lon="6.73691">
        <ele>2066.8000488281</ele>
        <time>2011-07-30T08:55:17Z</time>
      </trkpt>
      <trkpt lat="45.50625" lon="6.73688">
        <ele>2066.3999023438</ele>
        <time>2011-07-30T08:55:18Z</time>
      </trkpt>
      <trkpt lat="45.50626" lon="6.73686">
        <ele>2066</ele>
        <time>2011-07-30T08:55:19Z</time>
      </trkpt>
      <trkpt lat="45.50628" lon="6.73675">
        <ele>2064.3999023438</ele>
        <time>2011-07-30T08:55:22Z</time>
      </trkpt>
      <trkpt lat="45.5063" lon="6.73653">
        <ele>2061.6000976562</ele>
        <time>2011-07-30T08:55:28Z</time>
      </trkpt>
      <trkpt lat="45.50636" lon="6.73638">
        <ele>2059.3999023438</ele>
        <time>2011-07-30T08:55:33Z</time>
      </trkpt>
      <trkpt lat="45.50637" lon="6.73635">
        <ele>2059</ele>
        <time>2011-07-30T08:55:34Z</time>
      </trkpt>
      <trkpt lat="45.50648" lon="6.73628">
        <ele>2057.1999511719</ele>
        <time>2011-07-30T08:55:38Z</time>
      </trkpt>
      <trkpt lat="45.50649" lon="6.73626">
        <ele>2056.8000488281</ele>
        <time>2011-07-30T08:55:39Z</time>
      </trkpt>
      <trkpt lat="45.50652" lon="6.73616">
        <ele>2055.1999511719</ele>
        <time>2011-07-30T08:55:43Z</time>
      </trkpt>
      <trkpt lat="45.50652" lon="6.736">
        <ele>2053</ele>
        <time>2011-07-30T08:55:48Z</time>
      </trkpt>
      <trkpt lat="45.50653" lon="6.73581">
        <ele>2050.6000976562</ele>
        <time>2011-07-30T08:55:53Z</time>
      </trkpt>
      <trkpt lat="45.50657" lon="6.73561">
        <ele>2047.8000488281</ele>
        <time>2011-07-30T08:55:59Z</time>
      </trkpt>
      <trkpt lat="45.50662" lon="6.73546">
        <ele>2044.8000488281</ele>
        <time>2011-07-30T08:56:05Z</time>
      </trkpt>
      <trkpt lat="45.50665" lon="6.73533">
        <ele>2041.8000488281</ele>
        <time>2011-07-30T08:56:12Z</time>
      </trkpt>
      <trkpt lat="45.50666" lon="6.73531">
        <ele>2041.4000244141</ele>
        <time>2011-07-30T08:56:13Z</time>
      </trkpt>
      <trkpt lat="45.50669" lon="6.73519">
        <ele>2038.8000488281</ele>
        <time>2011-07-30T08:56:20Z</time>
      </trkpt>
      <trkpt lat="45.50673" lon="6.7351">
        <ele>2036.8000488281</ele>
        <time>2011-07-30T08:56:25Z</time>
      </trkpt>
      <trkpt lat="45.50674" lon="6.73509">
        <ele>2036.4000244141</ele>
        <time>2011-07-30T08:56:26Z</time>
      </trkpt>
      <trkpt lat="45.5068" lon="6.73494">
        <ele>2033.8000488281</ele>
        <time>2011-07-30T08:56:34Z</time>
      </trkpt>
      <trkpt lat="45.50686" lon="6.73487">
        <ele>2033</ele>
        <time>2011-07-30T08:56:39Z</time>
      </trkpt>
      <trkpt lat="45.50689" lon="6.73482">
        <ele>2032</ele>
        <time>2011-07-30T08:56:42Z</time>
      </trkpt>
      <trkpt lat="45.50693" lon="6.73475">
        <ele>2031.4000244141</ele>
        <time>2011-07-30T08:56:45Z</time>
      </trkpt>
      <trkpt lat="45.50697" lon="6.73457">
        <ele>2030.5999755859</ele>
        <time>2011-07-30T08:56:51Z</time>
      </trkpt>
      <trkpt lat="45.50698" lon="6.73454">
        <ele>2030.4000244141</ele>
        <time>2011-07-30T08:56:52Z</time>
      </trkpt>
      <trkpt lat="45.50702" lon="6.73448">
        <ele>2029.5999755859</ele>
        <time>2011-07-30T08:56:55Z</time>
      </trkpt>
      <trkpt lat="45.50714" lon="6.73444">
        <ele>2028.5999755859</ele>
        <time>2011-07-30T08:57:01Z</time>
      </trkpt>
      <trkpt lat="45.50723" lon="6.73438">
        <ele>2027.5999755859</ele>
        <time>2011-07-30T08:57:07Z</time>
      </trkpt>
      <trkpt lat="45.50735" lon="6.73428">
        <ele>2026.5999755859</ele>
        <time>2011-07-30T08:57:13Z</time>
      </trkpt>
      <trkpt lat="45.50745" lon="6.73416">
        <ele>2025.5999755859</ele>
        <time>2011-07-30T08:57:19Z</time>
      </trkpt>
      <trkpt lat="45.50753" lon="6.73404">
        <ele>2024.8000488281</ele>
        <time>2011-07-30T08:57:24Z</time>
      </trkpt>
      <trkpt lat="45.50754" lon="6.73401">
        <ele>2024.5999755859</ele>
        <time>2011-07-30T08:57:25Z</time>
      </trkpt>
      <trkpt lat="45.50765" lon="6.73386">
        <ele>2023.4000244141</ele>
        <time>2011-07-30T08:57:32Z</time>
      </trkpt>
      <trkpt lat="45.5077" lon="6.73376">
        <ele>2022.5999755859</ele>
        <time>2011-07-30T08:57:37Z</time>
      </trkpt>
      <trkpt lat="45.50772" lon="6.73374">
        <ele>2022.4000244141</ele>
        <time>2011-07-30T08:57:38Z</time>
      </trkpt>
      <trkpt lat="45.50777" lon="6.7337">
        <ele>2022.1999511719</ele>
        <time>2011-07-30T08:57:40Z</time>
      </trkpt>
      <trkpt lat="45.50782" lon="6.73359">
        <ele>2021.1999511719</ele>
        <time>2011-07-30T08:57:45Z</time>
      </trkpt>
      <trkpt lat="45.50783" lon="6.73355">
        <ele>2020.8000488281</ele>
        <time>2011-07-30T08:57:47Z</time>
      </trkpt>
      <trkpt lat="45.50784" lon="6.73353">
        <ele>2020.5999755859</ele>
        <time>2011-07-30T08:57:48Z</time>
      </trkpt>
      <trkpt lat="45.50784" lon="6.73346">
        <ele>2020.1999511719</ele>
        <time>2011-07-30T08:57:52Z</time>
      </trkpt>
      <trkpt lat="45.50785" lon="6.7334">
        <ele>2019.8000488281</ele>
        <time>2011-07-30T08:57:57Z</time>
      </trkpt>
      <trkpt lat="45.5079" lon="6.73337">
        <ele>2019.4000244141</ele>
        <time>2011-07-30T08:58:02Z</time>
      </trkpt>
      <trkpt lat="45.5079" lon="6.73336">
        <ele>2019.4000244141</ele>
        <time>2011-07-30T08:58:03Z</time>
      </trkpt>
      <trkpt lat="45.50796" lon="6.7333">
        <ele>2019.1999511719</ele>
        <time>2011-07-30T08:58:09Z</time>
      </trkpt>
      <trkpt lat="45.50797" lon="6.73329">
        <ele>2019.1999511719</ele>
        <time>2011-07-30T08:58:10Z</time>
      </trkpt>
      <trkpt lat="45.50799" lon="6.73327">
        <ele>2019.1999511719</ele>
        <time>2011-07-30T08:58:12Z</time>
      </trkpt>
      <trkpt lat="45.50806" lon="6.73319">
        <ele>2019.1999511719</ele>
        <time>2011-07-30T08:58:20Z</time>
      </trkpt>
      <trkpt lat="45.5081" lon="6.73314">
        <ele>2019.1999511719</ele>
        <time>2011-07-30T08:58:24Z</time>
      </trkpt>
      <trkpt lat="45.50816" lon="6.73307">
        <ele>2019.8000488281</ele>
        <time>2011-07-30T08:58:30Z</time>
      </trkpt>
      <trkpt lat="45.50818" lon="6.73303">
        <ele>2020.1999511719</ele>
        <time>2011-07-30T08:58:33Z</time>
      </trkpt>
      <trkpt lat="45.50821" lon="6.73299">
        <ele>2020.4000244141</ele>
        <time>2011-07-30T08:58:36Z</time>
      </trkpt>
      <trkpt lat="45.50823" lon="6.73296">
        <ele>2020.8000488281</ele>
        <time>2011-07-30T08:58:41Z</time>
      </trkpt>
      <trkpt lat="45.50824" lon="6.73294">
        <ele>2020.8000488281</ele>
        <time>2011-07-30T08:58:42Z</time>
      </trkpt>
      <trkpt lat="45.50825" lon="6.73282">
        <ele>2021</ele>
        <time>2011-07-30T08:58:48Z</time>
      </trkpt>
      <trkpt lat="45.50826" lon="6.73281">
        <ele>2021</ele>
        <time>2011-07-30T08:58:49Z</time>
      </trkpt>
      <trkpt lat="45.50827" lon="6.73272">
        <ele>2021</ele>
        <time>2011-07-30T08:58:54Z</time>
      </trkpt>
      <trkpt lat="45.50829" lon="6.73271">
        <ele>2021</ele>
        <time>2011-07-30T08:58:55Z</time>
      </trkpt>
      <trkpt lat="45.50832" lon="6.73267">
        <ele>2021</ele>
        <time>2011-07-30T08:58:58Z</time>
      </trkpt>
      <trkpt lat="45.50839" lon="6.73255">
        <ele>2021.1999511719</ele>
        <time>2011-07-30T08:59:06Z</time>
      </trkpt>
      <trkpt lat="45.50841" lon="6.73253">
        <ele>2021.1999511719</ele>
        <time>2011-07-30T08:59:08Z</time>
      </trkpt>
      <trkpt lat="45.50846" lon="6.73248">
        <ele>2021.1999511719</ele>
        <time>2011-07-30T08:59:13Z</time>
      </trkpt>
      <trkpt lat="45.50854" lon="6.73243">
        <ele>2021.1999511719</ele>
        <time>2011-07-30T08:59:19Z</time>
      </trkpt>
      <trkpt lat="45.50859" lon="6.73238">
        <ele>2021.5999755859</ele>
        <time>2011-07-30T08:59:23Z</time>
      </trkpt>
      <trkpt lat="45.50861" lon="6.73237">
        <ele>2022</ele>
        <time>2011-07-30T08:59:25Z</time>
      </trkpt>
      <trkpt lat="45.50869" lon="6.73234">
        <ele>2022.5999755859</ele>
        <time>2011-07-30T08:59:32Z</time>
      </trkpt>
      <trkpt lat="45.50874" lon="6.73231">
        <ele>2023.4000244141</ele>
        <time>2011-07-30T08:59:36Z</time>
      </trkpt>
      <trkpt lat="45.50883" lon="6.73227">
        <ele>2024.4000244141</ele>
        <time>2011-07-30T08:59:43Z</time>
      </trkpt>
      <trkpt lat="45.5089" lon="6.73225">
        <ele>2025.1999511719</ele>
        <time>2011-07-30T08:59:48Z</time>
      </trkpt>
      <trkpt lat="45.50893" lon="6.73223">
        <ele>2025.5999755859</ele>
        <time>2011-07-30T08:59:50Z</time>
      </trkpt>
      <trkpt lat="45.50905" lon="6.73217">
        <ele>2026.5999755859</ele>
        <time>2011-07-30T08:59:58Z</time>
      </trkpt>
      <trkpt lat="45.50912" lon="6.73211">
        <ele>2027.8000488281</ele>
        <time>2011-07-30T09:00:04Z</time>
      </trkpt>
      <trkpt lat="45.50922" lon="6.73204">
        <ele>2028.5999755859</ele>
        <time>2011-07-30T09:00:11Z</time>
      </trkpt>
      <trkpt lat="45.50929" lon="6.73199">
        <ele>2028.8000488281</ele>
        <time>2011-07-30T09:00:17Z</time>
      </trkpt>
      <trkpt lat="45.5093" lon="6.73198">
        <ele>2029.1999511719</ele>
        <time>2011-07-30T09:00:24Z</time>
      </trkpt>
      <trkpt lat="45.50932" lon="6.73198">
        <ele>2029.1999511719</ele>
        <time>2011-07-30T09:00:25Z</time>
      </trkpt>
      <trkpt lat="45.50938" lon="6.73196">
        <ele>2029.1999511719</ele>
        <time>2011-07-30T09:00:29Z</time>
      </trkpt>
      <trkpt lat="45.50944" lon="6.73192">
        <ele>2029.1999511719</ele>
        <time>2011-07-30T09:00:34Z</time>
      </trkpt>
      <trkpt lat="45.50953" lon="6.7319">
        <ele>2029.1999511719</ele>
        <time>2011-07-30T09:00:40Z</time>
      </trkpt>
      <trkpt lat="45.50959" lon="6.73191">
        <ele>2029.1999511719</ele>
        <time>2011-07-30T09:00:44Z</time>
      </trkpt>
      <trkpt lat="45.50964" lon="6.7319">
        <ele>2029.1999511719</ele>
        <time>2011-07-30T09:00:48Z</time>
      </trkpt>
      <trkpt lat="45.50974" lon="6.73186">
        <ele>2029.1999511719</ele>
        <time>2011-07-30T09:00:54Z</time>
      </trkpt>
      <trkpt lat="45.50982" lon="6.73183">
        <ele>2029.1999511719</ele>
        <time>2011-07-30T09:01:00Z</time>
      </trkpt>
      <trkpt lat="45.5099" lon="6.7318">
        <ele>2029.1999511719</ele>
        <time>2011-07-30T09:01:06Z</time>
      </trkpt>
      <trkpt lat="45.50993" lon="6.73179">
        <ele>2029.1999511719</ele>
        <time>2011-07-30T09:01:08Z</time>
      </trkpt>
      <trkpt lat="45.50998" lon="6.73176">
        <ele>2029.1999511719</ele>
        <time>2011-07-30T09:01:12Z</time>
      </trkpt>
      <trkpt lat="45.51006" lon="6.73173">
        <ele>2030</ele>
        <time>2011-07-30T09:01:17Z</time>
      </trkpt>
      <trkpt lat="45.51015" lon="6.73171">
        <ele>2030.4000244141</ele>
        <time>2011-07-30T09:01:21Z</time>
      </trkpt>
      <trkpt lat="45.51023" lon="6.73167">
        <ele>2030.5999755859</ele>
        <time>2011-07-30T09:01:24Z</time>
      </trkpt>
      <trkpt lat="45.51028" lon="6.73168">
        <ele>2030.8000488281</ele>
        <time>2011-07-30T09:01:26Z</time>
      </trkpt>
      <trkpt lat="45.51032" lon="6.73173">
        <ele>2031</ele>
        <time>2011-07-30T09:01:29Z</time>
      </trkpt>
      <trkpt lat="45.51041" lon="6.73176">
        <ele>2031</ele>
        <time>2011-07-30T09:01:33Z</time>
      </trkpt>
      <trkpt lat="45.51049" lon="6.73173">
        <ele>2031.1999511719</ele>
        <time>2011-07-30T09:01:38Z</time>
      </trkpt>
      <trkpt lat="45.51056" lon="6.7317">
        <ele>2031.1999511719</ele>
        <time>2011-07-30T09:01:43Z</time>
      </trkpt>
      <trkpt lat="45.51058" lon="6.7317">
        <ele>2031.1999511719</ele>
        <time>2011-07-30T09:01:44Z</time>
      </trkpt>
      <trkpt lat="45.5106" lon="6.7317">
        <ele>2031.5999755859</ele>
        <time>2011-07-30T09:01:46Z</time>
      </trkpt>
      <trkpt lat="45.51065" lon="6.73173">
        <ele>2032.4000244141</ele>
        <time>2011-07-30T09:01:51Z</time>
      </trkpt>
      <trkpt lat="45.51069" lon="6.73172">
        <ele>2032.8000488281</ele>
        <time>2011-07-30T09:01:56Z</time>
      </trkpt>
      <trkpt lat="45.51077" lon="6.73175">
        <ele>2033</ele>
        <time>2011-07-30T09:02:02Z</time>
      </trkpt>
      <trkpt lat="45.51079" lon="6.73176">
        <ele>2033.1999511719</ele>
        <time>2011-07-30T09:02:04Z</time>
      </trkpt>
      <trkpt lat="45.51081" lon="6.73175">
        <ele>2033.1999511719</ele>
        <time>2011-07-30T09:02:09Z</time>
      </trkpt>
      <trkpt lat="45.51089" lon="6.73172">
        <ele>2033.4000244141</ele>
        <time>2011-07-30T09:02:16Z</time>
      </trkpt>
      <trkpt lat="45.51096" lon="6.73165">
        <ele>2033.4000244141</ele>
        <time>2011-07-30T09:02:22Z</time>
      </trkpt>
      <trkpt lat="45.511" lon="6.73162">
        <ele>2033.4000244141</ele>
        <time>2011-07-30T09:02:25Z</time>
      </trkpt>
      <trkpt lat="45.51105" lon="6.73158">
        <ele>2033.4000244141</ele>
        <time>2011-07-30T09:02:30Z</time>
      </trkpt>
      <trkpt lat="45.51112" lon="6.73155">
        <ele>2033.4000244141</ele>
        <time>2011-07-30T09:02:35Z</time>
      </trkpt>
      <trkpt lat="45.51114" lon="6.73154">
        <ele>2033.4000244141</ele>
        <time>2011-07-30T09:02:37Z</time>
      </trkpt>
      <trkpt lat="45.51125" lon="6.73151">
        <ele>2033.4000244141</ele>
        <time>2011-07-30T09:02:44Z</time>
      </trkpt>
      <trkpt lat="45.51133" lon="6.73146">
        <ele>2033.4000244141</ele>
        <time>2011-07-30T09:02:50Z</time>
      </trkpt>
      <trkpt lat="45.51135" lon="6.73146">
        <ele>2033.4000244141</ele>
        <time>2011-07-30T09:02:52Z</time>
      </trkpt>
      <trkpt lat="45.51144" lon="6.73141">
        <ele>2033.4000244141</ele>
        <time>2011-07-30T09:02:58Z</time>
      </trkpt>
      <trkpt lat="45.51153" lon="6.73138">
        <ele>2033.4000244141</ele>
        <time>2011-07-30T09:03:05Z</time>
      </trkpt>
      <trkpt lat="45.51158" lon="6.73135">
        <ele>2033.4000244141</ele>
        <time>2011-07-30T09:03:10Z</time>
      </trkpt>
      <trkpt lat="45.51161" lon="6.73134">
        <ele>2033.4000244141</ele>
        <time>2011-07-30T09:03:13Z</time>
      </trkpt>
      <trkpt lat="45.51168" lon="6.73132">
        <ele>2033.4000244141</ele>
        <time>2011-07-30T09:03:19Z</time>
      </trkpt>
      <trkpt lat="45.51169" lon="6.73131">
        <ele>2033.4000244141</ele>
        <time>2011-07-30T09:03:20Z</time>
      </trkpt>
      <trkpt lat="45.51175" lon="6.73125">
        <ele>2033.4000244141</ele>
        <time>2011-07-30T09:03:27Z</time>
      </trkpt>
      <trkpt lat="45.5118" lon="6.73126">
        <ele>2033.4000244141</ele>
        <time>2011-07-30T09:03:36Z</time>
      </trkpt>
      <trkpt lat="45.51189" lon="6.7313">
        <ele>2033.4000244141</ele>
        <time>2011-07-30T09:03:42Z</time>
      </trkpt>
      <trkpt lat="45.51196" lon="6.73131">
        <ele>2032.5999755859</ele>
        <time>2011-07-30T09:03:47Z</time>
      </trkpt>
      <trkpt lat="45.51199" lon="6.7313">
        <ele>2032.4000244141</ele>
        <time>2011-07-30T09:03:50Z</time>
      </trkpt>
      <trkpt lat="45.51202" lon="6.73128">
        <ele>2032</ele>
        <time>2011-07-30T09:03:55Z</time>
      </trkpt>
      <trkpt lat="45.51209" lon="6.73121">
        <ele>2031.5999755859</ele>
        <time>2011-07-30T09:04:02Z</time>
      </trkpt>
      <trkpt lat="45.51211" lon="6.73119">
        <ele>2031.5999755859</ele>
        <time>2011-07-30T09:04:04Z</time>
      </trkpt>
      <trkpt lat="45.51216" lon="6.73118">
        <ele>2031.4000244141</ele>
        <time>2011-07-30T09:04:09Z</time>
      </trkpt>
      <trkpt lat="45.5122" lon="6.73116">
        <ele>2031.4000244141</ele>
        <time>2011-07-30T09:04:14Z</time>
      </trkpt>
      <trkpt lat="45.51226" lon="6.73114">
        <ele>2031.4000244141</ele>
        <time>2011-07-30T09:04:19Z</time>
      </trkpt>
      <trkpt lat="45.51231" lon="6.73112">
        <ele>2031.4000244141</ele>
        <time>2011-07-30T09:04:23Z</time>
      </trkpt>
      <trkpt lat="45.51234" lon="6.73109">
        <ele>2031.4000244141</ele>
        <time>2011-07-30T09:04:26Z</time>
      </trkpt>
      <trkpt lat="45.51243" lon="6.7311">
        <ele>2031.4000244141</ele>
        <time>2011-07-30T09:04:33Z</time>
      </trkpt>
      <trkpt lat="45.5125" lon="6.73108">
        <ele>2031.4000244141</ele>
        <time>2011-07-30T09:04:39Z</time>
      </trkpt>
      <trkpt lat="45.51257" lon="6.73105">
        <ele>2031.4000244141</ele>
        <time>2011-07-30T09:04:45Z</time>
      </trkpt>
      <trkpt lat="45.5126" lon="6.73105">
        <ele>2031.4000244141</ele>
        <time>2011-07-30T09:04:47Z</time>
      </trkpt>
      <trkpt lat="45.51265" lon="6.73102">
        <ele>2031.4000244141</ele>
        <time>2011-07-30T09:04:51Z</time>
      </trkpt>
      <trkpt lat="45.5127" lon="6.73098">
        <ele>2031.4000244141</ele>
        <time>2011-07-30T09:04:56Z</time>
      </trkpt>
      <trkpt lat="45.51272" lon="6.73097">
        <ele>2031.4000244141</ele>
        <time>2011-07-30T09:04:58Z</time>
      </trkpt>
      <trkpt lat="45.51278" lon="6.73094">
        <ele>2031.4000244141</ele>
        <time>2011-07-30T09:05:03Z</time>
      </trkpt>
      <trkpt lat="45.51284" lon="6.73089">
        <ele>2031.4000244141</ele>
        <time>2011-07-30T09:05:08Z</time>
      </trkpt>
      <trkpt lat="45.51285" lon="6.73088">
        <ele>2031.4000244141</ele>
        <time>2011-07-30T09:05:09Z</time>
      </trkpt>
      <trkpt lat="45.51289" lon="6.73084">
        <ele>2031.4000244141</ele>
        <time>2011-07-30T09:05:13Z</time>
      </trkpt>
      <trkpt lat="45.51291" lon="6.73085">
        <ele>2031.4000244141</ele>
        <time>2011-07-30T09:05:15Z</time>
      </trkpt>
      <trkpt lat="45.51296" lon="6.73086">
        <ele>2031.4000244141</ele>
        <time>2011-07-30T09:05:20Z</time>
      </trkpt>
      <trkpt lat="45.51298" lon="6.73085">
        <ele>2031.4000244141</ele>
        <time>2011-07-30T09:05:22Z</time>
      </trkpt>
      <trkpt lat="45.51301" lon="6.73084">
        <ele>2031.4000244141</ele>
        <time>2011-07-30T09:05:24Z</time>
      </trkpt>
      <trkpt lat="45.51308" lon="6.73085">
        <ele>2031.4000244141</ele>
        <time>2011-07-30T09:05:31Z</time>
      </trkpt>
      <trkpt lat="45.51311" lon="6.73086">
        <ele>2031.4000244141</ele>
        <time>2011-07-30T09:05:33Z</time>
      </trkpt>
      <trkpt lat="45.5132" lon="6.73083">
        <ele>2031.4000244141</ele>
        <time>2011-07-30T09:05:40Z</time>
      </trkpt>
      <trkpt lat="45.51324" lon="6.73079">
        <ele>2031.4000244141</ele>
        <time>2011-07-30T09:05:43Z</time>
      </trkpt>
      <trkpt lat="45.51331" lon="6.73075">
        <ele>2031.4000244141</ele>
        <time>2011-07-30T09:05:49Z</time>
      </trkpt>
      <trkpt lat="45.51332" lon="6.73074">
        <ele>2031.4000244141</ele>
        <time>2011-07-30T09:05:50Z</time>
      </trkpt>
      <trkpt lat="45.51334" lon="6.73074">
        <ele>2031.4000244141</ele>
        <time>2011-07-30T09:05:53Z</time>
      </trkpt>
      <trkpt lat="45.51334" lon="6.73073">
        <ele>2031.4000244141</ele>
        <time>2011-07-30T09:05:58Z</time>
      </trkpt>
      <trkpt lat="45.51334" lon="6.73072">
        <ele>2031.4000244141</ele>
        <time>2011-07-30T09:06:01Z</time>
      </trkpt>
      <trkpt lat="45.51336" lon="6.7308">
        <ele>2031.4000244141</ele>
        <time>2011-07-30T09:06:07Z</time>
      </trkpt>
      <trkpt lat="45.51337" lon="6.73082">
        <ele>2031.4000244141</ele>
        <time>2011-07-30T09:06:08Z</time>
      </trkpt>
      <trkpt lat="45.51339" lon="6.73088">
        <ele>2031.4000244141</ele>
        <time>2011-07-30T09:06:13Z</time>
      </trkpt>
      <trkpt lat="45.51342" lon="6.73088">
        <ele>2031.4000244141</ele>
        <time>2011-07-30T09:06:18Z</time>
      </trkpt>
      <trkpt lat="45.51347" lon="6.73087">
        <ele>2031.4000244141</ele>
        <time>2011-07-30T09:06:23Z</time>
      </trkpt>
      <trkpt lat="45.51349" lon="6.7309">
        <ele>2031.4000244141</ele>
        <time>2011-07-30T09:06:26Z</time>
      </trkpt>
      <trkpt lat="45.51351" lon="6.7309">
        <ele>2031.4000244141</ele>
        <time>2011-07-30T09:06:28Z</time>
      </trkpt>
      <trkpt lat="45.51357" lon="6.73092">
        <ele>2031.4000244141</ele>
        <time>2011-07-30T09:06:33Z</time>
      </trkpt>
      <trkpt lat="45.51365" lon="6.73095">
        <ele>2031.4000244141</ele>
        <time>2011-07-30T09:06:39Z</time>
      </trkpt>
      <trkpt lat="45.51367" lon="6.73096">
        <ele>2031.8000488281</ele>
        <time>2011-07-30T09:06:41Z</time>
      </trkpt>
      <trkpt lat="45.51374" lon="6.73099">
        <ele>2032.5999755859</ele>
        <time>2011-07-30T09:06:47Z</time>
      </trkpt>
      <trkpt lat="45.51381" lon="6.73104">
        <ele>2033</ele>
        <time>2011-07-30T09:06:55Z</time>
      </trkpt>
      <trkpt lat="45.51383" lon="6.73106">
        <ele>2033.1999511719</ele>
        <time>2011-07-30T09:06:58Z</time>
      </trkpt>
      <trkpt lat="45.51385" lon="6.73108">
        <ele>2033.1999511719</ele>
        <time>2011-07-30T09:07:01Z</time>
      </trkpt>
      <trkpt lat="45.51391" lon="6.7311">
        <ele>2034.1999511719</ele>
        <time>2011-07-30T09:07:10Z</time>
      </trkpt>
      <trkpt lat="45.51396" lon="6.7311">
        <ele>2034.8000488281</ele>
        <time>2011-07-30T09:07:17Z</time>
      </trkpt>
      <trkpt lat="45.51396" lon="6.73106">
        <ele>2035.4000244141</ele>
        <time>2011-07-30T09:07:22Z</time>
      </trkpt>
      <trkpt lat="45.51398" lon="6.73102">
        <ele>2036.4000244141</ele>
        <time>2011-07-30T09:07:28Z</time>
      </trkpt>
      <trkpt lat="45.514" lon="6.73097">
        <ele>2037</ele>
        <time>2011-07-30T09:07:34Z</time>
      </trkpt>
      <trkpt lat="45.51401" lon="6.73092">
        <ele>2038</ele>
        <time>2011-07-30T09:07:40Z</time>
      </trkpt>
      <trkpt lat="45.51406" lon="6.73092">
        <ele>2038.8000488281</ele>
        <time>2011-07-30T09:07:47Z</time>
      </trkpt>
      <trkpt lat="45.51411" lon="6.73091">
        <ele>2040.1999511719</ele>
        <time>2011-07-30T09:07:54Z</time>
      </trkpt>
      <trkpt lat="45.51413" lon="6.7309">
        <ele>2041</ele>
        <time>2011-07-30T09:08:00Z</time>
      </trkpt>
      <trkpt lat="45.51416" lon="6.73088">
        <ele>2042.1999511719</ele>
        <time>2011-07-30T09:08:08Z</time>
      </trkpt>
      <trkpt lat="45.51421" lon="6.73088">
        <ele>2043</ele>
        <time>2011-07-30T09:08:14Z</time>
      </trkpt>
      <trkpt lat="45.51428" lon="6.73087">
        <ele>2044.1999511719</ele>
        <time>2011-07-30T09:08:23Z</time>
      </trkpt>
      <trkpt lat="45.51432" lon="6.73087">
        <ele>2045</ele>
        <time>2011-07-30T09:08:28Z</time>
      </trkpt>
      <trkpt lat="45.51437" lon="6.73085">
        <ele>2046.1999511719</ele>
        <time>2011-07-30T09:08:34Z</time>
      </trkpt>
      <trkpt lat="45.51438" lon="6.73084">
        <ele>2046.4000244141</ele>
        <time>2011-07-30T09:08:35Z</time>
      </trkpt>
      <trkpt lat="45.51442" lon="6.73085">
        <ele>2048</ele>
        <time>2011-07-30T09:08:42Z</time>
      </trkpt>
      <trkpt lat="45.51447" lon="6.73084">
        <ele>2049.8000488281</ele>
        <time>2011-07-30T09:08:50Z</time>
      </trkpt>
      <trkpt lat="45.51451" lon="6.73087">
        <ele>2050.8000488281</ele>
        <time>2011-07-30T09:08:55Z</time>
      </trkpt>
      <trkpt lat="45.51455" lon="6.73088">
        <ele>2051.3999023438</ele>
        <time>2011-07-30T09:08:58Z</time>
      </trkpt>
      <trkpt lat="45.51459" lon="6.73087">
        <ele>2052.6000976562</ele>
        <time>2011-07-30T09:09:03Z</time>
      </trkpt>
      <trkpt lat="45.51467" lon="6.73094">
        <ele>2054.3999023438</ele>
        <time>2011-07-30T09:09:11Z</time>
      </trkpt>
      <trkpt lat="45.51473" lon="6.73094">
        <ele>2055.3999023438</ele>
        <time>2011-07-30T09:09:17Z</time>
      </trkpt>
      <trkpt lat="45.51474" lon="6.73094">
        <ele>2055.6000976562</ele>
        <time>2011-07-30T09:09:18Z</time>
      </trkpt>
      <trkpt lat="45.5148" lon="6.73096">
        <ele>2056</ele>
        <time>2011-07-30T09:09:23Z</time>
      </trkpt>
      <trkpt lat="45.5149" lon="6.73101">
        <ele>2057.3999023438</ele>
        <time>2011-07-30T09:09:30Z</time>
      </trkpt>
      <trkpt lat="45.51492" lon="6.731">
        <ele>2057.8000488281</ele>
        <time>2011-07-30T09:09:32Z</time>
      </trkpt>
      <trkpt lat="45.51501" lon="6.73105">
        <ele>2058.1999511719</ele>
        <time>2011-07-30T09:09:39Z</time>
      </trkpt>
      <trkpt lat="45.51511" lon="6.73113">
        <ele>2059.6000976562</ele>
        <time>2011-07-30T09:09:47Z</time>
      </trkpt>
      <trkpt lat="45.51518" lon="6.73115">
        <ele>2060.1999511719</ele>
        <time>2011-07-30T09:09:54Z</time>
      </trkpt>
      <trkpt lat="45.51522" lon="6.73115">
        <ele>2060.3999023438</ele>
        <time>2011-07-30T09:09:58Z</time>
      </trkpt>
      <trkpt lat="45.5153" lon="6.73115">
        <ele>2060.6000976562</ele>
        <time>2011-07-30T09:10:04Z</time>
      </trkpt>
      <trkpt lat="45.51539" lon="6.73112">
        <ele>2060.8000488281</ele>
        <time>2011-07-30T09:10:09Z</time>
      </trkpt>
      <trkpt lat="45.51551" lon="6.73108">
        <ele>2060.8000488281</ele>
        <time>2011-07-30T09:10:15Z</time>
      </trkpt>
      <trkpt lat="45.51559" lon="6.73107">
        <ele>2060.8000488281</ele>
        <time>2011-07-30T09:10:19Z</time>
      </trkpt>
      <trkpt lat="45.51561" lon="6.73107">
        <ele>2060.8000488281</ele>
        <time>2011-07-30T09:10:20Z</time>
      </trkpt>
      <trkpt lat="45.51569" lon="6.73111">
        <ele>2061.6000976562</ele>
        <time>2011-07-30T09:10:24Z</time>
      </trkpt>
      <trkpt lat="45.51575" lon="6.73112">
        <ele>2062</ele>
        <time>2011-07-30T09:10:28Z</time>
      </trkpt>
      <trkpt lat="45.5158" lon="6.73116">
        <ele>2062.1999511719</ele>
        <time>2011-07-30T09:10:31Z</time>
      </trkpt>
      <trkpt lat="45.51581" lon="6.73118">
        <ele>2062.3999023438</ele>
        <time>2011-07-30T09:10:32Z</time>
      </trkpt>
      <trkpt lat="45.51583" lon="6.73121">
        <ele>2062.3999023438</ele>
        <time>2011-07-30T09:10:34Z</time>
      </trkpt>
      <trkpt lat="45.51592" lon="6.73129">
        <ele>2062.6000976562</ele>
        <time>2011-07-30T09:10:39Z</time>
      </trkpt>
      <trkpt lat="45.51596" lon="6.73131">
        <ele>2062.8000488281</ele>
        <time>2011-07-30T09:10:41Z</time>
      </trkpt>
      <trkpt lat="45.51609" lon="6.73137">
        <ele>2062.8000488281</ele>
        <time>2011-07-30T09:10:47Z</time>
      </trkpt>
      <trkpt lat="45.5162" lon="6.73141">
        <ele>2062.8000488281</ele>
        <time>2011-07-30T09:10:52Z</time>
      </trkpt>
      <trkpt lat="45.51632" lon="6.73146">
        <ele>2063</ele>
        <time>2011-07-30T09:10:57Z</time>
      </trkpt>
      <trkpt lat="45.51645" lon="6.73154">
        <ele>2063</ele>
        <time>2011-07-30T09:11:03Z</time>
      </trkpt>
      <trkpt lat="45.51654" lon="6.73164">
        <ele>2063</ele>
        <time>2011-07-30T09:11:07Z</time>
      </trkpt>
      <trkpt lat="45.51664" lon="6.73174">
        <ele>2062.6000976562</ele>
        <time>2011-07-30T09:11:12Z</time>
      </trkpt>
      <trkpt lat="45.51675" lon="6.73183">
        <ele>2061.8000488281</ele>
        <time>2011-07-30T09:11:18Z</time>
      </trkpt>
      <trkpt lat="45.51686" lon="6.73187">
        <ele>2061.3999023438</ele>
        <time>2011-07-30T09:11:23Z</time>
      </trkpt>
      <trkpt lat="45.51697" lon="6.73185">
        <ele>2061.1999511719</ele>
        <time>2011-07-30T09:11:28Z</time>
      </trkpt>
      <trkpt lat="45.51709" lon="6.73179">
        <ele>2061</ele>
        <time>2011-07-30T09:11:33Z</time>
      </trkpt>
      <trkpt lat="45.51719" lon="6.73172">
        <ele>2060.1999511719</ele>
        <time>2011-07-30T09:11:38Z</time>
      </trkpt>
      <trkpt lat="45.51726" lon="6.73167">
        <ele>2059.8000488281</ele>
        <time>2011-07-30T09:11:42Z</time>
      </trkpt>
      <trkpt lat="45.51733" lon="6.73164">
        <ele>2058.6000976562</ele>
        <time>2011-07-30T09:11:46Z</time>
      </trkpt>
      <trkpt lat="45.51743" lon="6.73162">
        <ele>2057</ele>
        <time>2011-07-30T09:11:51Z</time>
      </trkpt>
      <trkpt lat="45.51751" lon="6.7316">
        <ele>2055.8000488281</ele>
        <time>2011-07-30T09:11:56Z</time>
      </trkpt>
      <trkpt lat="45.5176" lon="6.73158">
        <ele>2054.8000488281</ele>
        <time>2011-07-30T09:12:01Z</time>
      </trkpt>
      <trkpt lat="45.51768" lon="6.73157">
        <ele>2053.8000488281</ele>
        <time>2011-07-30T09:12:05Z</time>
      </trkpt>
      <trkpt lat="45.51769" lon="6.73157">
        <ele>2053.8000488281</ele>
        <time>2011-07-30T09:12:06Z</time>
      </trkpt>
      <trkpt lat="45.51777" lon="6.73158">
        <ele>2053</ele>
        <time>2011-07-30T09:12:11Z</time>
      </trkpt>
      <trkpt lat="45.51788" lon="6.73157">
        <ele>2052.3999023438</ele>
        <time>2011-07-30T09:12:18Z</time>
      </trkpt>
      <trkpt lat="45.51789" lon="6.73156">
        <ele>2052.3999023438</ele>
        <time>2011-07-30T09:12:19Z</time>
      </trkpt>
      <trkpt lat="45.51796" lon="6.73159">
        <ele>2052.1999511719</ele>
        <time>2011-07-30T09:12:23Z</time>
      </trkpt>
      <trkpt lat="45.51801" lon="6.73156">
        <ele>2052.1999511719</ele>
        <time>2011-07-30T09:12:27Z</time>
      </trkpt>
      <trkpt lat="45.51807" lon="6.73156">
        <ele>2052.1999511719</ele>
        <time>2011-07-30T09:12:30Z</time>
      </trkpt>
      <trkpt lat="45.51821" lon="6.73145">
        <ele>2052</ele>
        <time>2011-07-30T09:12:37Z</time>
      </trkpt>
      <trkpt lat="45.51824" lon="6.73145">
        <ele>2052</ele>
        <time>2011-07-30T09:12:38Z</time>
      </trkpt>
      <trkpt lat="45.51831" lon="6.73148">
        <ele>2052</ele>
        <time>2011-07-30T09:12:42Z</time>
      </trkpt>
      <trkpt lat="45.51836" lon="6.73149">
        <ele>2052</ele>
        <time>2011-07-30T09:12:44Z</time>
      </trkpt>
      <trkpt lat="45.51849" lon="6.73146">
        <ele>2050.8000488281</ele>
        <time>2011-07-30T09:12:52Z</time>
      </trkpt>
      <trkpt lat="45.51856" lon="6.73146">
        <ele>2050.3999023438</ele>
        <time>2011-07-30T09:12:57Z</time>
      </trkpt>
      <trkpt lat="45.51866" lon="6.73148">
        <ele>2049.3999023438</ele>
        <time>2011-07-30T09:13:05Z</time>
      </trkpt>
      <trkpt lat="45.51873" lon="6.73147">
        <ele>2048.8000488281</ele>
        <time>2011-07-30T09:13:10Z</time>
      </trkpt>
      <trkpt lat="45.51881" lon="6.73145">
        <ele>2048.3999023438</ele>
        <time>2011-07-30T09:13:16Z</time>
      </trkpt>
      <trkpt lat="45.51884" lon="6.73142">
        <ele>2048.1999511719</ele>
        <time>2011-07-30T09:13:20Z</time>
      </trkpt>
      <trkpt lat="45.51888" lon="6.7314">
        <ele>2048</ele>
        <time>2011-07-30T09:13:24Z</time>
      </trkpt>
      <trkpt lat="45.51894" lon="6.73139">
        <ele>2048</ele>
        <time>2011-07-30T09:13:29Z</time>
      </trkpt>
      <trkpt lat="45.51902" lon="6.7314">
        <ele>2047.8000488281</ele>
        <time>2011-07-30T09:13:36Z</time>
      </trkpt>
      <trkpt lat="45.51908" lon="6.73141">
        <ele>2047.8000488281</ele>
        <time>2011-07-30T09:13:43Z</time>
      </trkpt>
      <trkpt lat="45.51912" lon="6.7314">
        <ele>2047.8000488281</ele>
        <time>2011-07-30T09:14:02Z</time>
      </trkpt>
      <trkpt lat="45.51919" lon="6.73138">
        <ele>2047.8000488281</ele>
        <time>2011-07-30T09:14:08Z</time>
      </trkpt>
      <trkpt lat="45.51925" lon="6.73139">
        <ele>2047.8000488281</ele>
        <time>2011-07-30T09:14:11Z</time>
      </trkpt>
      <trkpt lat="45.51928" lon="6.73136">
        <ele>2047.8000488281</ele>
        <time>2011-07-30T09:14:13Z</time>
      </trkpt>
      <trkpt lat="45.51935" lon="6.73129">
        <ele>2047.8000488281</ele>
        <time>2011-07-30T09:14:17Z</time>
      </trkpt>
      <trkpt lat="45.51945" lon="6.73128">
        <ele>2047.8000488281</ele>
        <time>2011-07-30T09:14:21Z</time>
      </trkpt>
      <trkpt lat="45.51948" lon="6.73127">
        <ele>2047.8000488281</ele>
        <time>2011-07-30T09:14:23Z</time>
      </trkpt>
      <trkpt lat="45.51952" lon="6.73126">
        <ele>2047.8000488281</ele>
        <time>2011-07-30T09:14:25Z</time>
      </trkpt>
      <trkpt lat="45.51965" lon="6.73128">
        <ele>2047.8000488281</ele>
        <time>2011-07-30T09:14:32Z</time>
      </trkpt>
      <trkpt lat="45.51972" lon="6.73124">
        <ele>2047.8000488281</ele>
        <time>2011-07-30T09:14:36Z</time>
      </trkpt>
      <trkpt lat="45.51983" lon="6.73121">
        <ele>2047.8000488281</ele>
        <time>2011-07-30T09:14:42Z</time>
      </trkpt>
      <trkpt lat="45.51993" lon="6.73116">
        <ele>2047</ele>
        <time>2011-07-30T09:14:47Z</time>
      </trkpt>
      <trkpt lat="45.51997" lon="6.73115">
        <ele>2046.8000488281</ele>
        <time>2011-07-30T09:14:49Z</time>
      </trkpt>
      <trkpt lat="45.52005" lon="6.73112">
        <ele>2046</ele>
        <time>2011-07-30T09:14:54Z</time>
      </trkpt>
      <trkpt lat="45.52013" lon="6.73116">
        <ele>2044.8000488281</ele>
        <time>2011-07-30T09:15:00Z</time>
      </trkpt>
      <trkpt lat="45.52015" lon="6.73117">
        <ele>2044.5999755859</ele>
        <time>2011-07-30T09:15:01Z</time>
      </trkpt>
      <trkpt lat="45.52024" lon="6.73118">
        <ele>2044.1999511719</ele>
        <time>2011-07-30T09:15:06Z</time>
      </trkpt>
      <trkpt lat="45.52028" lon="6.73119">
        <ele>2043.4000244141</ele>
        <time>2011-07-30T09:15:09Z</time>
      </trkpt>
      <trkpt lat="45.52038" lon="6.7311">
        <ele>2042.4000244141</ele>
        <time>2011-07-30T09:15:16Z</time>
      </trkpt>
      <trkpt lat="45.52039" lon="6.73101">
        <ele>2042</ele>
        <time>2011-07-30T09:15:20Z</time>
      </trkpt>
      <trkpt lat="45.52039" lon="6.73097">
        <ele>2042</ele>
        <time>2011-07-30T09:15:22Z</time>
      </trkpt>
      <trkpt lat="45.5204" lon="6.73094">
        <ele>2041.8000488281</ele>
        <time>2011-07-30T09:15:24Z</time>
      </trkpt>
      <trkpt lat="45.5204" lon="6.73088">
        <ele>2041.8000488281</ele>
        <time>2011-07-30T09:15:29Z</time>
      </trkpt>
      <trkpt lat="45.5204" lon="6.73087">
        <ele>2041.5999755859</ele>
        <time>2011-07-30T09:15:30Z</time>
      </trkpt>
      <trkpt lat="45.5204" lon="6.73086">
        <ele>2041.5999755859</ele>
        <time>2011-07-30T09:15:31Z</time>
      </trkpt>
      <trkpt lat="45.52041" lon="6.73073">
        <ele>2041.5999755859</ele>
        <time>2011-07-30T09:15:39Z</time>
      </trkpt>
      <trkpt lat="45.52042" lon="6.73071">
        <ele>2041.8000488281</ele>
        <time>2011-07-30T09:15:40Z</time>
      </trkpt>
      <trkpt lat="45.52043" lon="6.73065">
        <ele>2042.1999511719</ele>
        <time>2011-07-30T09:15:43Z</time>
      </trkpt>
      <trkpt lat="45.52047" lon="6.73061">
        <ele>2042.5999755859</ele>
        <time>2011-07-30T09:15:47Z</time>
      </trkpt>
      <trkpt lat="45.52051" lon="6.73049">
        <ele>2043.5999755859</ele>
        <time>2011-07-30T09:15:55Z</time>
      </trkpt>
      <trkpt lat="45.52053" lon="6.73041">
        <ele>2044.4000244141</ele>
        <time>2011-07-30T09:16:01Z</time>
      </trkpt>
      <trkpt lat="45.52054" lon="6.7304">
        <ele>2044.5999755859</ele>
        <time>2011-07-30T09:16:02Z</time>
      </trkpt>
      <trkpt lat="45.52053" lon="6.73034">
        <ele>2045</ele>
        <time>2011-07-30T09:16:07Z</time>
      </trkpt>
      <trkpt lat="45.52053" lon="6.73033">
        <ele>2045</ele>
        <time>2011-07-30T09:16:08Z</time>
      </trkpt>
      <trkpt lat="45.52054" lon="6.73033">
        <ele>2045</ele>
        <time>2011-07-30T09:16:09Z</time>
      </trkpt>
      <trkpt lat="45.52055" lon="6.73033">
        <ele>2045.4000244141</ele>
        <time>2011-07-30T09:16:10Z</time>
      </trkpt>
      <trkpt lat="45.52057" lon="6.73031">
        <ele>2046</ele>
        <time>2011-07-30T09:16:13Z</time>
      </trkpt>
      <trkpt lat="45.5206" lon="6.73026">
        <ele>2046.8000488281</ele>
        <time>2011-07-30T09:16:20Z</time>
      </trkpt>
      <trkpt lat="45.52064" lon="6.73022">
        <ele>2048.3999023438</ele>
        <time>2011-07-30T09:16:27Z</time>
      </trkpt>
      <trkpt lat="45.52065" lon="6.73016">
        <ele>2049.6000976562</ele>
        <time>2011-07-30T09:16:33Z</time>
      </trkpt>
      <trkpt lat="45.52068" lon="6.73015">
        <ele>2050.6000976562</ele>
        <time>2011-07-30T09:16:38Z</time>
      </trkpt>
      <trkpt lat="45.52071" lon="6.73011">
        <ele>2052</ele>
        <time>2011-07-30T09:16:44Z</time>
      </trkpt>
      <trkpt lat="45.5207" lon="6.73007">
        <ele>2052.8000488281</ele>
        <time>2011-07-30T09:16:48Z</time>
      </trkpt>
      <trkpt lat="45.52068" lon="6.73">
        <ele>2054.6000976562</ele>
        <time>2011-07-30T09:16:55Z</time>
      </trkpt>
      <trkpt lat="45.52073" lon="6.72998">
        <ele>2056.1999511719</ele>
        <time>2011-07-30T09:17:01Z</time>
      </trkpt>
      <trkpt lat="45.52073" lon="6.72997">
        <ele>2056.3999023438</ele>
        <time>2011-07-30T09:17:02Z</time>
      </trkpt>
      <trkpt lat="45.52073" lon="6.72992">
        <ele>2057.1999511719</ele>
        <time>2011-07-30T09:17:06Z</time>
      </trkpt>
      <trkpt lat="45.52072" lon="6.72991">
        <ele>2057.8000488281</ele>
        <time>2011-07-30T09:17:08Z</time>
      </trkpt>
      <trkpt lat="45.52073" lon="6.72982">
        <ele>2059.1999511719</ele>
        <time>2011-07-30T09:17:15Z</time>
      </trkpt>
      <trkpt lat="45.52075" lon="6.72977">
        <ele>2060.3999023438</ele>
        <time>2011-07-30T09:17:19Z</time>
      </trkpt>
      <trkpt lat="45.52076" lon="6.72975">
        <ele>2060.8000488281</ele>
        <time>2011-07-30T09:17:21Z</time>
      </trkpt>
      <trkpt lat="45.52081" lon="6.72968">
        <ele>2062.3999023438</ele>
        <time>2011-07-30T09:17:30Z</time>
      </trkpt>
      <trkpt lat="45.52082" lon="6.72964">
        <ele>2063.3999023438</ele>
        <time>2011-07-30T09:17:35Z</time>
      </trkpt>
      <trkpt lat="45.52085" lon="6.72962">
        <ele>2066.1999511719</ele>
        <time>2011-07-30T09:17:52Z</time>
      </trkpt>
      <trkpt lat="45.5209" lon="6.72958">
        <ele>2067.1999511719</ele>
        <time>2011-07-30T09:17:57Z</time>
      </trkpt>
      <trkpt lat="45.52095" lon="6.72952">
        <ele>2068</ele>
        <time>2011-07-30T09:18:02Z</time>
      </trkpt>
      <trkpt lat="45.52098" lon="6.72946">
        <ele>2068.3999023438</ele>
        <time>2011-07-30T09:18:07Z</time>
      </trkpt>
      <trkpt lat="45.52103" lon="6.72942">
        <ele>2069.3999023438</ele>
        <time>2011-07-30T09:18:13Z</time>
      </trkpt>
      <trkpt lat="45.52104" lon="6.72941">
        <ele>2069.6000976562</ele>
        <time>2011-07-30T09:18:14Z</time>
      </trkpt>
      <trkpt lat="45.52108" lon="6.72938">
        <ele>2070.1999511719</ele>
        <time>2011-07-30T09:18:20Z</time>
      </trkpt>
      <trkpt lat="45.52114" lon="6.72938">
        <ele>2070.6000976562</ele>
        <time>2011-07-30T09:18:26Z</time>
      </trkpt>
      <trkpt lat="45.52121" lon="6.72939">
        <ele>2072</ele>
        <time>2011-07-30T09:18:34Z</time>
      </trkpt>
      <trkpt lat="45.52122" lon="6.72938">
        <ele>2072.1999511719</ele>
        <time>2011-07-30T09:18:35Z</time>
      </trkpt>
      <trkpt lat="45.52126" lon="6.72937">
        <ele>2072.6000976562</ele>
        <time>2011-07-30T09:18:41Z</time>
      </trkpt>
      <trkpt lat="45.5213" lon="6.72933">
        <ele>2073.1999511719</ele>
        <time>2011-07-30T09:18:46Z</time>
      </trkpt>
      <trkpt lat="45.52133" lon="6.72929">
        <ele>2074</ele>
        <time>2011-07-30T09:18:52Z</time>
      </trkpt>
      <trkpt lat="45.52134" lon="6.72928">
        <ele>2074.1999511719</ele>
        <time>2011-07-30T09:18:53Z</time>
      </trkpt>
      <trkpt lat="45.52137" lon="6.7292">
        <ele>2075</ele>
        <time>2011-07-30T09:19:00Z</time>
      </trkpt>
      <trkpt lat="45.52139" lon="6.72918">
        <ele>2075.3999023438</ele>
        <time>2011-07-30T09:19:02Z</time>
      </trkpt>
      <trkpt lat="45.5214" lon="6.72911">
        <ele>2076.1999511719</ele>
        <time>2011-07-30T09:19:07Z</time>
      </trkpt>
      <trkpt lat="45.52143" lon="6.72902">
        <ele>2076.8000488281</ele>
        <time>2011-07-30T09:19:14Z</time>
      </trkpt>
      <trkpt lat="45.5215" lon="6.72898">
        <ele>2077.6000976562</ele>
        <time>2011-07-30T09:19:20Z</time>
      </trkpt>
      <trkpt lat="45.52151" lon="6.72897">
        <ele>2077.8000488281</ele>
        <time>2011-07-30T09:19:21Z</time>
      </trkpt>
      <trkpt lat="45.52158" lon="6.72894">
        <ele>2078.6000976562</ele>
        <time>2011-07-30T09:19:28Z</time>
      </trkpt>
      <trkpt lat="45.52161" lon="6.72893">
        <ele>2078.6000976562</ele>
        <time>2011-07-30T09:19:30Z</time>
      </trkpt>
      <trkpt lat="45.52166" lon="6.72887">
        <ele>2079</ele>
        <time>2011-07-30T09:19:37Z</time>
      </trkpt>
      <trkpt lat="45.5217" lon="6.72881">
        <ele>2080</ele>
        <time>2011-07-30T09:19:43Z</time>
      </trkpt>
      <trkpt lat="45.5217" lon="6.72881">
        <ele>2080.1999511719</ele>
        <time>2011-07-30T09:19:44Z</time>
      </trkpt>
      <trkpt lat="45.52172" lon="6.72874">
        <ele>2080.8000488281</ele>
        <time>2011-07-30T09:19:51Z</time>
      </trkpt>
      <trkpt lat="45.52172" lon="6.72869">
        <ele>2082</ele>
        <time>2011-07-30T09:19:57Z</time>
      </trkpt>
      <trkpt lat="45.52176" lon="6.72867">
        <ele>2083</ele>
        <time>2011-07-30T09:20:04Z</time>
      </trkpt>
      <trkpt lat="45.5218" lon="6.72865">
        <ele>2084.1999511719</ele>
        <time>2011-07-30T09:20:11Z</time>
      </trkpt>
      <trkpt lat="45.52179" lon="6.7286">
        <ele>2084.8000488281</ele>
        <time>2011-07-30T09:20:16Z</time>
      </trkpt>
      <trkpt lat="45.52179" lon="6.72856">
        <ele>2085.8000488281</ele>
        <time>2011-07-30T09:20:21Z</time>
      </trkpt>
      <trkpt lat="45.52178" lon="6.72852">
        <ele>2086.6000976562</ele>
        <time>2011-07-30T09:20:26Z</time>
      </trkpt>
      <trkpt lat="45.52179" lon="6.72851">
        <ele>2089.3999023438</ele>
        <time>2011-07-30T09:20:43Z</time>
      </trkpt>
      <trkpt lat="45.52179" lon="6.72851">
        <ele>2090</ele>
        <time>2011-07-30T09:20:47Z</time>
      </trkpt>
      <trkpt lat="45.52178" lon="6.72851">
        <ele>2090.6000976562</ele>
        <time>2011-07-30T09:20:51Z</time>
      </trkpt>
      <trkpt lat="45.52177" lon="6.72846">
        <ele>2091.6000976562</ele>
        <time>2011-07-30T09:20:59Z</time>
      </trkpt>
      <trkpt lat="45.52176" lon="6.72841">
        <ele>2092.3999023438</ele>
        <time>2011-07-30T09:21:04Z</time>
      </trkpt>
      <trkpt lat="45.52173" lon="6.72835">
        <ele>2093.1999511719</ele>
        <time>2011-07-30T09:21:09Z</time>
      </trkpt>
      <trkpt lat="45.52172" lon="6.7283">
        <ele>2094</ele>
        <time>2011-07-30T09:21:13Z</time>
      </trkpt>
      <trkpt lat="45.52173" lon="6.72817">
        <ele>2095.3999023438</ele>
        <time>2011-07-30T09:21:22Z</time>
      </trkpt>
      <trkpt lat="45.52174" lon="6.72816">
        <ele>2095.8000488281</ele>
        <time>2011-07-30T09:21:23Z</time>
      </trkpt>
      <trkpt lat="45.52176" lon="6.72811">
        <ele>2096.3999023438</ele>
        <time>2011-07-30T09:21:27Z</time>
      </trkpt>
      <trkpt lat="45.52179" lon="6.72804">
        <ele>2097.3999023438</ele>
        <time>2011-07-30T09:21:33Z</time>
      </trkpt>
      <trkpt lat="45.52185" lon="6.72797">
        <ele>2098.6000976562</ele>
        <time>2011-07-30T09:21:40Z</time>
      </trkpt>
      <trkpt lat="45.5219" lon="6.72791">
        <ele>2099.3999023438</ele>
        <time>2011-07-30T09:21:47Z</time>
      </trkpt>
      <trkpt lat="45.52195" lon="6.72787">
        <ele>2100.1999511719</ele>
        <time>2011-07-30T09:21:52Z</time>
      </trkpt>
      <trkpt lat="45.522" lon="6.72781">
        <ele>2101</ele>
        <time>2011-07-30T09:21:59Z</time>
      </trkpt>
      <trkpt lat="45.52208" lon="6.72773">
        <ele>2101.6000976562</ele>
        <time>2011-07-30T09:22:07Z</time>
      </trkpt>
      <trkpt lat="45.52216" lon="6.7277">
        <ele>2101.8000488281</ele>
        <time>2011-07-30T09:22:13Z</time>
      </trkpt>
      <trkpt lat="45.52223" lon="6.72769">
        <ele>2102.6000976562</ele>
        <time>2011-07-30T09:22:21Z</time>
      </trkpt>
      <trkpt lat="45.52229" lon="6.72767">
        <ele>2103.1999511719</ele>
        <time>2011-07-30T09:22:27Z</time>
      </trkpt>
      <trkpt lat="45.52231" lon="6.72764">
        <ele>2103.3999023438</ele>
        <time>2011-07-30T09:22:30Z</time>
      </trkpt>
      <trkpt lat="45.52236" lon="6.72761">
        <ele>2103.6000976562</ele>
        <time>2011-07-30T09:22:35Z</time>
      </trkpt>
      <trkpt lat="45.52238" lon="6.72759">
        <ele>2103.6000976562</ele>
        <time>2011-07-30T09:22:37Z</time>
      </trkpt>
      <trkpt lat="45.52242" lon="6.72752">
        <ele>2104.8000488281</ele>
        <time>2011-07-30T09:22:43Z</time>
      </trkpt>
      <trkpt lat="45.52243" lon="6.72749">
        <ele>2105</ele>
        <time>2011-07-30T09:22:45Z</time>
      </trkpt>
      <trkpt lat="45.5225" lon="6.7274">
        <ele>2105.8000488281</ele>
        <time>2011-07-30T09:22:52Z</time>
      </trkpt>
      <trkpt lat="45.52253" lon="6.72737">
        <ele>2106.6000976562</ele>
        <time>2011-07-30T09:22:56Z</time>
      </trkpt>
      <trkpt lat="45.52263" lon="6.72734">
        <ele>2108.1999511719</ele>
        <time>2011-07-30T09:23:05Z</time>
      </trkpt>
      <trkpt lat="45.52269" lon="6.7273">
        <ele>2109.1999511719</ele>
        <time>2011-07-30T09:23:11Z</time>
      </trkpt>
      <trkpt lat="45.52275" lon="6.72727">
        <ele>2110.8000488281</ele>
        <time>2011-07-30T09:23:18Z</time>
      </trkpt>
      <trkpt lat="45.52282" lon="6.72724">
        <ele>2112.1999511719</ele>
        <time>2011-07-30T09:23:25Z</time>
      </trkpt>
      <trkpt lat="45.52287" lon="6.72722">
        <ele>2113.1999511719</ele>
        <time>2011-07-30T09:23:30Z</time>
      </trkpt>
      <trkpt lat="45.52291" lon="6.72721">
        <ele>2113.8000488281</ele>
        <time>2011-07-30T09:23:34Z</time>
      </trkpt>
      <trkpt lat="45.52295" lon="6.72718">
        <ele>2115</ele>
        <time>2011-07-30T09:23:39Z</time>
      </trkpt>
      <trkpt lat="45.52306" lon="6.7271">
        <ele>2116.3999023438</ele>
        <time>2011-07-30T09:23:50Z</time>
      </trkpt>
      <trkpt lat="45.52312" lon="6.72706">
        <ele>2117.6000976562</ele>
        <time>2011-07-30T09:23:58Z</time>
      </trkpt>
      <trkpt lat="45.52318" lon="6.72703">
        <ele>2118.3999023438</ele>
        <time>2011-07-30T09:24:05Z</time>
      </trkpt>
      <trkpt lat="45.52323" lon="6.72699">
        <ele>2119.8000488281</ele>
        <time>2011-07-30T09:24:14Z</time>
      </trkpt>
      <trkpt lat="45.52328" lon="6.72697">
        <ele>2120.8000488281</ele>
        <time>2011-07-30T09:24:21Z</time>
      </trkpt>
      <trkpt lat="45.52335" lon="6.72695">
        <ele>2121.8000488281</ele>
        <time>2011-07-30T09:24:28Z</time>
      </trkpt>
      <trkpt lat="45.52337" lon="6.72693">
        <ele>2122.6000976562</ele>
        <time>2011-07-30T09:24:34Z</time>
      </trkpt>
      <trkpt lat="45.52338" lon="6.72693">
        <ele>2123.6000976562</ele>
        <time>2011-07-30T09:24:41Z</time>
      </trkpt>
      <trkpt lat="45.52338" lon="6.72692">
        <ele>2124.1999511719</ele>
        <time>2011-07-30T09:24:47Z</time>
      </trkpt>
      <trkpt lat="45.52341" lon="6.7269">
        <ele>2125.3999023438</ele>
        <time>2011-07-30T09:24:53Z</time>
      </trkpt>
      <trkpt lat="45.52344" lon="6.72686">
        <ele>2126</ele>
        <time>2011-07-30T09:24:58Z</time>
      </trkpt>
      <trkpt lat="45.52347" lon="6.72682">
        <ele>2126.1999511719</ele>
        <time>2011-07-30T09:25:03Z</time>
      </trkpt>
      <trkpt lat="45.52353" lon="6.72681">
        <ele>2127.6000976562</ele>
        <time>2011-07-30T09:25:10Z</time>
      </trkpt>
      <trkpt lat="45.52358" lon="6.72677">
        <ele>2128.1999511719</ele>
        <time>2011-07-30T09:25:17Z</time>
      </trkpt>
      <trkpt lat="45.52364" lon="6.72674">
        <ele>2129.6000976562</ele>
        <time>2011-07-30T09:25:24Z</time>
      </trkpt>
      <trkpt lat="45.52369" lon="6.7267">
        <ele>2130.8000488281</ele>
        <time>2011-07-30T09:25:32Z</time>
      </trkpt>
      <trkpt lat="45.52372" lon="6.72664">
        <ele>2131.8000488281</ele>
        <time>2011-07-30T09:25:38Z</time>
      </trkpt>
      <trkpt lat="45.52376" lon="6.72654">
        <ele>2133.3999023438</ele>
        <time>2011-07-30T09:25:46Z</time>
      </trkpt>
      <trkpt lat="45.52375" lon="6.72646">
        <ele>2134.8000488281</ele>
        <time>2011-07-30T09:25:53Z</time>
      </trkpt>
      <trkpt lat="45.52375" lon="6.72645">
        <ele>2135</ele>
        <time>2011-07-30T09:25:54Z</time>
      </trkpt>
      <trkpt lat="45.52376" lon="6.72643">
        <ele>2135.3999023438</ele>
        <time>2011-07-30T09:25:56Z</time>
      </trkpt>
      <trkpt lat="45.52377" lon="6.72642">
        <ele>2135.6000976562</ele>
        <time>2011-07-30T09:25:57Z</time>
      </trkpt>
      <trkpt lat="45.52376" lon="6.72637">
        <ele>2137.1999511719</ele>
        <time>2011-07-30T09:26:04Z</time>
      </trkpt>
      <trkpt lat="45.52378" lon="6.72633">
        <ele>2141.3999023438</ele>
        <time>2011-07-30T09:26:27Z</time>
      </trkpt>
      <trkpt lat="45.52379" lon="6.72626">
        <ele>2142.3999023438</ele>
        <time>2011-07-30T09:26:32Z</time>
      </trkpt>
      <trkpt lat="45.5238" lon="6.72612">
        <ele>2144.6000976562</ele>
        <time>2011-07-30T09:26:42Z</time>
      </trkpt>
      <trkpt lat="45.52381" lon="6.72598">
        <ele>2147.1999511719</ele>
        <time>2011-07-30T09:26:52Z</time>
      </trkpt>
      <trkpt lat="45.52381" lon="6.72583">
        <ele>2150</ele>
        <time>2011-07-30T09:27:03Z</time>
      </trkpt>
      <trkpt lat="45.52382" lon="6.72578">
        <ele>2150.8000488281</ele>
        <time>2011-07-30T09:27:07Z</time>
      </trkpt>
      <trkpt lat="45.52381" lon="6.72572">
        <ele>2151.8000488281</ele>
        <time>2011-07-30T09:27:12Z</time>
      </trkpt>
      <trkpt lat="45.52381" lon="6.72563">
        <ele>2153.1999511719</ele>
        <time>2011-07-30T09:27:19Z</time>
      </trkpt>
      <trkpt lat="45.52379" lon="6.72554">
        <ele>2154.3999023438</ele>
        <time>2011-07-30T09:27:26Z</time>
      </trkpt>
      <trkpt lat="45.52379" lon="6.72553">
        <ele>2154.6000976562</ele>
        <time>2011-07-30T09:27:27Z</time>
      </trkpt>
      <trkpt lat="45.52378" lon="6.72543">
        <ele>2155.6000976562</ele>
        <time>2011-07-30T09:27:34Z</time>
      </trkpt>
      <trkpt lat="45.52378" lon="6.72542">
        <ele>2155.8000488281</ele>
        <time>2011-07-30T09:27:35Z</time>
      </trkpt>
      <trkpt lat="45.52377" lon="6.72533">
        <ele>2156.8000488281</ele>
        <time>2011-07-30T09:27:43Z</time>
      </trkpt>
      <trkpt lat="45.52376" lon="6.72523">
        <ele>2158.3999023438</ele>
        <time>2011-07-30T09:27:53Z</time>
      </trkpt>
      <trkpt lat="45.52375" lon="6.72515">
        <ele>2159.8000488281</ele>
        <time>2011-07-30T09:28:01Z</time>
      </trkpt>
      <trkpt lat="45.52372" lon="6.72504">
        <ele>2161.8000488281</ele>
        <time>2011-07-30T09:28:11Z</time>
      </trkpt>
      <trkpt lat="45.52371" lon="6.72502">
        <ele>2163.3999023438</ele>
        <time>2011-07-30T09:28:18Z</time>
      </trkpt>
      <trkpt lat="45.5237" lon="6.72497">
        <ele>2165.1999511719</ele>
        <time>2011-07-30T09:28:27Z</time>
      </trkpt>
      <trkpt lat="45.52367" lon="6.72484">
        <ele>2166.3999023438</ele>
        <time>2011-07-30T09:28:36Z</time>
      </trkpt>
      <trkpt lat="45.52368" lon="6.72475">
        <ele>2167.1999511719</ele>
        <time>2011-07-30T09:28:41Z</time>
      </trkpt>
      <trkpt lat="45.52366" lon="6.72469">
        <ele>2167.8000488281</ele>
        <time>2011-07-30T09:28:45Z</time>
      </trkpt>
      <trkpt lat="45.52368" lon="6.72457">
        <ele>2168.8000488281</ele>
        <time>2011-07-30T09:28:53Z</time>
      </trkpt>
      <trkpt lat="45.52368" lon="6.72455">
        <ele>2169</ele>
        <time>2011-07-30T09:28:54Z</time>
      </trkpt>
      <trkpt lat="45.52374" lon="6.7245">
        <ele>2170</ele>
        <time>2011-07-30T09:29:00Z</time>
      </trkpt>
      <trkpt lat="45.52381" lon="6.72442">
        <ele>2170.8000488281</ele>
        <time>2011-07-30T09:29:08Z</time>
      </trkpt>
      <trkpt lat="45.52387" lon="6.72434">
        <ele>2171</ele>
        <time>2011-07-30T09:29:17Z</time>
      </trkpt>
      <trkpt lat="45.52388" lon="6.72433">
        <ele>2171</ele>
        <time>2011-07-30T09:29:19Z</time>
      </trkpt>
      <trkpt lat="45.52388" lon="6.72422">
        <ele>2171.3999023438</ele>
        <time>2011-07-30T09:29:27Z</time>
      </trkpt>
      <trkpt lat="45.52389" lon="6.72421">
        <ele>2171.6000976562</ele>
        <time>2011-07-30T09:29:28Z</time>
      </trkpt>
      <trkpt lat="45.5239" lon="6.7242">
        <ele>2171.8000488281</ele>
        <time>2011-07-30T09:29:29Z</time>
      </trkpt>
      <trkpt lat="45.52394" lon="6.72413">
        <ele>2172.6000976562</ele>
        <time>2011-07-30T09:29:36Z</time>
      </trkpt>
      <trkpt lat="45.52395" lon="6.72413">
        <ele>2172.6000976562</ele>
        <time>2011-07-30T09:29:37Z</time>
      </trkpt>
      <trkpt lat="45.52401" lon="6.72406">
        <ele>2173</ele>
        <time>2011-07-30T09:29:44Z</time>
      </trkpt>
      <trkpt lat="45.52401" lon="6.72406">
        <ele>2173</ele>
        <time>2011-07-30T09:29:45Z</time>
      </trkpt>
      <trkpt lat="45.52408" lon="6.72405">
        <ele>2173.1999511719</ele>
        <time>2011-07-30T09:29:53Z</time>
      </trkpt>
      <trkpt lat="45.52413" lon="6.72403">
        <ele>2173.1999511719</ele>
        <time>2011-07-30T09:29:59Z</time>
      </trkpt>
      <trkpt lat="45.52414" lon="6.72402">
        <ele>2173.1999511719</ele>
        <time>2011-07-30T09:30:00Z</time>
      </trkpt>
      <trkpt lat="45.52415" lon="6.72401">
        <ele>2173.1999511719</ele>
        <time>2011-07-30T09:30:02Z</time>
      </trkpt>
      <trkpt lat="45.52422" lon="6.72397">
        <ele>2174</ele>
        <time>2011-07-30T09:30:09Z</time>
      </trkpt>
      <trkpt lat="45.52423" lon="6.72396">
        <ele>2174</ele>
        <time>2011-07-30T09:30:10Z</time>
      </trkpt>
      <trkpt lat="45.5243" lon="6.72392">
        <ele>2174.8000488281</ele>
        <time>2011-07-30T09:30:19Z</time>
      </trkpt>
      <trkpt lat="45.52433" lon="6.7239">
        <ele>2175.8000488281</ele>
        <time>2011-07-30T09:30:24Z</time>
      </trkpt>
      <trkpt lat="45.52438" lon="6.72386">
        <ele>2176.6000976562</ele>
        <time>2011-07-30T09:30:31Z</time>
      </trkpt>
      <trkpt lat="45.52438" lon="6.72384">
        <ele>2177.6000976562</ele>
        <time>2011-07-30T09:30:37Z</time>
      </trkpt>
      <trkpt lat="45.52444" lon="6.7238">
        <ele>2178.8000488281</ele>
        <time>2011-07-30T09:30:46Z</time>
      </trkpt>
      <trkpt lat="45.52452" lon="6.72371">
        <ele>2180.6000976562</ele>
        <time>2011-07-30T09:30:56Z</time>
      </trkpt>
      <trkpt lat="45.52459" lon="6.72364">
        <ele>2182.3999023438</ele>
        <time>2011-07-30T09:31:05Z</time>
      </trkpt>
      <trkpt lat="45.5246" lon="6.72363">
        <ele>2182.3999023438</ele>
        <time>2011-07-30T09:31:06Z</time>
      </trkpt>
      <trkpt lat="45.52465" lon="6.72357">
        <ele>2183.8000488281</ele>
        <time>2011-07-30T09:31:14Z</time>
      </trkpt>
      <trkpt lat="45.52467" lon="6.72352">
        <ele>2184.6000976562</ele>
        <time>2011-07-30T09:31:18Z</time>
      </trkpt>
      <trkpt lat="45.52471" lon="6.72347">
        <ele>2185</ele>
        <time>2011-07-30T09:31:24Z</time>
      </trkpt>
      <trkpt lat="45.52476" lon="6.72342">
        <ele>2186.3999023438</ele>
        <time>2011-07-30T09:31:30Z</time>
      </trkpt>
      <trkpt lat="45.52481" lon="6.72339">
        <ele>2187.1999511719</ele>
        <time>2011-07-30T09:31:36Z</time>
      </trkpt>
      <trkpt lat="45.52483" lon="6.72338">
        <ele>2188.6000976562</ele>
        <time>2011-07-30T09:31:43Z</time>
      </trkpt>
      <trkpt lat="45.52483" lon="6.72338">
        <ele>2189.1999511719</ele>
        <time>2011-07-30T09:31:48Z</time>
      </trkpt>
      <trkpt lat="45.52483" lon="6.72338">
        <ele>2189.6000976562</ele>
        <time>2011-07-30T09:31:54Z</time>
      </trkpt>
      <trkpt lat="45.52486" lon="6.72338">
        <ele>2189.8000488281</ele>
        <time>2011-07-30T09:31:59Z</time>
      </trkpt>
      <trkpt lat="45.52493" lon="6.72338">
        <ele>2189.8000488281</ele>
        <time>2011-07-30T09:32:05Z</time>
      </trkpt>
      <trkpt lat="45.52497" lon="6.72337">
        <ele>2189.8000488281</ele>
        <time>2011-07-30T09:32:09Z</time>
      </trkpt>
      <trkpt lat="45.525" lon="6.72337">
        <ele>2190</ele>
        <time>2011-07-30T09:32:13Z</time>
      </trkpt>
      <trkpt lat="45.52504" lon="6.72336">
        <ele>2190</ele>
        <time>2011-07-30T09:32:19Z</time>
      </trkpt>
      <trkpt lat="45.5251" lon="6.72334">
        <ele>2190</ele>
        <time>2011-07-30T09:32:26Z</time>
      </trkpt>
      <trkpt lat="45.52517" lon="6.72332">
        <ele>2190</ele>
        <time>2011-07-30T09:32:35Z</time>
      </trkpt>
      <trkpt lat="45.52524" lon="6.7233">
        <ele>2190.3999023438</ele>
        <time>2011-07-30T09:32:42Z</time>
      </trkpt>
      <trkpt lat="45.5253" lon="6.72328">
        <ele>2191.6000976562</ele>
        <time>2011-07-30T09:32:50Z</time>
      </trkpt>
      <trkpt lat="45.52533" lon="6.72326">
        <ele>2192.3999023438</ele>
        <time>2011-07-30T09:32:54Z</time>
      </trkpt>
      <trkpt lat="45.52537" lon="6.72325">
        <ele>2193.8000488281</ele>
        <time>2011-07-30T09:33:00Z</time>
      </trkpt>
      <trkpt lat="45.52542" lon="6.72321">
        <ele>2195.1999511719</ele>
        <time>2011-07-30T09:33:07Z</time>
      </trkpt>
      <trkpt lat="45.52546" lon="6.7232">
        <ele>2197</ele>
        <time>2011-07-30T09:33:14Z</time>
      </trkpt>
      <trkpt lat="45.52551" lon="6.72316">
        <ele>2198.8000488281</ele>
        <time>2011-07-30T09:33:21Z</time>
      </trkpt>
      <trkpt lat="45.52554" lon="6.72314">
        <ele>2200</ele>
        <time>2011-07-30T09:33:27Z</time>
      </trkpt>
      <trkpt lat="45.52555" lon="6.72309">
        <ele>2201.3999023438</ele>
        <time>2011-07-30T09:33:33Z</time>
      </trkpt>
      <trkpt lat="45.52557" lon="6.72306">
        <ele>2203</ele>
        <time>2011-07-30T09:33:39Z</time>
      </trkpt>
      <trkpt lat="45.5256" lon="6.72304">
        <ele>2204.6000976562</ele>
        <time>2011-07-30T09:33:46Z</time>
      </trkpt>
      <trkpt lat="45.52562" lon="6.72302">
        <ele>2205.8000488281</ele>
        <time>2011-07-30T09:33:52Z</time>
      </trkpt>
      <trkpt lat="45.52565" lon="6.723">
        <ele>2207.3999023438</ele>
        <time>2011-07-30T09:33:58Z</time>
      </trkpt>
      <trkpt lat="45.52566" lon="6.72298">
        <ele>2208.6000976562</ele>
        <time>2011-07-30T09:34:03Z</time>
      </trkpt>
      <trkpt lat="45.52567" lon="6.72297">
        <ele>2211.3999023438</ele>
        <time>2011-07-30T09:34:16Z</time>
      </trkpt>
      <trkpt lat="45.52567" lon="6.72292">
        <ele>2213.3999023438</ele>
        <time>2011-07-30T09:34:27Z</time>
      </trkpt>
      <trkpt lat="45.52567" lon="6.7229">
        <ele>2214.3999023438</ele>
        <time>2011-07-30T09:34:32Z</time>
      </trkpt>
      <trkpt lat="45.52568" lon="6.72287">
        <ele>2215.1999511719</ele>
        <time>2011-07-30T09:34:37Z</time>
      </trkpt>
      <trkpt lat="45.52569" lon="6.72284">
        <ele>2216.1999511719</ele>
        <time>2011-07-30T09:34:42Z</time>
      </trkpt>
      <trkpt lat="45.5257" lon="6.7228">
        <ele>2217.1999511719</ele>
        <time>2011-07-30T09:34:47Z</time>
      </trkpt>
      <trkpt lat="45.52568" lon="6.72276">
        <ele>2218.3999023438</ele>
        <time>2011-07-30T09:34:52Z</time>
      </trkpt>
      <trkpt lat="45.52565" lon="6.7227">
        <ele>2219.8000488281</ele>
        <time>2011-07-30T09:34:58Z</time>
      </trkpt>
      <trkpt lat="45.52562" lon="6.72262">
        <ele>2221.8000488281</ele>
        <time>2011-07-30T09:35:06Z</time>
      </trkpt>
      <trkpt lat="45.52559" lon="6.72255">
        <ele>2223.6000976562</ele>
        <time>2011-07-30T09:35:13Z</time>
      </trkpt>
      <trkpt lat="45.52557" lon="6.72245">
        <ele>2225.6000976562</ele>
        <time>2011-07-30T09:35:21Z</time>
      </trkpt>
      <trkpt lat="45.52557" lon="6.72243">
        <ele>2226.1999511719</ele>
        <time>2011-07-30T09:35:23Z</time>
      </trkpt>
      <trkpt lat="45.52554" lon="6.72234">
        <ele>2228.3999023438</ele>
        <time>2011-07-30T09:35:32Z</time>
      </trkpt>
      <trkpt lat="45.52553" lon="6.72228">
        <ele>2231.1999511719</ele>
        <time>2011-07-30T09:35:44Z</time>
      </trkpt>
      <trkpt lat="45.52552" lon="6.72221">
        <ele>2233</ele>
        <time>2011-07-30T09:35:51Z</time>
      </trkpt>
      <trkpt lat="45.5255" lon="6.72213">
        <ele>2235</ele>
        <time>2011-07-30T09:35:59Z</time>
      </trkpt>
      <trkpt lat="45.52548" lon="6.72207">
        <ele>2236.3999023438</ele>
        <time>2011-07-30T09:36:05Z</time>
      </trkpt>
      <trkpt lat="45.52547" lon="6.72201">
        <ele>2237.6000976562</ele>
        <time>2011-07-30T09:36:11Z</time>
      </trkpt>
      <trkpt lat="45.52545" lon="6.72193">
        <ele>2239.3999023438</ele>
        <time>2011-07-30T09:36:18Z</time>
      </trkpt>
      <trkpt lat="45.52544" lon="6.72189">
        <ele>2240.8000488281</ele>
        <time>2011-07-30T09:36:24Z</time>
      </trkpt>
      <trkpt lat="45.52541" lon="6.72181">
        <ele>2242.1999511719</ele>
        <time>2011-07-30T09:36:31Z</time>
      </trkpt>
      <trkpt lat="45.5254" lon="6.72179">
        <ele>2242.8000488281</ele>
        <time>2011-07-30T09:36:33Z</time>
      </trkpt>
      <trkpt lat="45.52537" lon="6.7217">
        <ele>2244.8000488281</ele>
        <time>2011-07-30T09:36:42Z</time>
      </trkpt>
      <trkpt lat="45.52534" lon="6.72162">
        <ele>2246</ele>
        <time>2011-07-30T09:36:49Z</time>
      </trkpt>
      <trkpt lat="45.5253" lon="6.72155">
        <ele>2247.8000488281</ele>
        <time>2011-07-30T09:36:57Z</time>
      </trkpt>
      <trkpt lat="45.52528" lon="6.72151">
        <ele>2248.8000488281</ele>
        <time>2011-07-30T09:37:01Z</time>
      </trkpt>
      <trkpt lat="45.52523" lon="6.72143">
        <ele>2250.6000976562</ele>
        <time>2011-07-30T09:37:10Z</time>
      </trkpt>
      <trkpt lat="45.52518" lon="6.72136">
        <ele>2252.3999023438</ele>
        <time>2011-07-30T09:37:18Z</time>
      </trkpt>
      <trkpt lat="45.52513" lon="6.7213">
        <ele>2254</ele>
        <time>2011-07-30T09:37:25Z</time>
      </trkpt>
      <trkpt lat="45.52512" lon="6.72129">
        <ele>2254.1999511719</ele>
        <time>2011-07-30T09:37:26Z</time>
      </trkpt>
      <trkpt lat="45.5251" lon="6.72122">
        <ele>2255.3999023438</ele>
        <time>2011-07-30T09:37:32Z</time>
      </trkpt>
      <trkpt lat="45.52507" lon="6.72118">
        <ele>2256.3999023438</ele>
        <time>2011-07-30T09:37:37Z</time>
      </trkpt>
      <trkpt lat="45.52506" lon="6.72116">
        <ele>2257</ele>
        <time>2011-07-30T09:37:42Z</time>
      </trkpt>
      <trkpt lat="45.52505" lon="6.72116">
        <ele>2257.1999511719</ele>
        <time>2011-07-30T09:37:43Z</time>
      </trkpt>
      <trkpt lat="45.525" lon="6.72112">
        <ele>2257.3999023438</ele>
        <time>2011-07-30T09:37:48Z</time>
      </trkpt>
      <trkpt lat="45.52494" lon="6.72105">
        <ele>2258.3999023438</ele>
        <time>2011-07-30T09:37:54Z</time>
      </trkpt>
      <trkpt lat="45.52491" lon="6.72097">
        <ele>2259</ele>
        <time>2011-07-30T09:37:59Z</time>
      </trkpt>
      <trkpt lat="45.52489" lon="6.72093">
        <ele>2259.1999511719</ele>
        <time>2011-07-30T09:38:02Z</time>
      </trkpt>
      <trkpt lat="45.52489" lon="6.72092">
        <ele>2259.3999023438</ele>
        <time>2011-07-30T09:38:06Z</time>
      </trkpt>
      <trkpt lat="45.52483" lon="6.72082">
        <ele>2260</ele>
        <time>2011-07-30T09:38:13Z</time>
      </trkpt>
      <trkpt lat="45.52478" lon="6.72074">
        <ele>2260.8000488281</ele>
        <time>2011-07-30T09:38:18Z</time>
      </trkpt>
      <trkpt lat="45.52471" lon="6.72065">
        <ele>2261.3999023438</ele>
        <time>2011-07-30T09:38:25Z</time>
      </trkpt>
      <trkpt lat="45.52464" lon="6.72055">
        <ele>2262.1999511719</ele>
        <time>2011-07-30T09:38:32Z</time>
      </trkpt>
      <trkpt lat="45.52454" lon="6.72046">
        <ele>2263.3999023438</ele>
        <time>2011-07-30T09:38:41Z</time>
      </trkpt>
      <trkpt lat="45.52453" lon="6.72045">
        <ele>2263.3999023438</ele>
        <time>2011-07-30T09:38:42Z</time>
      </trkpt>
      <trkpt lat="45.52449" lon="6.72041">
        <ele>2264</ele>
        <time>2011-07-30T09:38:48Z</time>
      </trkpt>
      <trkpt lat="45.52445" lon="6.72038">
        <ele>2265</ele>
        <time>2011-07-30T09:38:54Z</time>
      </trkpt>
      <trkpt lat="45.52444" lon="6.72037">
        <ele>2265.1999511719</ele>
        <time>2011-07-30T09:38:55Z</time>
      </trkpt>
      <trkpt lat="45.52443" lon="6.72036">
        <ele>2265.1999511719</ele>
        <time>2011-07-30T09:38:56Z</time>
      </trkpt>
      <trkpt lat="45.52438" lon="6.7203">
        <ele>2265.8000488281</ele>
        <time>2011-07-30T09:39:02Z</time>
      </trkpt>
      <trkpt lat="45.52437" lon="6.72029">
        <ele>2265.8000488281</ele>
        <time>2011-07-30T09:39:03Z</time>
      </trkpt>
      <trkpt lat="45.52436" lon="6.72025">
        <ele>2266.3999023438</ele>
        <time>2011-07-30T09:39:07Z</time>
      </trkpt>
      <trkpt lat="45.52427" lon="6.72019">
        <ele>2267.6000976562</ele>
        <time>2011-07-30T09:39:16Z</time>
      </trkpt>
      <trkpt lat="45.52423" lon="6.72015">
        <ele>2268</ele>
        <time>2011-07-30T09:39:21Z</time>
      </trkpt>
      <trkpt lat="45.52424" lon="6.72013">
        <ele>2269.1999511719</ele>
        <time>2011-07-30T09:39:28Z</time>
      </trkpt>
      <trkpt lat="45.52424" lon="6.72013">
        <ele>2269.8000488281</ele>
        <time>2011-07-30T09:39:35Z</time>
      </trkpt>
      <trkpt lat="45.52424" lon="6.72013">
        <ele>2270.1999511719</ele>
        <time>2011-07-30T09:39:42Z</time>
      </trkpt>
      <trkpt lat="45.52424" lon="6.72012">
        <ele>2271</ele>
        <time>2011-07-30T09:40:09Z</time>
      </trkpt>
      <trkpt lat="45.52425" lon="6.72008">
        <ele>2271.6000976562</ele>
        <time>2011-07-30T09:40:13Z</time>
      </trkpt>
      <trkpt lat="45.52425" lon="6.72004">
        <ele>2271.8000488281</ele>
        <time>2011-07-30T09:40:16Z</time>
      </trkpt>
      <trkpt lat="45.52422" lon="6.71996">
        <ele>2272.3999023438</ele>
        <time>2011-07-30T09:40:23Z</time>
      </trkpt>
      <trkpt lat="45.52422" lon="6.71995">
        <ele>2272.6000976562</ele>
        <time>2011-07-30T09:40:24Z</time>
      </trkpt>
      <trkpt lat="45.52422" lon="6.71993">
        <ele>2272.8000488281</ele>
        <time>2011-07-30T09:40:26Z</time>
      </trkpt>
      <trkpt lat="45.52419" lon="6.71986">
        <ele>2273.6000976562</ele>
        <time>2011-07-30T09:40:32Z</time>
      </trkpt>
      <trkpt lat="45.52416" lon="6.71982">
        <ele>2274.3999023438</ele>
        <time>2011-07-30T09:40:36Z</time>
      </trkpt>
      <trkpt lat="45.52412" lon="6.71974">
        <ele>2275.3999023438</ele>
        <time>2011-07-30T09:40:43Z</time>
      </trkpt>
      <trkpt lat="45.52412" lon="6.71973">
        <ele>2275.6000976562</ele>
        <time>2011-07-30T09:40:44Z</time>
      </trkpt>
      <trkpt lat="45.52411" lon="6.71972">
        <ele>2276.1999511719</ele>
        <time>2011-07-30T09:40:46Z</time>
      </trkpt>
      <trkpt lat="45.52407" lon="6.71966">
        <ele>2277.1999511719</ele>
        <time>2011-07-30T09:40:51Z</time>
      </trkpt>
      <trkpt lat="45.52406" lon="6.71959">
        <ele>2278.1999511719</ele>
        <time>2011-07-30T09:40:56Z</time>
      </trkpt>
      <trkpt lat="45.52402" lon="6.71955">
        <ele>2279</ele>
        <time>2011-07-30T09:41:00Z</time>
      </trkpt>
      <trkpt lat="45.52401" lon="6.71953">
        <ele>2279.3999023438</ele>
        <time>2011-07-30T09:41:02Z</time>
      </trkpt>
      <trkpt lat="45.52393" lon="6.71946">
        <ele>2281</ele>
        <time>2011-07-30T09:41:10Z</time>
      </trkpt>
      <trkpt lat="45.52385" lon="6.71934">
        <ele>2282.6000976562</ele>
        <time>2011-07-30T09:41:20Z</time>
      </trkpt>
      <trkpt lat="45.52379" lon="6.71926">
        <ele>2283.8000488281</ele>
        <time>2011-07-30T09:41:28Z</time>
      </trkpt>
      <trkpt lat="45.52375" lon="6.71922">
        <ele>2284.6000976562</ele>
        <time>2011-07-30T09:41:33Z</time>
      </trkpt>
      <trkpt lat="45.52374" lon="6.71915">
        <ele>2286</ele>
        <time>2011-07-30T09:41:41Z</time>
      </trkpt>
      <trkpt lat="45.52371" lon="6.71909">
        <ele>2287.3999023438</ele>
        <time>2011-07-30T09:41:48Z</time>
      </trkpt>
      <trkpt lat="45.52368" lon="6.71905">
        <ele>2288.6000976562</ele>
        <time>2011-07-30T09:41:54Z</time>
      </trkpt>
      <trkpt lat="45.52367" lon="6.71901">
        <ele>2289.8000488281</ele>
        <time>2011-07-30T09:42:00Z</time>
      </trkpt>
      <trkpt lat="45.52368" lon="6.71897">
        <ele>2290.8000488281</ele>
        <time>2011-07-30T09:42:06Z</time>
      </trkpt>
      <trkpt lat="45.52369" lon="6.71894">
        <ele>2292</ele>
        <time>2011-07-30T09:42:11Z</time>
      </trkpt>
      <trkpt lat="45.5237" lon="6.71891">
        <ele>2292.3999023438</ele>
        <time>2011-07-30T09:42:16Z</time>
      </trkpt>
      <trkpt lat="45.5237" lon="6.71888">
        <ele>2293.3999023438</ele>
        <time>2011-07-30T09:42:20Z</time>
      </trkpt>
      <trkpt lat="45.52371" lon="6.71883">
        <ele>2294.6000976562</ele>
        <time>2011-07-30T09:42:31Z</time>
      </trkpt>
      <trkpt lat="45.52372" lon="6.71876">
        <ele>2296</ele>
        <time>2011-07-30T09:42:37Z</time>
      </trkpt>
      <trkpt lat="45.52374" lon="6.71873">
        <ele>2296.6000976562</ele>
        <time>2011-07-30T09:42:42Z</time>
      </trkpt>
      <trkpt lat="45.52374" lon="6.71867">
        <ele>2297.6000976562</ele>
        <time>2011-07-30T09:42:46Z</time>
      </trkpt>
      <trkpt lat="45.52375" lon="6.7186">
        <ele>2298.3999023438</ele>
        <time>2011-07-30T09:42:51Z</time>
      </trkpt>
      <trkpt lat="45.52375" lon="6.71859">
        <ele>2298.3999023438</ele>
        <time>2011-07-30T09:42:52Z</time>
      </trkpt>
      <trkpt lat="45.52376" lon="6.71847">
        <ele>2299.8000488281</ele>
        <time>2011-07-30T09:43:00Z</time>
      </trkpt>
      <trkpt lat="45.52375" lon="6.71842">
        <ele>2300.3999023438</ele>
        <time>2011-07-30T09:43:04Z</time>
      </trkpt>
      <trkpt lat="45.52372" lon="6.71831">
        <ele>2302</ele>
        <time>2011-07-30T09:43:13Z</time>
      </trkpt>
      <trkpt lat="45.5237" lon="6.71824">
        <ele>2302.8000488281</ele>
        <time>2011-07-30T09:43:19Z</time>
      </trkpt>
      <trkpt lat="45.52369" lon="6.71821">
        <ele>2303</ele>
        <time>2011-07-30T09:43:21Z</time>
      </trkpt>
      <trkpt lat="45.52367" lon="6.71817">
        <ele>2304</ele>
        <time>2011-07-30T09:43:25Z</time>
      </trkpt>
      <trkpt lat="45.52364" lon="6.71808">
        <ele>2305.6000976562</ele>
        <time>2011-07-30T09:43:33Z</time>
      </trkpt>
      <trkpt lat="45.52364" lon="6.71799">
        <ele>2306.8000488281</ele>
        <time>2011-07-30T09:43:41Z</time>
      </trkpt>
      <trkpt lat="45.52363" lon="6.71798">
        <ele>2307.1999511719</ele>
        <time>2011-07-30T09:43:42Z</time>
      </trkpt>
      <trkpt lat="45.52362" lon="6.71794">
        <ele>2308.1999511719</ele>
        <time>2011-07-30T09:43:46Z</time>
      </trkpt>
      <trkpt lat="45.5236" lon="6.71789">
        <ele>2309</ele>
        <time>2011-07-30T09:43:51Z</time>
      </trkpt>
      <trkpt lat="45.5236" lon="6.71787">
        <ele>2309</ele>
        <time>2011-07-30T09:43:52Z</time>
      </trkpt>
      <trkpt lat="45.52356" lon="6.7178">
        <ele>2310.3999023438</ele>
        <time>2011-07-30T09:44:00Z</time>
      </trkpt>
      <trkpt lat="45.52353" lon="6.71774">
        <ele>2311.1999511719</ele>
        <time>2011-07-30T09:44:06Z</time>
      </trkpt>
      <trkpt lat="45.52352" lon="6.71771">
        <ele>2311.6000976562</ele>
        <time>2011-07-30T09:44:09Z</time>
      </trkpt>
      <trkpt lat="45.52348" lon="6.71767">
        <ele>2313</ele>
        <time>2011-07-30T09:44:15Z</time>
      </trkpt>
      <trkpt lat="45.52345" lon="6.71762">
        <ele>2313.8000488281</ele>
        <time>2011-07-30T09:44:20Z</time>
      </trkpt>
      <trkpt lat="45.52344" lon="6.7176">
        <ele>2314.3999023438</ele>
        <time>2011-07-30T09:44:23Z</time>
      </trkpt>
      <trkpt lat="45.52342" lon="6.71753">
        <ele>2315.6000976562</ele>
        <time>2011-07-30T09:44:31Z</time>
      </trkpt>
      <trkpt lat="45.5234" lon="6.71749">
        <ele>2316.6000976562</ele>
        <time>2011-07-30T09:44:36Z</time>
      </trkpt>
      <trkpt lat="45.52338" lon="6.71743">
        <ele>2317.6000976562</ele>
        <time>2011-07-30T09:44:43Z</time>
      </trkpt>
      <trkpt lat="45.52336" lon="6.71737">
        <ele>2318.8000488281</ele>
        <time>2011-07-30T09:44:50Z</time>
      </trkpt>
      <trkpt lat="45.52333" lon="6.71733">
        <ele>2319.6000976562</ele>
        <time>2011-07-30T09:44:56Z</time>
      </trkpt>
      <trkpt lat="45.52331" lon="6.71728">
        <ele>2320.8000488281</ele>
        <time>2011-07-30T09:45:03Z</time>
      </trkpt>
      <trkpt lat="45.5233" lon="6.71724">
        <ele>2321.6000976562</ele>
        <time>2011-07-30T09:45:09Z</time>
      </trkpt>
      <trkpt lat="45.52327" lon="6.7172">
        <ele>2322.1999511719</ele>
        <time>2011-07-30T09:45:16Z</time>
      </trkpt>
      <trkpt lat="45.52324" lon="6.71717">
        <ele>2323.3999023438</ele>
        <time>2011-07-30T09:45:22Z</time>
      </trkpt>
      <trkpt lat="45.52321" lon="6.71713">
        <ele>2324.3999023438</ele>
        <time>2011-07-30T09:45:29Z</time>
      </trkpt>
      <trkpt lat="45.52319" lon="6.71711">
        <ele>2325.3999023438</ele>
        <time>2011-07-30T09:45:34Z</time>
      </trkpt>
      <trkpt lat="45.52316" lon="6.71707">
        <ele>2326.3999023438</ele>
        <time>2011-07-30T09:45:40Z</time>
      </trkpt>
      <trkpt lat="45.52312" lon="6.71704">
        <ele>2327.6000976562</ele>
        <time>2011-07-30T09:45:47Z</time>
      </trkpt>
      <trkpt lat="45.52309" lon="6.71701">
        <ele>2328.6000976562</ele>
        <time>2011-07-30T09:45:53Z</time>
      </trkpt>
      <trkpt lat="45.52308" lon="6.71699">
        <ele>2329.3999023438</ele>
        <time>2011-07-30T09:45:57Z</time>
      </trkpt>
      <trkpt lat="45.52304" lon="6.71695">
        <ele>2330.6000976562</ele>
        <time>2011-07-30T09:46:04Z</time>
      </trkpt>
      <trkpt lat="45.52302" lon="6.71695">
        <ele>2331.6000976562</ele>
        <time>2011-07-30T09:46:09Z</time>
      </trkpt>
      <trkpt lat="45.52298" lon="6.71691">
        <ele>2333</ele>
        <time>2011-07-30T09:46:15Z</time>
      </trkpt>
      <trkpt lat="45.52295" lon="6.71688">
        <ele>2334.1999511719</ele>
        <time>2011-07-30T09:46:20Z</time>
      </trkpt>
      <trkpt lat="45.5229" lon="6.71686">
        <ele>2335.6000976562</ele>
        <time>2011-07-30T09:46:26Z</time>
      </trkpt>
      <trkpt lat="45.52285" lon="6.71682">
        <ele>2337.1999511719</ele>
        <time>2011-07-30T09:46:32Z</time>
      </trkpt>
      <trkpt lat="45.52279" lon="6.71678">
        <ele>2338.8000488281</ele>
        <time>2011-07-30T09:46:39Z</time>
      </trkpt>
      <trkpt lat="45.52274" lon="6.71676">
        <ele>2340.1999511719</ele>
        <time>2011-07-30T09:46:45Z</time>
      </trkpt>
      <trkpt lat="45.52274" lon="6.71677">
        <ele>2340.3999023438</ele>
        <time>2011-07-30T09:46:46Z</time>
      </trkpt>
      <trkpt lat="45.52267" lon="6.71682">
        <ele>2341.3999023438</ele>
        <time>2011-07-30T09:46:52Z</time>
      </trkpt>
      <trkpt lat="45.52266" lon="6.71684">
        <ele>2341.8000488281</ele>
        <time>2011-07-30T09:46:54Z</time>
      </trkpt>
      <trkpt lat="45.52261" lon="6.71688">
        <ele>2342.6000976562</ele>
        <time>2011-07-30T09:46:59Z</time>
      </trkpt>
      <trkpt lat="45.52256" lon="6.71691">
        <ele>2342.8000488281</ele>
        <time>2011-07-30T09:47:03Z</time>
      </trkpt>
      <trkpt lat="45.52256" lon="6.71691">
        <ele>2343</ele>
        <time>2011-07-30T09:47:03Z</time>
      </trkpt>
      <trkpt lat="45.52247" lon="6.71688">
        <ele>2343.1999511719</ele>
        <time>2011-07-30T09:47:08Z</time>
      </trkpt>
      <trkpt lat="45.52234" lon="6.71676">
        <ele>2343.3999023438</ele>
        <time>2011-07-30T09:47:14Z</time>
      </trkpt>
      <trkpt lat="45.52222" lon="6.71665">
        <ele>2343.6000976562</ele>
        <time>2011-07-30T09:47:19Z</time>
      </trkpt>
      <trkpt lat="45.52209" lon="6.71653">
        <ele>2343.3999023438</ele>
        <time>2011-07-30T09:47:25Z</time>
      </trkpt>
      <trkpt lat="45.52195" lon="6.71642">
        <ele>2342.6000976562</ele>
        <time>2011-07-30T09:47:31Z</time>
      </trkpt>
      <trkpt lat="45.5218" lon="6.71628">
        <ele>2341.1999511719</ele>
        <time>2011-07-30T09:47:37Z</time>
      </trkpt>
      <trkpt lat="45.52165" lon="6.71617">
        <ele>2339.3999023438</ele>
        <time>2011-07-30T09:47:44Z</time>
      </trkpt>
      <trkpt lat="45.52153" lon="6.71606">
        <ele>2337.3999023438</ele>
        <time>2011-07-30T09:47:50Z</time>
      </trkpt>
      <trkpt lat="45.52151" lon="6.71601">
        <ele>2336.8000488281</ele>
        <time>2011-07-30T09:47:52Z</time>
      </trkpt>
      <trkpt lat="45.52139" lon="6.71588">
        <ele>2334.6000976562</ele>
        <time>2011-07-30T09:47:58Z</time>
      </trkpt>
      <trkpt lat="45.52128" lon="6.71577">
        <ele>2332.8000488281</ele>
        <time>2011-07-30T09:48:03Z</time>
      </trkpt>
      <trkpt lat="45.52114" lon="6.71563">
        <ele>2330.6000976562</ele>
        <time>2011-07-30T09:48:09Z</time>
      </trkpt>
      <trkpt lat="45.521" lon="6.7155">
        <ele>2329.3999023438</ele>
        <time>2011-07-30T09:48:15Z</time>
      </trkpt>
      <trkpt lat="45.52091" lon="6.7154">
        <ele>2328.6000976562</ele>
        <time>2011-07-30T09:48:19Z</time>
      </trkpt>
      <trkpt lat="45.5208" lon="6.71528">
        <ele>2327.3999023438</ele>
        <time>2011-07-30T09:48:24Z</time>
      </trkpt>
      <trkpt lat="45.52069" lon="6.71517">
        <ele>2326.3999023438</ele>
        <time>2011-07-30T09:48:29Z</time>
      </trkpt>
      <trkpt lat="45.52055" lon="6.71507">
        <ele>2325.1999511719</ele>
        <time>2011-07-30T09:48:35Z</time>
      </trkpt>
      <trkpt lat="45.52047" lon="6.71495">
        <ele>2323.8000488281</ele>
        <time>2011-07-30T09:48:40Z</time>
      </trkpt>
      <trkpt lat="45.52036" lon="6.71486">
        <ele>2322.8000488281</ele>
        <time>2011-07-30T09:48:45Z</time>
      </trkpt>
      <trkpt lat="45.52021" lon="6.71474">
        <ele>2320.6000976562</ele>
        <time>2011-07-30T09:48:52Z</time>
      </trkpt>
      <trkpt lat="45.52011" lon="6.71465">
        <ele>2319</ele>
        <time>2011-07-30T09:48:57Z</time>
      </trkpt>
      <trkpt lat="45.52" lon="6.71451">
        <ele>2316.6000976562</ele>
        <time>2011-07-30T09:49:03Z</time>
      </trkpt>
      <trkpt lat="45.51989" lon="6.71439">
        <ele>2314.6000976562</ele>
        <time>2011-07-30T09:49:08Z</time>
      </trkpt>
      <trkpt lat="45.51979" lon="6.71426">
        <ele>2312.8000488281</ele>
        <time>2011-07-30T09:49:13Z</time>
      </trkpt>
      <trkpt lat="45.51971" lon="6.71415">
        <ele>2311.3999023438</ele>
        <time>2011-07-30T09:49:17Z</time>
      </trkpt>
      <trkpt lat="45.51963" lon="6.71405">
        <ele>2310</ele>
        <time>2011-07-30T09:49:21Z</time>
      </trkpt>
      <trkpt lat="45.51956" lon="6.71394">
        <ele>2308.8000488281</ele>
        <time>2011-07-30T09:49:25Z</time>
      </trkpt>
      <trkpt lat="45.51955" lon="6.71391">
        <ele>2308.3999023438</ele>
        <time>2011-07-30T09:49:27Z</time>
      </trkpt>
      <trkpt lat="45.5195" lon="6.71384">
        <ele>2307</ele>
        <time>2011-07-30T09:49:32Z</time>
      </trkpt>
      <trkpt lat="45.51944" lon="6.71373">
        <ele>2305.6000976562</ele>
        <time>2011-07-30T09:49:38Z</time>
      </trkpt>
      <trkpt lat="45.51938" lon="6.71364">
        <ele>2303.8000488281</ele>
        <time>2011-07-30T09:49:44Z</time>
      </trkpt>
      <trkpt lat="45.51931" lon="6.71353">
        <ele>2301.8000488281</ele>
        <time>2011-07-30T09:49:50Z</time>
      </trkpt>
      <trkpt lat="45.51923" lon="6.71342">
        <ele>2299.8000488281</ele>
        <time>2011-07-30T09:49:55Z</time>
      </trkpt>
      <trkpt lat="45.51912" lon="6.71336">
        <ele>2298.1999511719</ele>
        <time>2011-07-30T09:50:00Z</time>
      </trkpt>
      <trkpt lat="45.51905" lon="6.71337">
        <ele>2297</ele>
        <time>2011-07-30T09:50:03Z</time>
      </trkpt>
      <trkpt lat="45.51894" lon="6.71325">
        <ele>2295</ele>
        <time>2011-07-30T09:50:09Z</time>
      </trkpt>
      <trkpt lat="45.51885" lon="6.71321">
        <ele>2293.6000976562</ele>
        <time>2011-07-30T09:50:14Z</time>
      </trkpt>
      <trkpt lat="45.51881" lon="6.71319">
        <ele>2292</ele>
        <time>2011-07-30T09:50:19Z</time>
      </trkpt>
      <trkpt lat="45.51878" lon="6.71315">
        <ele>2290.6000976562</ele>
        <time>2011-07-30T09:50:23Z</time>
      </trkpt>
      <trkpt lat="45.51867" lon="6.71309">
        <ele>2288.8000488281</ele>
        <time>2011-07-30T09:50:29Z</time>
      </trkpt>
      <trkpt lat="45.51858" lon="6.71304">
        <ele>2287.3999023438</ele>
        <time>2011-07-30T09:50:34Z</time>
      </trkpt>
      <trkpt lat="45.51847" lon="6.71297">
        <ele>2285</ele>
        <time>2011-07-30T09:50:40Z</time>
      </trkpt>
      <trkpt lat="45.51846" lon="6.71296">
        <ele>2284.6000976562</ele>
        <time>2011-07-30T09:50:41Z</time>
      </trkpt>
      <trkpt lat="45.51834" lon="6.71294">
        <ele>2282.1999511719</ele>
        <time>2011-07-30T09:50:47Z</time>
      </trkpt>
      <trkpt lat="45.51822" lon="6.71293">
        <ele>2280</ele>
        <time>2011-07-30T09:50:52Z</time>
      </trkpt>
      <trkpt lat="45.51808" lon="6.7129">
        <ele>2277.6000976562</ele>
        <time>2011-07-30T09:50:59Z</time>
      </trkpt>
      <trkpt lat="45.51799" lon="6.71286">
        <ele>2276</ele>
        <time>2011-07-30T09:51:04Z</time>
      </trkpt>
      <trkpt lat="45.51791" lon="6.71283">
        <ele>2274.3999023438</ele>
        <time>2011-07-30T09:51:09Z</time>
      </trkpt>
      <trkpt lat="45.5178" lon="6.71278">
        <ele>2272</ele>
        <time>2011-07-30T09:51:15Z</time>
      </trkpt>
      <trkpt lat="45.51768" lon="6.71275">
        <ele>2269.1999511719</ele>
        <time>2011-07-30T09:51:21Z</time>
      </trkpt>
      <trkpt lat="45.51756" lon="6.71276">
        <ele>2266.3999023438</ele>
        <time>2011-07-30T09:51:27Z</time>
      </trkpt>
      <trkpt lat="45.51754" lon="6.71276">
        <ele>2266</ele>
        <time>2011-07-30T09:51:28Z</time>
      </trkpt>
      <trkpt lat="45.51748" lon="6.71273">
        <ele>2264.1999511719</ele>
        <time>2011-07-30T09:51:32Z</time>
      </trkpt>
      <trkpt lat="45.51736" lon="6.71263">
        <ele>2261.6000976562</ele>
        <time>2011-07-30T09:51:38Z</time>
      </trkpt>
      <trkpt lat="45.51728" lon="6.71251">
        <ele>2259.3999023438</ele>
        <time>2011-07-30T09:51:43Z</time>
      </trkpt>
      <trkpt lat="45.51722" lon="6.71238">
        <ele>2257.1999511719</ele>
        <time>2011-07-30T09:51:48Z</time>
      </trkpt>
      <trkpt lat="45.51713" lon="6.71227">
        <ele>2254.6000976562</ele>
        <time>2011-07-30T09:51:54Z</time>
      </trkpt>
      <trkpt lat="45.51708" lon="6.71214">
        <ele>2252</ele>
        <time>2011-07-30T09:51:59Z</time>
      </trkpt>
      <trkpt lat="45.51701" lon="6.71201">
        <ele>2249.3999023438</ele>
        <time>2011-07-30T09:52:04Z</time>
      </trkpt>
      <trkpt lat="45.51699" lon="6.71196">
        <ele>2248.3999023438</ele>
        <time>2011-07-30T09:52:06Z</time>
      </trkpt>
      <trkpt lat="45.51694" lon="6.71185">
        <ele>2246</ele>
        <time>2011-07-30T09:52:11Z</time>
      </trkpt>
      <trkpt lat="45.51686" lon="6.71176">
        <ele>2243.8000488281</ele>
        <time>2011-07-30T09:52:16Z</time>
      </trkpt>
      <trkpt lat="45.51685" lon="6.71174">
        <ele>2243.3999023438</ele>
        <time>2011-07-30T09:52:17Z</time>
      </trkpt>
      <trkpt lat="45.51684" lon="6.71171">
        <ele>2242.8000488281</ele>
        <time>2011-07-30T09:52:18Z</time>
      </trkpt>
      <trkpt lat="45.51682" lon="6.71166">
        <ele>2242</ele>
        <time>2011-07-30T09:52:20Z</time>
      </trkpt>
      <trkpt lat="45.51677" lon="6.71155">
        <ele>2239.8000488281</ele>
        <time>2011-07-30T09:52:25Z</time>
      </trkpt>
      <trkpt lat="45.51668" lon="6.71141">
        <ele>2237</ele>
        <time>2011-07-30T09:52:31Z</time>
      </trkpt>
      <trkpt lat="45.5166" lon="6.71124">
        <ele>2234.1999511719</ele>
        <time>2011-07-30T09:52:37Z</time>
      </trkpt>
      <trkpt lat="45.51651" lon="6.71107">
        <ele>2231.3999023438</ele>
        <time>2011-07-30T09:52:43Z</time>
      </trkpt>
      <trkpt lat="45.5164" lon="6.71096">
        <ele>2228.8000488281</ele>
        <time>2011-07-30T09:52:49Z</time>
      </trkpt>
      <trkpt lat="45.51629" lon="6.71087">
        <ele>2226</ele>
        <time>2011-07-30T09:52:55Z</time>
      </trkpt>
      <trkpt lat="45.51621" lon="6.71082">
        <ele>2223.8000488281</ele>
        <time>2011-07-30T09:53:00Z</time>
      </trkpt>
      <trkpt lat="45.51612" lon="6.71076">
        <ele>2221.3999023438</ele>
        <time>2011-07-30T09:53:05Z</time>
      </trkpt>
      <trkpt lat="45.51601" lon="6.71068">
        <ele>2217.8000488281</ele>
        <time>2011-07-30T09:53:12Z</time>
      </trkpt>
      <trkpt lat="45.5159" lon="6.7106">
        <ele>2213.8000488281</ele>
        <time>2011-07-30T09:53:19Z</time>
      </trkpt>
      <trkpt lat="45.51578" lon="6.71052">
        <ele>2209</ele>
        <time>2011-07-30T09:53:27Z</time>
      </trkpt>
      <trkpt lat="45.51565" lon="6.71043">
        <ele>2203.6000976562</ele>
        <time>2011-07-30T09:53:35Z</time>
      </trkpt>
      <trkpt lat="45.51555" lon="6.71038">
        <ele>2201.1999511719</ele>
        <time>2011-07-30T09:53:39Z</time>
      </trkpt>
      <trkpt lat="45.5154" lon="6.71028">
        <ele>2197</ele>
        <time>2011-07-30T09:53:46Z</time>
      </trkpt>
      <trkpt lat="45.5153" lon="6.71019">
        <ele>2194.6000976562</ele>
        <time>2011-07-30T09:53:50Z</time>
      </trkpt>
      <trkpt lat="45.51519" lon="6.71011">
        <ele>2191.6000976562</ele>
        <time>2011-07-30T09:53:55Z</time>
      </trkpt>
      <trkpt lat="45.51488" lon="6.70994">
        <ele>2185.1999511719</ele>
        <time>2011-07-30T09:54:07Z</time>
      </trkpt>
      <trkpt lat="45.51472" lon="6.70985">
        <ele>2182.1999511719</ele>
        <time>2011-07-30T09:54:13Z</time>
      </trkpt>
      <trkpt lat="45.51455" lon="6.70975">
        <ele>2179.3999023438</ele>
        <time>2011-07-30T09:54:19Z</time>
      </trkpt>
      <trkpt lat="45.51438" lon="6.70964">
        <ele>2176.8000488281</ele>
        <time>2011-07-30T09:54:25Z</time>
      </trkpt>
      <trkpt lat="45.51421" lon="6.70953">
        <ele>2174.3999023438</ele>
        <time>2011-07-30T09:54:31Z</time>
      </trkpt>
      <trkpt lat="45.51407" lon="6.70932">
        <ele>2171.8000488281</ele>
        <time>2011-07-30T09:54:37Z</time>
      </trkpt>
      <trkpt lat="45.51391" lon="6.7092">
        <ele>2169.1999511719</ele>
        <time>2011-07-30T09:54:43Z</time>
      </trkpt>
      <trkpt lat="45.51376" lon="6.70924">
        <ele>2167</ele>
        <time>2011-07-30T09:54:48Z</time>
      </trkpt>
      <trkpt lat="45.51361" lon="6.7093">
        <ele>2165.3999023438</ele>
        <time>2011-07-30T09:54:53Z</time>
      </trkpt>
      <trkpt lat="45.51356" lon="6.70927">
        <ele>2164.6000976562</ele>
        <time>2011-07-30T09:54:55Z</time>
      </trkpt>
      <trkpt lat="45.51349" lon="6.70913">
        <ele>2163.3999023438</ele>
        <time>2011-07-30T09:54:59Z</time>
      </trkpt>
      <trkpt lat="45.51339" lon="6.70889">
        <ele>2161.3999023438</ele>
        <time>2011-07-30T09:55:06Z</time>
      </trkpt>
      <trkpt lat="45.51332" lon="6.70871">
        <ele>2160</ele>
        <time>2011-07-30T09:55:11Z</time>
      </trkpt>
      <trkpt lat="45.51326" lon="6.70852">
        <ele>2157.8000488281</ele>
        <time>2011-07-30T09:55:16Z</time>
      </trkpt>
      <trkpt lat="45.51321" lon="6.70829">
        <ele>2155.8000488281</ele>
        <time>2011-07-30T09:55:22Z</time>
      </trkpt>
      <trkpt lat="45.51317" lon="6.70808">
        <ele>2154</ele>
        <time>2011-07-30T09:55:27Z</time>
      </trkpt>
      <trkpt lat="45.51307" lon="6.70794">
        <ele>2152.6000976562</ele>
        <time>2011-07-30T09:55:32Z</time>
      </trkpt>
      <trkpt lat="45.51292" lon="6.70787">
        <ele>2150.6000976562</ele>
        <time>2011-07-30T09:55:38Z</time>
      </trkpt>
      <trkpt lat="45.51274" lon="6.70786">
        <ele>2149.6000976562</ele>
        <time>2011-07-30T09:55:44Z</time>
      </trkpt>
      <trkpt lat="45.51262" lon="6.70785">
        <ele>2149</ele>
        <time>2011-07-30T09:55:48Z</time>
      </trkpt>
      <trkpt lat="45.51243" lon="6.70786">
        <ele>2147.6000976562</ele>
        <time>2011-07-30T09:55:54Z</time>
      </trkpt>
      <trkpt lat="45.51223" lon="6.70788">
        <ele>2146.3999023438</ele>
        <time>2011-07-30T09:56:00Z</time>
      </trkpt>
      <trkpt lat="45.51209" lon="6.70789">
        <ele>2145.3999023438</ele>
        <time>2011-07-30T09:56:05Z</time>
      </trkpt>
      <trkpt lat="45.51191" lon="6.70787">
        <ele>2144.1999511719</ele>
        <time>2011-07-30T09:56:11Z</time>
      </trkpt>
      <trkpt lat="45.51175" lon="6.70784">
        <ele>2143.1999511719</ele>
        <time>2011-07-30T09:56:17Z</time>
      </trkpt>
      <trkpt lat="45.5116" lon="6.70781">
        <ele>2142.1999511719</ele>
        <time>2011-07-30T09:56:23Z</time>
      </trkpt>
      <trkpt lat="45.51145" lon="6.70782">
        <ele>2141.1999511719</ele>
        <time>2011-07-30T09:56:29Z</time>
      </trkpt>
      <trkpt lat="45.51134" lon="6.70783">
        <ele>2140.1999511719</ele>
        <time>2011-07-30T09:56:33Z</time>
      </trkpt>
      <trkpt lat="45.51119" lon="6.7078">
        <ele>2139.1999511719</ele>
        <time>2011-07-30T09:56:39Z</time>
      </trkpt>
      <trkpt lat="45.51105" lon="6.7078">
        <ele>2137.6000976562</ele>
        <time>2011-07-30T09:56:45Z</time>
      </trkpt>
      <trkpt lat="45.51092" lon="6.70784">
        <ele>2136</ele>
        <time>2011-07-30T09:56:51Z</time>
      </trkpt>
      <trkpt lat="45.51081" lon="6.70789">
        <ele>2135.1999511719</ele>
        <time>2011-07-30T09:56:56Z</time>
      </trkpt>
      <trkpt lat="45.51072" lon="6.70797">
        <ele>2133.8000488281</ele>
        <time>2011-07-30T09:57:01Z</time>
      </trkpt>
      <trkpt lat="45.51062" lon="6.70814">
        <ele>2131.8000488281</ele>
        <time>2011-07-30T09:57:08Z</time>
      </trkpt>
      <trkpt lat="45.51054" lon="6.70823">
        <ele>2131</ele>
        <time>2011-07-30T09:57:12Z</time>
      </trkpt>
      <trkpt lat="45.51039" lon="6.70825">
        <ele>2129.3999023438</ele>
        <time>2011-07-30T09:57:18Z</time>
      </trkpt>
      <trkpt lat="45.51027" lon="6.70824">
        <ele>2128.6000976562</ele>
        <time>2011-07-30T09:57:23Z</time>
      </trkpt>
      <trkpt lat="45.51011" lon="6.70821">
        <ele>2127.1999511719</ele>
        <time>2011-07-30T09:57:29Z</time>
      </trkpt>
      <trkpt lat="45.50995" lon="6.70819">
        <ele>2126</ele>
        <time>2011-07-30T09:57:35Z</time>
      </trkpt>
      <trkpt lat="45.50977" lon="6.70812">
        <ele>2124.8000488281</ele>
        <time>2011-07-30T09:57:41Z</time>
      </trkpt>
      <trkpt lat="45.50963" lon="6.70814">
        <ele>2123.3999023438</ele>
        <time>2011-07-30T09:57:46Z</time>
      </trkpt>
      <trkpt lat="45.50946" lon="6.70815">
        <ele>2122.3999023438</ele>
        <time>2011-07-30T09:57:52Z</time>
      </trkpt>
      <trkpt lat="45.50937" lon="6.70815">
        <ele>2122</ele>
        <time>2011-07-30T09:57:56Z</time>
      </trkpt>
      <trkpt lat="45.50924" lon="6.70816">
        <ele>2121.6000976562</ele>
        <time>2011-07-30T09:58:01Z</time>
      </trkpt>
      <trkpt lat="45.50917" lon="6.7082">
        <ele>2121.6000976562</ele>
        <time>2011-07-30T09:58:04Z</time>
      </trkpt>
      <trkpt lat="45.5091" lon="6.70825">
        <ele>2121.3999023438</ele>
        <time>2011-07-30T09:58:07Z</time>
      </trkpt>
      <trkpt lat="45.50896" lon="6.7083">
        <ele>2121.3999023438</ele>
        <time>2011-07-30T09:58:12Z</time>
      </trkpt>
      <trkpt lat="45.50877" lon="6.70839">
        <ele>2121.1999511719</ele>
        <time>2011-07-30T09:58:19Z</time>
      </trkpt>
      <trkpt lat="45.50863" lon="6.70846">
        <ele>2121.1999511719</ele>
        <time>2011-07-30T09:58:24Z</time>
      </trkpt>
      <trkpt lat="45.5085" lon="6.70852">
        <ele>2121.1999511719</ele>
        <time>2011-07-30T09:58:29Z</time>
      </trkpt>
      <trkpt lat="45.50831" lon="6.70862">
        <ele>2121.1999511719</ele>
        <time>2011-07-30T09:58:36Z</time>
      </trkpt>
      <trkpt lat="45.50812" lon="6.70871">
        <ele>2121.1999511719</ele>
        <time>2011-07-30T09:58:43Z</time>
      </trkpt>
      <trkpt lat="45.508" lon="6.70877">
        <ele>2121.1999511719</ele>
        <time>2011-07-30T09:58:47Z</time>
      </trkpt>
      <trkpt lat="45.50786" lon="6.70867">
        <ele>2121.1999511719</ele>
        <time>2011-07-30T09:58:52Z</time>
      </trkpt>
      <trkpt lat="45.50768" lon="6.70863">
        <ele>2120.3999023438</ele>
        <time>2011-07-30T09:58:58Z</time>
      </trkpt>
      <trkpt lat="45.5075" lon="6.70861">
        <ele>2119</ele>
        <time>2011-07-30T09:59:04Z</time>
      </trkpt>
      <trkpt lat="45.50735" lon="6.70859">
        <ele>2117.3999023438</ele>
        <time>2011-07-30T09:59:09Z</time>
      </trkpt>
      <trkpt lat="45.50721" lon="6.70864">
        <ele>2115.3999023438</ele>
        <time>2011-07-30T09:59:14Z</time>
      </trkpt>
      <trkpt lat="45.50705" lon="6.70878">
        <ele>2113.3999023438</ele>
        <time>2011-07-30T09:59:20Z</time>
      </trkpt>
      <trkpt lat="45.50693" lon="6.70887">
        <ele>2112</ele>
        <time>2011-07-30T09:59:24Z</time>
      </trkpt>
      <trkpt lat="45.5069" lon="6.70889">
        <ele>2111.6000976562</ele>
        <time>2011-07-30T09:59:25Z</time>
      </trkpt>
      <trkpt lat="45.50671" lon="6.7088">
        <ele>2109.6000976562</ele>
        <time>2011-07-30T09:59:31Z</time>
      </trkpt>
      <trkpt lat="45.50665" lon="6.70867">
        <ele>2108.1999511719</ele>
        <time>2011-07-30T09:59:35Z</time>
      </trkpt>
      <trkpt lat="45.50672" lon="6.70841">
        <ele>2105.3999023438</ele>
        <time>2011-07-30T09:59:41Z</time>
      </trkpt>
      <trkpt lat="45.5068" lon="6.70823">
        <ele>2103</ele>
        <time>2011-07-30T09:59:45Z</time>
      </trkpt>
      <trkpt lat="45.50681" lon="6.70819">
        <ele>2102.1999511719</ele>
        <time>2011-07-30T09:59:46Z</time>
      </trkpt>
      <trkpt lat="45.50676" lon="6.70802">
        <ele>2099.8000488281</ele>
        <time>2011-07-30T09:59:50Z</time>
      </trkpt>
      <trkpt lat="45.50673" lon="6.70799">
        <ele>2099</ele>
        <time>2011-07-30T09:59:51Z</time>
      </trkpt>
      <trkpt lat="45.50665" lon="6.70775">
        <ele>2095.1999511719</ele>
        <time>2011-07-30T09:59:57Z</time>
      </trkpt>
      <trkpt lat="45.50657" lon="6.70748">
        <ele>2092</ele>
        <time>2011-07-30T10:00:03Z</time>
      </trkpt>
      <trkpt lat="45.50652" lon="6.70722">
        <ele>2089.6000976562</ele>
        <time>2011-07-30T10:00:09Z</time>
      </trkpt>
      <trkpt lat="45.50647" lon="6.70706">
        <ele>2087.8000488281</ele>
        <time>2011-07-30T10:00:13Z</time>
      </trkpt>
      <trkpt lat="45.50651" lon="6.70675">
        <ele>2084.6000976562</ele>
        <time>2011-07-30T10:00:20Z</time>
      </trkpt>
      <trkpt lat="45.50654" lon="6.70654">
        <ele>2082.6000976562</ele>
        <time>2011-07-30T10:00:25Z</time>
      </trkpt>
      <trkpt lat="45.50658" lon="6.70637">
        <ele>2081</ele>
        <time>2011-07-30T10:00:29Z</time>
      </trkpt>
      <trkpt lat="45.50663" lon="6.70613">
        <ele>2078.1999511719</ele>
        <time>2011-07-30T10:00:35Z</time>
      </trkpt>
      <trkpt lat="45.50674" lon="6.70591">
        <ele>2075.6000976562</ele>
        <time>2011-07-30T10:00:40Z</time>
      </trkpt>
      <trkpt lat="45.50689" lon="6.7057">
        <ele>2072.1999511719</ele>
        <time>2011-07-30T10:00:46Z</time>
      </trkpt>
      <trkpt lat="45.50702" lon="6.70555">
        <ele>2069.1999511719</ele>
        <time>2011-07-30T10:00:52Z</time>
      </trkpt>
      <trkpt lat="45.50709" lon="6.70533">
        <ele>2066.1999511719</ele>
        <time>2011-07-30T10:00:58Z</time>
      </trkpt>
      <trkpt lat="45.50716" lon="6.70514">
        <ele>2064</ele>
        <time>2011-07-30T10:01:03Z</time>
      </trkpt>
      <trkpt lat="45.50727" lon="6.70502">
        <ele>2061.8000488281</ele>
        <time>2011-07-30T10:01:08Z</time>
      </trkpt>
      <trkpt lat="45.50739" lon="6.70503">
        <ele>2059.3999023438</ele>
        <time>2011-07-30T10:01:13Z</time>
      </trkpt>
      <trkpt lat="45.50751" lon="6.70503">
        <ele>2056.6000976562</ele>
        <time>2011-07-30T10:01:19Z</time>
      </trkpt>
      <trkpt lat="45.50763" lon="6.70503">
        <ele>2053.6000976562</ele>
        <time>2011-07-30T10:01:25Z</time>
      </trkpt>
      <trkpt lat="45.50775" lon="6.70499">
        <ele>2050.6000976562</ele>
        <time>2011-07-30T10:01:31Z</time>
      </trkpt>
      <trkpt lat="45.50787" lon="6.70489">
        <ele>2047.8000488281</ele>
        <time>2011-07-30T10:01:37Z</time>
      </trkpt>
      <trkpt lat="45.50791" lon="6.70487">
        <ele>2047.1999511719</ele>
        <time>2011-07-30T10:01:39Z</time>
      </trkpt>
      <trkpt lat="45.50803" lon="6.70472">
        <ele>2044.4000244141</ele>
        <time>2011-07-30T10:01:46Z</time>
      </trkpt>
      <trkpt lat="45.50815" lon="6.70464">
        <ele>2042.4000244141</ele>
        <time>2011-07-30T10:01:52Z</time>
      </trkpt>
      <trkpt lat="45.50825" lon="6.70457">
        <ele>2040.5999755859</ele>
        <time>2011-07-30T10:01:57Z</time>
      </trkpt>
      <trkpt lat="45.50838" lon="6.70444">
        <ele>2037.5999755859</ele>
        <time>2011-07-30T10:02:04Z</time>
      </trkpt>
      <trkpt lat="45.50851" lon="6.70436">
        <ele>2035</ele>
        <time>2011-07-30T10:02:10Z</time>
      </trkpt>
      <trkpt lat="45.50858" lon="6.70425">
        <ele>2032.8000488281</ele>
        <time>2011-07-30T10:02:15Z</time>
      </trkpt>
      <trkpt lat="45.50861" lon="6.70417">
        <ele>2031.1999511719</ele>
        <time>2011-07-30T10:02:18Z</time>
      </trkpt>
      <trkpt lat="45.50869" lon="6.70412">
        <ele>2029.1999511719</ele>
        <time>2011-07-30T10:02:22Z</time>
      </trkpt>
      <trkpt lat="45.50879" lon="6.70397">
        <ele>2025.4000244141</ele>
        <time>2011-07-30T10:02:29Z</time>
      </trkpt>
      <trkpt lat="45.50888" lon="6.70386">
        <ele>2021.8000488281</ele>
        <time>2011-07-30T10:02:35Z</time>
      </trkpt>
      <trkpt lat="45.50898" lon="6.70374">
        <ele>2018.4000244141</ele>
        <time>2011-07-30T10:02:41Z</time>
      </trkpt>
      <trkpt lat="45.50907" lon="6.70357">
        <ele>2014.4000244141</ele>
        <time>2011-07-30T10:02:48Z</time>
      </trkpt>
      <trkpt lat="45.5092" lon="6.70337">
        <ele>2010.5999755859</ele>
        <time>2011-07-30T10:02:55Z</time>
      </trkpt>
      <trkpt lat="45.50929" lon="6.7032">
        <ele>2008</ele>
        <time>2011-07-30T10:03:01Z</time>
      </trkpt>
      <trkpt lat="45.50941" lon="6.70302">
        <ele>2004.8000488281</ele>
        <time>2011-07-30T10:03:07Z</time>
      </trkpt>
      <trkpt lat="45.50952" lon="6.70288">
        <ele>2002.5999755859</ele>
        <time>2011-07-30T10:03:12Z</time>
      </trkpt>
      <trkpt lat="45.50964" lon="6.70272">
        <ele>2000.1999511719</ele>
        <time>2011-07-30T10:03:18Z</time>
      </trkpt>
      <trkpt lat="45.50976" lon="6.70254">
        <ele>1998</ele>
        <time>2011-07-30T10:03:24Z</time>
      </trkpt>
      <trkpt lat="45.50985" lon="6.70237">
        <ele>1996.4000244141</ele>
        <time>2011-07-30T10:03:29Z</time>
      </trkpt>
      <trkpt lat="45.50987" lon="6.70234">
        <ele>1996</ele>
        <time>2011-07-30T10:03:30Z</time>
      </trkpt>
      <trkpt lat="45.50999" lon="6.70213">
        <ele>1994.1999511719</ele>
        <time>2011-07-30T10:03:36Z</time>
      </trkpt>
      <trkpt lat="45.5101" lon="6.70199">
        <ele>1992.8000488281</ele>
        <time>2011-07-30T10:03:41Z</time>
      </trkpt>
      <trkpt lat="45.51023" lon="6.70183">
        <ele>1991.4000244141</ele>
        <time>2011-07-30T10:03:47Z</time>
      </trkpt>
      <trkpt lat="45.51034" lon="6.70163">
        <ele>1989.8000488281</ele>
        <time>2011-07-30T10:03:53Z</time>
      </trkpt>
      <trkpt lat="45.51044" lon="6.70148">
        <ele>1988.5999755859</ele>
        <time>2011-07-30T10:03:58Z</time>
      </trkpt>
      <trkpt lat="45.51057" lon="6.70132">
        <ele>1987</ele>
        <time>2011-07-30T10:04:04Z</time>
      </trkpt>
      <trkpt lat="45.5107" lon="6.70116">
        <ele>1985.1999511719</ele>
        <time>2011-07-30T10:04:10Z</time>
      </trkpt>
      <trkpt lat="45.51084" lon="6.70095">
        <ele>1982.8000488281</ele>
        <time>2011-07-30T10:04:17Z</time>
      </trkpt>
      <trkpt lat="45.51092" lon="6.70081">
        <ele>1981.1999511719</ele>
        <time>2011-07-30T10:04:22Z</time>
      </trkpt>
      <trkpt lat="45.51099" lon="6.70064">
        <ele>1979.5999755859</ele>
        <time>2011-07-30T10:04:27Z</time>
      </trkpt>
      <trkpt lat="45.51106" lon="6.70037">
        <ele>1977</ele>
        <time>2011-07-30T10:04:34Z</time>
      </trkpt>
      <trkpt lat="45.51115" lon="6.70016">
        <ele>1974.8000488281</ele>
        <time>2011-07-30T10:04:40Z</time>
      </trkpt>
      <trkpt lat="45.51128" lon="6.69999">
        <ele>1972.5999755859</ele>
        <time>2011-07-30T10:04:46Z</time>
      </trkpt>
      <trkpt lat="45.51141" lon="6.6998">
        <ele>1970.1999511719</ele>
        <time>2011-07-30T10:04:52Z</time>
      </trkpt>
      <trkpt lat="45.51153" lon="6.69959">
        <ele>1968</ele>
        <time>2011-07-30T10:04:58Z</time>
      </trkpt>
      <trkpt lat="45.51164" lon="6.69937">
        <ele>1965.8000488281</ele>
        <time>2011-07-30T10:05:04Z</time>
      </trkpt>
      <trkpt lat="45.51175" lon="6.69917">
        <ele>1963.8000488281</ele>
        <time>2011-07-30T10:05:10Z</time>
      </trkpt>
      <trkpt lat="45.51184" lon="6.69899">
        <ele>1962</ele>
        <time>2011-07-30T10:05:15Z</time>
      </trkpt>
      <trkpt lat="45.51189" lon="6.69879">
        <ele>1960.1999511719</ele>
        <time>2011-07-30T10:05:20Z</time>
      </trkpt>
      <trkpt lat="45.51195" lon="6.69853">
        <ele>1958.1999511719</ele>
        <time>2011-07-30T10:05:26Z</time>
      </trkpt>
      <trkpt lat="45.51201" lon="6.69832">
        <ele>1956.4000244141</ele>
        <time>2011-07-30T10:05:31Z</time>
      </trkpt>
      <trkpt lat="45.51213" lon="6.69813">
        <ele>1955</ele>
        <time>2011-07-30T10:05:36Z</time>
      </trkpt>
      <trkpt lat="45.51229" lon="6.69798">
        <ele>1953</ele>
        <time>2011-07-30T10:05:42Z</time>
      </trkpt>
      <trkpt lat="45.51244" lon="6.69788">
        <ele>1951.5999755859</ele>
        <time>2011-07-30T10:05:47Z</time>
      </trkpt>
      <trkpt lat="45.51259" lon="6.6977">
        <ele>1949.4000244141</ele>
        <time>2011-07-30T10:05:53Z</time>
      </trkpt>
      <trkpt lat="45.51265" lon="6.69761">
        <ele>1947.8000488281</ele>
        <time>2011-07-30T10:05:57Z</time>
      </trkpt>
      <trkpt lat="45.51268" lon="6.69756">
        <ele>1946</ele>
        <time>2011-07-30T10:06:03Z</time>
      </trkpt>
      <trkpt lat="45.51267" lon="6.69755">
        <ele>1944.5999755859</ele>
        <time>2011-07-30T10:06:10Z</time>
      </trkpt>
      <trkpt lat="45.51267" lon="6.69756">
        <ele>1943.1999511719</ele>
        <time>2011-07-30T10:06:16Z</time>
      </trkpt>
      <trkpt lat="45.51266" lon="6.69759">
        <ele>1941.8000488281</ele>
        <time>2011-07-30T10:06:24Z</time>
      </trkpt>
      <trkpt lat="45.51263" lon="6.6976">
        <ele>1940.8000488281</ele>
        <time>2011-07-30T10:06:31Z</time>
      </trkpt>
      <trkpt lat="45.51263" lon="6.69761">
        <ele>1939.8000488281</ele>
        <time>2011-07-30T10:06:37Z</time>
      </trkpt>
      <trkpt lat="45.51278" lon="6.69745">
        <ele>1925.4000244141</ele>
        <time>2011-07-30T10:12:56Z</time>
      </trkpt>
      <trkpt lat="45.51278" lon="6.69745">
        <ele>1925.4000244141</ele>
        <time>2011-07-30T10:12:57Z</time>
      </trkpt>
    </trkseg>
  </trk>
</gpx>